[[[{"header":{"parameterUnit":"kt","parameterCategory":2,"dx":1,"dy":1,"la1":29.587661999999998,"la2":31.0,"lo1":-88.76705300000003,"lo2":-86.6583820000003,"nx":115,"ny":88,"refTime":"2022-10-14T12:00:00:Z","depth":0,"parameterNumber":1,"parameterNumberName":"U-component_of_WINDS"},"data":[13.3234,13.5932,13.7838,13.9544,14.0842,14.0985,14.0985,14.0985,14.0985,14.0985,14.0985,14.0985,14.0985,14.0985,14.0985,14.0985,14.0985,14.0985,14.0985,14.0985,14.0985,14.0985,14.0985,14.0985,14.0985,14.0985,14.127,14.2833,14.5173,14.5743,14.717,15.008,15.023,15.0301,15.0301,15.0301,15.0301,15.0301,15.0301,15.0301,15.0301,15.0301,15.0301,15.0301,15.0301,15.0301,15.0301,15.0301,15.0301,15.0301,15.0301,15.0301,15.0301,15.0301,15.0301,15.0301,15.0301,15.0301,15.0301,15.0301,15.0301,15.0301,15.0301,15.0301,15.0301,15.0301,15.0301,15.0301,15.0301,15.0301,15.0301,15.0301,15.0301,15.0301,15.0301,15.0301,15.0301,15.0301,15.0301,15.0301,15.0301,15.0301,15.0301,15.0301,15.0301,15.0301,15.0301,15.0301,15.0301,15.0301,15.0301,15.0301,15.0301,15.0301,15.0373,15.1822,15.2772,15.2897,15.284,15.2588,15.254,15.278,15.3265,15.3746,15.3708,15.3843,15.3858,15.4579,15.5285,15.5627,15.5277,15.5096,15.4878,15.4491,15.3781,13.2657,13.4557,13.7325,13.9466,14.0842,14.0985,14.0985,14.0985,14.0985,14.0985,14.0985,14.0985,14.0985,14.0985,14.0985,14.0985,14.0985,14.0985,14.0985,14.0985,14.0985,14.0985,14.0985,14.0985,14.0985,14.0985,14.1063,14.2975,14.5522,14.5807,14.7027,14.9588,15.0301,15.0301,15.0301,15.0301,15.0301,15.0301,15.0301,15.0301,15.0301,15.0301,15.0301,15.0301,15.0301,15.0301,15.0301,15.0301,15.0301,15.0301,15.0301,15.0301,15.0301,15.0301,15.0301,15.0301,15.0301,15.0301,15.0301,15.0301,15.0301,15.0301,15.0301,15.0301,15.0301,15.0301,15.0301,15.0301,15.0301,15.0301,15.0301,15.0301,15.0301,15.0301,15.0301,15.0301,15.0301,15.0301,15.0301,15.0301,15.0301,15.0301,15.0301,15.0301,15.0301,15.0301,15.0301,15.0301,15.0301,15.0301,15.088,15.1172,15.1529,15.1094,15.0658,15.1672,15.2836,15.3024,15.3411,15.3103,15.2953,15.3261,15.3689,15.4357,15.5071,15.5277,15.5356,15.5221,15.4936,15.5206,15.5,15.4992,15.4718,15.4321,15.3493,13.2014,13.3007,13.5997,13.8695,14.0699,14.0985,14.0985,14.0985,14.0985,14.0985,14.0985,14.0985,14.0985,14.0985,14.0985,14.0985,14.0985,14.0985,14.0985,14.0985,14.0985,14.0985,14.0985,14.0985,14.0985,14.0985,14.1134,14.234,14.5101,14.5879,14.7091,14.9731,15.0301,15.0301,15.0301,15.0301,15.0301,15.0301,15.0301,15.0301,15.0301,15.0301,15.0301,15.0301,15.0301,15.0301,15.0301,15.0301,15.0301,15.0301,15.0301,15.0301,15.0301,15.0301,15.0301,15.0301,15.0301,15.0301,15.0301,15.0301,15.0301,15.0301,15.0301,15.0301,15.0301,15.0301,15.0301,15.0301,15.0301,15.0301,15.0301,15.0301,15.0301,15.0301,15.0301,15.0301,15.0301,15.0301,15.0301,15.0301,15.0301,15.0301,15.0301,15.0301,15.0301,15.0301,15.0301,15.0301,15.0301,15.0301,15.1537,15.2479,15.3336,15.3257,15.2479,15.278,15.3351,15.3572,15.4039,15.3944,15.3929,15.4064,15.4413,15.5555,15.634,15.6483,15.6348,15.6213,15.5927,15.4564,15.4508,15.4745,15.4546,15.4197,15.411,13.1599,13.1885,13.494,13.8073,14.0771,14.0985,14.0985,14.0985,14.0985,14.0985,14.0985,14.0985,14.0985,14.0985,14.0985,14.0985,14.0985,14.0985,14.0985,14.0985,14.0985,14.0985,14.0985,14.0985,14.0985,14.0985,14.1277,14.2055,14.3896,14.5458,14.7099,14.9945,15.0301,15.0301,15.0301,15.0301,15.0301,15.0301,15.0301,15.0301,15.0301,15.0301,15.0301,15.0301,15.0301,15.0301,15.0301,15.0301,15.0301,15.0301,15.0301,15.0301,15.0301,15.0301,15.0301,15.0301,15.0301,15.0301,15.0301,15.0301,15.0301,15.0301,15.0301,15.0301,15.0301,15.0301,15.0301,15.0301,15.0301,15.0301,15.0301,15.0301,15.0301,15.0301,15.0301,15.0301,15.0301,15.0301,15.0301,15.0301,15.0301,15.0301,15.0301,15.0301,15.0301,15.0301,15.0301,15.0553,15.0703,15.1766,15.3223,15.3876,15.4826,15.5158,15.4824,15.4689,15.4436,15.4587,15.4765,15.4938,15.4992,15.5374,15.5819,15.6849,15.7189,15.6269,15.5912,15.592,15.4992,15.3771,15.3358,15.3768,15.3735,15.4441,15.4745,13.1599,13.1885,13.494,13.7852,14.0699,14.0913,14.0985,14.0985,14.0985,14.0985,14.0985,14.0985,14.0985,14.0985,14.0985,14.0985,14.0985,14.0985,14.0985,14.0985,14.0985,14.0985,14.0985,14.0985,14.0985,14.0985,14.1134,14.1413,14.2269,14.4331,14.7099,15.0087,15.023,15.0301,15.0301,15.0301,15.0301,15.0301,15.0301,15.0301,15.0301,15.0301,15.0301,15.0301,15.0301,15.0301,15.0301,15.0301,15.0301,15.0301,15.0301,15.0301,15.0301,15.0301,15.0301,15.0301,15.0301,15.0301,15.0301,15.0301,15.0301,15.0301,15.0301,15.0301,15.0301,15.0301,15.0301,15.0301,15.0301,15.0301,15.0301,15.0301,15.0301,15.0301,15.0301,15.0301,15.0301,15.0301,15.0301,15.0301,15.0301,15.0301,15.0301,15.0301,15.0301,15.0467,15.071,15.1356,15.2149,15.3768,15.4643,15.5121,15.5817,15.6236,15.6188,15.6323,15.5871,15.5541,15.5505,15.5734,15.6515,15.6983,15.7309,15.7887,15.8402,15.6982,15.4763,15.3106,15.2036,15.1751,15.2295,15.272,15.3592,15.4577,15.5094,13.1599,13.1885,13.3928,13.6068,13.8209,14.0128,14.0985,14.0985,14.0985,14.0985,14.0985,14.0985,14.0985,14.0985,14.0985,14.0985,14.0985,14.0985,14.0985,14.0985,14.0985,14.0985,14.0985,14.0985,14.0985,14.0985,14.0985,14.0985,14.1834,14.4045,14.6471,14.889,14.9937,15.0159,15.0301,15.0301,15.0301,15.0301,15.0301,15.0301,15.0301,15.0301,15.0301,15.0301,15.0301,15.0301,15.0301,15.0301,15.0301,15.0301,15.0301,15.0301,15.0301,15.0301,15.0301,15.0301,15.0301,15.0301,15.0301,15.0301,15.0301,15.0301,15.0301,15.0301,15.0301,15.0301,15.0301,15.0301,15.0301,15.0301,15.0301,15.0301,15.0301,15.0301,15.0301,15.0301,15.0301,15.0301,15.0301,15.0301,15.0301,15.0301,15.038,15.0301,15.0452,15.1304,15.2014,15.2701,15.3901,15.5497,15.6261,15.6571,15.7054,15.7442,15.8076,15.8362,15.806,15.7776,15.7389,15.742,15.8045,15.8441,15.8545,15.8933,15.9337,15.684,15.4271,15.1965,15.0373,15.0523,15.1052,15.2544,15.4119,15.5115,15.5991,13.1599,13.1742,13.3286,13.4849,13.651,13.8637,14.0135,14.0913,14.0985,14.0985,14.0985,14.0985,14.0985,14.0985,14.0985,14.0985,14.0985,14.0985,14.0985,14.0985,14.0985,14.0985,14.0985,14.0985,14.0985,14.0985,14.0985,14.0985,14.1548,14.3339,14.5701,14.7834,14.9524,15.0087,15.0301,15.0301,15.0301,15.0301,15.0301,15.0301,15.0301,15.0301,15.0301,15.0301,15.0301,15.0301,15.0301,15.0301,15.0301,15.0301,15.0301,15.0301,15.0301,15.0301,15.0301,15.0301,15.0301,15.0301,15.0301,15.0301,15.0301,15.0301,15.0301,15.0301,15.0301,15.0301,15.0301,15.0301,15.0301,15.0301,15.0301,15.0301,15.0301,15.0301,15.0301,15.0301,15.0301,15.0301,15.0301,15.0301,15.0301,15.0459,15.1349,15.1255,15.1379,15.2728,15.3724,15.4431,15.5543,15.7108,15.7973,15.8132,15.8512,15.8711,15.9274,15.9115,15.94,15.9686,15.9361,15.9147,15.9266,15.9266,15.9622,15.9686,15.9615,15.741,15.4413,15.2329,15.0737,15.0594,15.1259,15.3017,15.4766,15.6099,15.7102,13.1599,13.18,13.3279,13.4777,13.6146,13.6568,13.8352,14.0913,14.0985,14.0985,14.0985,14.0985,14.0985,14.0985,14.0985,14.0985,14.0985,14.0985,14.0985,14.0985,14.0985,14.0985,14.0985,14.0985,14.0985,14.0985,14.0985,14.0985,14.1134,14.2633,14.4995,14.7413,14.931,15.0087,15.0301,15.0301,15.0301,15.0301,15.0301,15.0301,15.0301,15.0301,15.0301,15.0301,15.0301,15.0301,15.0301,15.0301,15.0301,15.0301,15.0301,15.0301,15.0301,15.0301,15.0301,15.0301,15.0301,15.0301,15.0301,15.0301,15.0301,15.0301,15.0301,15.0301,15.0301,15.0301,15.0301,15.0301,15.0301,15.0301,15.0301,15.0301,15.0301,15.0301,15.0301,15.0301,15.0301,15.0301,15.0301,15.0301,15.0301,15.0947,15.1837,15.2175,15.2054,15.3509,15.4911,15.5403,15.5349,15.7142,15.7632,15.7933,15.8187,15.9036,15.9393,15.8949,15.902,15.8972,15.9186,15.9757,15.9757,15.9686,15.9757,15.9757,15.9757,15.883,15.6697,15.4334,15.2036,15.1901,15.2622,15.425,15.5892,15.7181,15.7038,13.1599,13.1671,13.2235,13.387,13.6068,13.6282,13.8066,14.0557,14.0985,14.0985,14.0985,14.0985,14.0985,14.0985,14.0985,14.0985,14.0985,14.0985,14.0985,14.0985,14.0985,14.0985,14.0985,14.0985,14.0985,14.0985,14.0985,14.0985,14.1063,14.1498,14.356,14.6471,14.8875,14.9731,15.023,15.0301,15.0373,15.0294,15.0437,15.0444,15.0301,15.0301,15.0301,15.0373,15.0301,15.0373,15.0301,15.0301,15.0301,15.0301,15.0301,15.0301,15.0301,15.0301,15.0301,15.0301,15.0301,15.0301,15.0301,15.0301,15.0301,15.0301,15.0301,15.0301,15.0301,15.0301,15.0301,15.0301,15.0301,15.0301,15.0301,15.0301,15.0301,15.0301,15.0301,15.0301,15.0301,15.0301,15.0301,15.0301,15.0388,15.1356,15.2224,15.2359,15.2936,15.4543,15.5952,15.5027,15.4474,15.5256,15.5833,15.5501,15.5534,15.6802,15.7586,15.8267,15.8671,15.833,15.8901,15.9686,15.9757,15.9757,15.9757,15.9757,15.9329,15.8758,15.7767,15.684,15.4707,15.3993,15.4278,15.5382,15.7047,15.6976,15.6349,13.1599,13.1599,13.1599,13.3091,13.5362,13.6004,13.7709,13.9979,14.0692,14.0985,14.0985,14.0985,14.0985,14.0985,14.0985,14.0985,14.0985,14.0985,14.0985,14.0985,14.0985,14.0985,14.0985,14.0985,14.0985,14.0985,14.0985,14.0985,14.0985,14.1134,14.2833,14.5037,14.7455,14.8953,14.9524,15.0816,15.0666,15.0437,15.0793,15.0793,15.0301,15.0301,15.0523,15.1251,15.0523,15.0666,15.1244,15.0444,15.0294,15.0301,15.0301,15.0301,15.0301,15.0301,15.0301,15.0301,15.0301,15.0301,15.0301,15.0301,15.0301,15.0301,15.0301,15.0301,15.0301,15.0301,15.0301,15.0301,15.0301,15.0301,15.0301,15.0301,15.0301,15.0301,15.0301,15.0301,15.0301,15.0301,15.0301,15.0301,15.0301,15.1112,15.2006,15.2243,15.4061,15.578,15.6608,15.5848,15.467,15.4874,15.5056,15.4423,15.4163,15.5107,15.6383,15.8275,15.898,15.8838,15.9194,15.963,15.9765,15.9757,15.9765,15.9622,15.9052,15.8473,15.8552,15.8338,15.6784,15.5792,15.5841,15.6666,15.7942,15.7863,15.6824,13.1599,13.1599,13.1599,13.2514,13.42,13.564,13.7203,13.8902,14.0257,14.0985,14.0985,14.0985,14.0985,14.0985,14.0985,14.0985,14.0985,14.0985,14.0985,14.0985,14.0985,14.0985,14.0985,14.0985,14.0985,14.0985,14.0985,14.0985,14.0985,14.0985,14.2547,14.4752,14.5965,14.6892,14.8191,15.1045,15.1822,15.0801,15.2006,15.1578,15.0943,15.0737,15.1386,15.1822,15.1315,15.1386,15.1608,15.1022,15.0294,15.0301,15.0301,15.0301,15.0301,15.0301,15.0301,15.0301,15.0301,15.0301,15.0301,15.0301,15.0301,15.0301,15.0301,15.0301,15.0301,15.0301,15.0301,15.0301,15.0301,15.0301,15.0301,15.0301,15.0301,15.0301,15.0301,15.0301,15.0301,15.0301,15.0301,15.0301,15.0301,15.0444,15.145,15.279,15.5052,15.6405,15.7178,15.6757,15.5499,15.5293,15.5395,15.4928,15.4485,15.4821,15.4791,15.7411,15.9202,15.9416,15.9424,15.9511,15.9503,15.9702,15.9694,15.9559,15.9059,15.8417,15.898,15.9551,15.8275,15.6998,15.7196,15.7617,15.8838,15.9289,15.8471,13.1599,13.1599,13.1599,13.2507,13.4064,13.5576,13.7139,13.8681,14.0193,14.0913,14.0985,14.0985,14.0985,14.0985,14.0985,14.0985,14.0985,14.0985,14.0985,14.0985,14.0985,14.0985,14.0985,14.0985,14.0985,14.0985,14.0985,14.0985,14.0985,14.0985,14.2205,14.3696,14.5037,14.6328,14.8191,15.091,15.2543,15.2194,15.2614,15.2321,15.225,15.2044,15.2543,15.2614,15.2479,15.2479,15.2329,15.1458,15.0594,15.0301,15.0301,15.0301,15.0301,15.0301,15.0301,15.0301,15.0301,15.0301,15.0301,15.0301,15.0301,15.0301,15.0301,15.0301,15.0301,15.0301,15.0301,15.0301,15.0301,15.0301,15.0301,15.0301,15.0301,15.0301,15.0301,15.0301,15.0301,15.0301,15.0301,15.0301,15.0545,15.0703,15.1837,15.3376,15.5248,15.638,15.7257,15.7344,15.6252,15.5808,15.5744,15.5262,15.5,15.4107,15.3137,15.5526,15.7696,15.806,15.8885,15.9043,15.9511,15.963,15.9694,15.9337,15.8917,15.8417,15.8417,15.8703,15.8417,15.8132,15.8409,15.8616,15.9551,15.9353,15.901,13.1599,13.1599,13.1599,13.2164,13.3149,13.4713,13.6276,13.776,13.9337,14.0342,14.0985,14.0985,14.0985,14.0985,14.0985,14.0985,14.0985,14.0985,14.0985,14.0985,14.0985,14.0985,14.0985,14.0985,14.0985,14.0985,14.0985,14.0985,14.0985,14.0985,14.1712,14.2497,14.3846,14.548,14.7192,14.9197,15.1338,15.2329,15.3781,15.4146,15.3962,15.3659,15.396,15.435,15.4271,15.3708,15.3414,15.2044,15.103,15.0452,15.0301,15.0301,15.0301,15.0301,15.0301,15.0301,15.0301,15.0301,15.0301,15.0301,15.0301,15.0301,15.0301,15.0301,15.0301,15.0301,15.0301,15.0301,15.0301,15.0301,15.0301,15.0301,15.0301,15.0301,15.0301,15.0301,15.0301,15.0301,15.0301,15.0301,15.0545,15.1018,15.2423,15.3955,15.531,15.6546,15.7432,15.7923,15.6996,15.6387,15.5796,15.5274,15.5763,15.5289,15.5341,15.5627,15.6111,15.7235,15.8281,15.8964,15.9646,15.9615,15.8909,15.8972,15.8552,15.8481,15.8346,15.806,15.8203,15.8552,15.9052,15.9408,15.9258,15.9115,15.9115,13.1599,13.1599,13.1599,13.1593,13.1813,13.3292,13.4849,13.6568,13.8052,13.9537,14.0842,14.0985,14.0985,14.0985,14.0985,14.0985,14.0985,14.0985,14.0985,14.0985,14.0985,14.0985,14.0985,14.0985,14.0985,14.0985,14.0985,14.0985,14.0985,14.0985,14.0985,14.1206,14.2925,14.4195,14.5908,14.7984,14.9989,15.3249,15.5526,15.6168,15.5555,15.5347,15.5869,15.6562,15.6062,15.5293,15.5221,15.3414,15.1972,15.0816,15.0452,15.0301,15.038,15.0624,15.0868,15.0868,15.0868,15.0868,15.0632,15.0553,15.038,15.0301,15.0301,15.0301,15.0301,15.0301,15.0301,15.0301,15.0301,15.0301,15.0301,15.0301,15.0301,15.0301,15.0301,15.0301,15.0301,15.0301,15.0301,15.0301,15.0695,15.1462,15.2675,15.4711,15.6169,15.7309,15.8187,15.8868,15.7878,15.7482,15.6636,15.6059,15.6699,15.6911,15.713,15.6971,15.6577,15.7148,15.734,15.8093,15.9242,15.837,15.7412,15.7349,15.7196,15.8124,15.8552,15.8267,15.8338,15.8901,15.9258,15.94,15.9329,15.9329,15.9353,13.1599,13.1599,13.1599,13.1599,13.1742,13.3292,13.4777,13.6354,13.7903,13.9466,14.0621,14.0985,14.0985,14.0985,14.0985,14.0985,14.0985,14.0985,14.0985,14.0985,14.0985,14.0985,14.0985,14.0985,14.0985,14.0985,14.0985,14.0985,14.0985,14.0985,14.0985,14.1063,14.2354,14.3924,14.5551,14.7192,14.9918,15.3779,15.6207,15.7063,15.6967,15.6871,15.7141,15.7196,15.7102,15.6832,15.6404,15.4334,15.2844,15.1758,15.0958,15.0301,15.0467,15.1105,15.1657,15.1882,15.21,15.2108,15.1672,15.0876,15.0388,15.0301,15.0301,15.0301,15.0301,15.0301,15.0301,15.0301,15.0301,15.0301,15.0301,15.0301,15.0301,15.0301,15.0301,15.0301,15.0301,15.0301,15.0301,15.0545,15.1176,15.1863,15.3478,15.5488,15.6945,15.8014,15.8806,15.9416,15.9353,15.9131,15.8196,15.7167,15.7436,15.7331,15.6838,15.6259,15.6799,15.6928,15.6281,15.6661,15.78,15.7499,15.6968,15.5946,15.5119,15.6276,15.8124,15.8267,15.8338,15.8481,15.8695,15.9044,15.9472,15.9615,15.9773,13.1599,13.1599,13.1599,13.1599,13.1735,13.2507,13.3785,13.5355,13.6918,13.8481,13.9829,14.0557,14.0985,14.0985,14.0985,14.0985,14.0985,14.0985,14.0985,14.0985,14.0985,14.0985,14.0985,14.0985,14.0985,14.0985,14.0985,14.0985,14.0985,14.0985,14.0985,14.1056,14.1848,14.3139,14.4417,14.6114,14.9625,15.3208,15.5627,15.7038,15.8124,15.8473,15.8465,15.8465,15.7752,15.7458,15.6681,15.4485,15.2915,15.2479,15.1172,15.0301,15.0545,15.1105,15.2194,15.2651,15.3336,15.3382,15.2705,15.1184,15.0467,15.0301,15.0301,15.0301,15.0301,15.0301,15.0301,15.0301,15.0301,15.0301,15.0301,15.0301,15.0301,15.0301,15.0301,15.0301,15.0301,15.0301,15.0388,15.1026,15.1657,15.2934,15.438,15.6175,15.7578,15.8331,15.8957,15.9361,15.9488,15.9694,15.9115,15.8307,15.8101,15.7902,15.7054,15.6633,15.7688,15.7855,15.7199,15.7088,15.7594,15.749,15.7544,15.6805,15.603,15.6348,15.7212,15.7846,15.7981,15.8053,15.806,15.8838,15.9551,15.9694,15.9829,13.1599,13.1599,13.1599,13.1599,13.1599,13.1671,13.2514,13.4057,13.5426,13.6918,13.8895,13.9979,14.0699,14.0906,14.0985,14.0985,14.0985,14.0985,14.0985,14.0985,14.0985,14.0985,14.0985,14.0985,14.0985,14.0985,14.0985,14.0985,14.0985,14.0985,14.0985,14.0985,14.1206,14.1776,14.3639,14.5194,14.8048,15.2201,15.4429,15.6641,15.9059,15.9615,15.9615,15.9266,15.833,15.7458,15.703,15.4549,15.2836,15.2551,15.1172,15.0294,15.038,15.0467,15.1635,15.2708,15.3567,15.399,15.2739,15.1198,15.0301,15.0301,15.0301,15.0301,15.0301,15.0301,15.0301,15.0301,15.0301,15.0301,15.0301,15.0301,15.0301,15.0301,15.0301,15.0301,15.0301,15.0301,15.0301,15.0861,15.328,15.4479,15.4951,15.657,15.8053,15.8568,15.894,15.9139,15.9345,15.9622,15.9353,15.9194,15.8964,15.8972,15.8409,15.8623,15.9115,15.9329,15.8885,15.8584,15.7981,15.7218,15.7526,15.763,15.7972,15.7981,15.8346,15.8203,15.7767,15.7981,15.8552,15.9123,15.9622,15.9694,15.9757,13.1599,13.1599,13.1599,13.1599,13.1599,13.1599,13.2443,13.3772,13.4278,13.597,13.8395,13.8973,13.9829,14.0614,14.0913,14.0985,14.0985,14.0985,14.0985,14.0985,14.0985,14.0985,14.0985,14.0985,14.0985,14.0985,14.0985,14.0985,14.0985,14.0985,14.0985,14.0985,14.0985,14.1705,14.3132,14.4545,14.8398,15.1766,15.4357,15.6712,15.898,15.9757,15.9757,15.9622,15.833,15.7458,15.7173,15.4477,15.2986,15.2337,15.1323,15.0301,15.0703,15.2727,15.3644,15.278,15.1739,15.2066,15.1908,15.112,15.0301,15.0301,15.0301,15.0301,15.0301,15.0301,15.0301,15.0301,15.0301,15.0301,15.0301,15.0301,15.0301,15.0301,15.0301,15.0301,15.0301,15.0467,15.0545,15.1773,15.4739,15.5701,15.5453,15.6698,15.8464,15.9067,15.8956,15.9091,15.948,15.9694,15.9757,15.9757,15.9757,15.9757,15.9757,15.9757,15.9757,15.9757,15.9448,15.9139,15.8163,15.7328,15.6726,15.6624,15.7418,15.883,15.9266,15.9345,15.8909,15.8766,15.9186,15.9472,15.9622,15.9757,15.9757,13.1599,13.1599,13.1599,13.1599,13.1599,13.1599,13.2086,13.2864,13.3629,13.4835,13.6405,13.7974,13.9116,13.9836,14.0478,14.0913,14.0985,14.0985,14.0985,14.0985,14.0985,14.0985,14.0985,14.0985,14.0985,14.0985,14.0985,14.0985,14.0985,14.0985,14.0985,14.0985,14.0985,14.1277,14.2269,14.3767,14.6621,14.9982,15.278,15.5484,15.8259,15.9472,15.9686,15.9329,15.8322,15.753,15.6888,15.4485,15.2844,15.2479,15.1165,15.0444,15.0947,15.213,15.3194,15.188,15.1668,15.1751,15.127,15.0876,15.0301,15.0301,15.0301,15.0301,15.0301,15.0301,15.0301,15.0301,15.0301,15.0301,15.0301,15.0301,15.0301,15.0301,15.0301,15.0301,15.0459,15.1105,15.0872,15.0823,15.4441,15.6525,15.6166,15.7015,15.8654,15.9098,15.8988,15.9234,15.9694,15.9757,15.9757,15.9757,15.9757,15.9757,15.9757,15.9757,15.9757,15.9686,15.9519,15.9226,15.8711,15.8671,15.787,15.6926,15.7775,15.9337,15.9765,15.9694,15.9765,15.9686,15.9615,15.9615,15.9686,15.9757,15.9757,13.1599,13.1599,13.1599,13.1599,13.1599,13.1599,13.1599,13.1813,13.2922,13.3694,13.4329,13.6605,13.774,13.8589,13.9815,14.0478,14.0471,14.0842,14.0985,14.0985,14.0985,14.0985,14.0985,14.0985,14.0985,14.0985,14.0985,14.0985,14.0985,14.0985,14.0985,14.0985,14.0985,14.0985,14.1491,14.264,14.5137,14.8484,15.1045,15.4184,15.7046,15.8623,15.9266,15.9551,15.7767,15.7189,15.6618,15.4327,15.2479,15.2622,15.1165,15.0444,15.0624,15.1521,15.1649,15.0943,15.1326,15.1356,15.071,15.0301,15.0301,15.0301,15.0301,15.0301,15.0301,15.0301,15.0301,15.0301,15.0301,15.0301,15.0301,15.0301,15.0301,15.0301,15.0301,15.0301,15.0632,15.1664,15.2574,15.1724,15.4712,15.7603,15.7274,15.7545,15.8829,15.94,15.9234,15.9496,15.9543,15.9543,15.9615,15.9622,15.9686,15.9615,15.9622,15.9559,15.9551,15.9408,15.9607,15.9385,15.9456,15.9686,15.9686,15.8909,15.9266,15.9757,15.9757,15.9765,15.9757,15.9757,15.9757,15.9757,15.9757,15.9757,15.9757,13.1599,13.1599,13.1599,13.1599,13.1599,13.1599,13.1599,13.1599,13.1878,13.278,13.3946,13.4323,13.5722,13.6737,13.829,13.8888,13.9252,14.005,14.0842,14.0913,14.0985,14.0985,14.0985,14.0985,14.0985,14.0985,14.0985,14.0985,14.0985,14.0985,14.0985,14.0985,14.0985,14.0985,14.1277,14.2568,14.4638,14.7477,14.9674,15.2678,15.6467,15.7545,15.8409,15.8703,15.7204,15.6483,15.6396,15.382,15.1544,15.2551,15.1172,15.0444,15.0301,15.0624,15.0388,15.0301,15.0144,15.0144,14.9735,15.0001,15.0095,15.0301,15.0301,15.0301,15.0301,15.0301,15.0301,15.0301,15.0301,15.0301,15.0301,15.0301,15.0301,15.0301,15.0301,15.0301,15.0789,15.2964,15.3555,15.3264,15.576,15.7495,15.7529,15.7601,15.8758,15.9702,15.9622,15.9543,15.9258,15.9186,15.9266,15.9337,15.9123,15.898,15.894,15.8877,15.9075,15.921,15.9757,15.9615,15.9686,15.9757,15.9757,15.9757,15.9757,15.9757,15.9757,15.9757,15.9757,15.9757,15.9757,15.9757,15.9757,15.9757,15.9757,13.1599,13.1599,13.1599,13.1599,13.1599,13.1599,13.1599,13.1599,13.1599,13.2008,13.2766,13.3629,13.4309,13.5098,13.6598,13.7346,13.7689,13.898,14.005,14.0771,14.0913,14.0913,14.0985,14.0985,14.0985,14.0985,14.0985,14.0985,14.0985,14.0985,14.0985,14.0985,14.0985,14.0985,14.1134,14.1634,14.3703,14.64,14.8255,15.0895,15.4477,15.5698,15.6712,15.6712,15.684,15.6618,15.7102,15.4169,15.2979,15.1924,14.9598,14.775,14.777,14.7781,14.7721,14.7755,14.7793,14.7793,14.8126,14.8466,14.8985,14.9005,14.981,15.0087,15.0301,15.0301,15.0301,15.0301,15.023,15.0301,15.0301,15.0301,15.0301,15.0301,15.0301,15.0301,15.0624,15.2318,15.3754,15.479,15.6602,15.7142,15.7292,15.7411,15.8164,15.8582,15.8574,15.8885,15.8671,15.8608,15.8758,15.8909,15.8623,15.8354,15.8242,15.8599,15.8798,15.9067,15.9615,15.9757,15.9757,15.9757,15.9757,15.9757,15.9757,15.9757,15.9757,15.9757,15.9757,15.9757,15.9757,15.9757,15.9757,15.9757,15.9757,13.1599,13.1599,13.1599,13.1599,13.1599,13.1599,13.1599,13.1599,13.1599,13.1599,13.1885,13.2871,13.3337,13.3518,13.4985,13.5783,13.5919,13.7339,13.8695,13.9921,14.0128,14.0414,14.0414,14.0336,14.0557,14.0985,14.0985,14.0985,14.0985,14.0985,14.0985,14.0985,14.0985,14.0985,14.0985,14.1199,14.2476,14.5258,14.6757,14.9332,15.2487,15.4136,15.4857,15.5428,15.6197,15.6689,15.6182,15.4342,15.2708,15.1003,14.8121,14.5952,14.5945,14.5852,14.5888,14.5941,14.5807,14.576,14.5827,14.6786,14.7432,14.7536,14.8316,14.9255,14.9255,14.9334,14.9664,14.9814,15.0065,15.023,15.0301,15.0301,15.0301,15.0301,15.0301,15.0301,15.0523,15.1837,15.3267,15.4357,15.5837,15.6526,15.549,15.6692,15.7346,15.7427,15.7771,15.8132,15.8085,15.8021,15.8243,15.8536,15.8116,15.7418,15.7798,15.879,15.8774,15.8838,15.94,15.9757,15.9757,15.9757,15.9757,15.9757,15.9757,15.9757,15.9757,15.9757,15.9757,15.9757,15.9757,15.9757,15.9757,15.9757,15.9757,13.1599,13.1599,13.1599,13.1599,13.1599,13.1599,13.1599,13.1599,13.1599,13.1599,13.1671,13.182,13.2086,13.195,13.3578,13.4193,13.4278,13.5776,13.6568,13.7203,13.8195,13.883,13.883,13.883,13.9479,14.055,14.0913,14.0842,14.0985,14.0985,14.0985,14.0985,14.0985,14.0985,14.0985,14.0985,14.2626,14.5108,14.6036,14.8255,15.1758,15.2844,15.3343,15.4207,15.477,15.4477,15.2622,14.9832,14.7399,14.842,14.6621,14.5416,14.5329,14.5449,14.54,14.5273,14.5066,14.5143,14.5522,14.5481,14.583,14.5937,14.6099,14.609,14.661,14.7534,14.8141,14.8138,14.9491,14.9735,14.9821,15.0151,15.0087,15.0223,15.0144,15.0223,15.0583,15.1759,15.2803,15.3088,15.4421,15.5158,15.5522,15.6328,15.7344,15.6173,15.6446,15.684,15.7055,15.6729,15.6832,15.7474,15.7196,15.6491,15.7704,15.8838,15.8616,15.883,15.9472,15.9757,15.9757,15.9757,15.9757,15.9757,15.9757,15.9757,15.9757,15.9757,15.9757,15.9757,15.9757,15.9757,15.9757,15.9757,15.9757,13.1599,13.1599,13.1599,13.1599,13.1599,13.1599,13.1599,13.1599,13.1599,13.1599,13.1599,13.1599,13.1599,13.1671,13.23,13.2579,13.2793,13.4213,13.492,13.5134,13.649,13.7132,13.7203,13.7275,13.8059,13.9472,13.9551,14.005,14.0771,14.0985,14.0985,14.0985,14.0985,14.0985,14.0985,14.1056,14.2483,14.4959,14.5665,14.7384,15.0951,15.1323,15.1394,15.0981,15.183,15.1544,15.0125,14.8127,14.5836,14.4131,14.3339,14.2896,14.2908,14.2851,14.2929,14.2922,14.286,14.2975,14.3025,14.3773,14.418,14.433,14.518,14.5451,14.568,14.6102,14.6612,14.6624,14.7149,14.7479,14.7651,14.8414,14.9231,14.9851,14.9412,14.9255,15.0223,15.0859,15.2039,15.3442,15.397,15.3733,15.3822,15.4288,15.4633,15.4829,15.5069,15.5412,15.5834,15.5096,15.4857,15.5634,15.5777,15.6276,15.7339,15.7973,15.7886,15.9044,15.9757,15.9757,15.9757,15.9757,15.9757,15.9757,15.9757,15.9757,15.9757,15.9757,15.9757,15.9757,15.9757,15.9757,15.9757,15.9757,15.9757,13.1599,13.1599,13.1599,13.1599,13.1599,13.1599,13.1599,13.1599,13.1599,13.1599,13.1599,13.1599,13.1599,13.1599,13.1599,13.1599,13.1878,13.2864,13.335,13.3564,13.4583,13.5005,13.5083,13.5433,13.6496,13.7767,13.7988,13.883,14.0193,14.0193,14.0485,14.0913,14.0985,14.0985,14.0985,14.0985,14.2412,14.4616,14.4973,14.6328,14.8597,14.8946,14.8375,14.7477,14.8454,14.8176,14.6921,14.6707,14.4773,14.127,14.0985,14.0985,14.1148,14.1155,14.1234,14.1234,14.1063,14.1056,14.1227,14.2046,14.2625,14.2776,14.351,14.4377,14.4377,14.4699,14.4966,14.502,14.5419,14.5677,14.5866,14.6669,14.766,14.8692,14.7918,14.7704,14.8606,14.9097,14.9873,15.1934,15.1334,15.1085,15.1262,15.1845,15.2472,15.2892,15.3185,15.3407,15.4023,15.3705,15.3121,15.3906,15.4635,15.5698,15.6625,15.7038,15.7886,15.9115,15.9551,15.9551,15.9694,15.9757,15.9757,15.9757,15.9757,15.9757,15.9757,15.9757,15.9757,15.9757,15.9757,15.9757,15.9757,15.9757,15.9757,13.1599,13.1599,13.1599,13.1599,13.1599,13.1599,13.1599,13.1599,13.1599,13.1599,13.1599,13.1599,13.1599,13.1599,13.1599,13.1599,13.1599,13.1878,13.195,13.2021,13.2164,13.2306,13.2527,13.3571,13.4855,13.6211,13.6361,13.7203,13.8688,13.8752,13.9466,14.0557,14.0699,14.0849,14.0985,14.0985,14.1784,14.3432,14.3575,14.4352,14.6029,14.6093,14.59,14.5822,14.5886,14.533,14.3996,14.3789,14.2782,14.1277,14.0985,14.0985,14.0985,14.0985,14.0985,14.0985,14.0985,14.0985,14.0985,14.1241,14.1277,14.1299,14.1519,14.1234,14.1796,14.2765,14.3416,14.3446,14.4466,14.5302,14.5281,14.5574,14.5684,14.5805,14.563,14.5616,14.5846,14.6086,14.6623,14.672,14.6343,14.6576,14.8318,14.9543,15.0718,15.1713,15.2033,15.2033,15.2277,15.1882,15.1608,15.2107,15.2844,15.3985,15.5627,15.6182,15.726,15.8417,15.9067,15.9345,15.9694,15.9694,15.9757,15.9757,15.9757,15.9757,15.9757,15.9757,15.9757,15.9757,15.9757,15.9757,15.9757,15.9757,15.9757,13.1599,13.1599,13.1599,13.1599,13.1599,13.1599,13.1599,13.1599,13.1599,13.1599,13.1599,13.1599,13.1599,13.1599,13.1599,13.1599,13.1599,13.1599,13.1599,13.1599,13.1599,13.1599,13.1671,13.2228,13.3286,13.4492,13.4777,13.5633,13.706,13.7203,13.7917,13.9258,13.9466,13.9907,14.0842,14.0985,14.1698,14.3004,14.3218,14.3988,14.5251,14.5593,14.5108,14.4267,14.4131,14.3353,14.1912,14.1776,14.1491,14.1056,14.0985,14.0985,14.0985,14.0906,14.0985,14.0985,14.0913,14.0906,14.0985,14.0842,14.0985,14.0985,14.0985,14.0985,14.107,14.1312,14.1803,14.1803,14.2376,14.2675,14.2866,14.3474,14.3582,14.2847,14.2825,14.3074,14.411,14.4959,14.5452,14.5424,14.5465,14.5834,14.6261,14.7148,14.7563,14.8035,14.8292,14.8412,14.9322,14.9153,14.9945,15.0594,15.0966,15.2194,15.412,15.5484,15.6554,15.7069,15.7632,15.7807,15.8457,15.86,15.9091,15.9091,15.94,15.9329,15.9757,15.9757,15.9757,15.9757,15.9757,15.9757,15.9757,15.9757,15.9757,13.1599,13.1599,13.1599,13.1599,13.1599,13.1599,13.1599,13.1599,13.1599,13.1599,13.1599,13.1599,13.1599,13.1599,13.1599,13.1599,13.1599,13.1599,13.1599,13.1599,13.1599,13.1599,13.1599,13.1599,13.2164,13.3078,13.3214,13.3992,13.5283,13.5569,13.6347,13.756,13.7832,13.8481,13.9351,13.9986,14.0621,14.1776,14.2283,14.2997,14.3967,14.4117,14.3617,14.264,14.2576,14.1491,13.9629,13.9486,13.9493,13.9415,13.9523,13.9467,13.9469,13.9455,13.9462,13.9462,13.9455,13.9462,13.954,13.9815,14.0177,14.0287,14.0671,14.0913,14.0985,14.0992,14.0992,14.0992,14.0985,14.0985,14.1063,14.1919,14.2048,14.1049,14.0985,14.154,14.2453,14.3372,14.4063,14.4178,14.4138,14.4395,14.4687,14.4844,14.528,14.5766,14.5929,14.6177,14.703,14.7269,14.7741,14.8518,14.8875,14.946,15.1323,15.2892,15.305,15.2851,15.3837,15.4402,15.5811,15.6627,15.7546,15.8125,15.86,15.9044,15.9543,15.9757,15.9757,15.9757,15.9615,15.9615,15.9757,15.9757,15.9757,13.1599,13.1599,13.1599,13.1599,13.1599,13.1599,13.1599,13.1599,13.1599,13.1599,13.1599,13.1599,13.1599,13.1599,13.1599,13.1599,13.1599,13.1599,13.1599,13.1599,13.1599,13.1599,13.1599,13.1599,13.1735,13.1807,13.1671,13.2507,13.3921,13.3986,13.4706,13.6004,13.6276,13.6496,13.6425,13.7988,13.8616,13.9044,14.0128,14.0835,14.0992,14.0985,14.0913,14.0771,14.0771,13.9422,13.6711,13.6568,13.6711,13.6632,13.6615,13.6359,13.6675,13.6655,13.6507,13.6726,13.6493,13.6479,13.6627,13.7873,13.8611,13.8735,13.9938,14.0429,14.0344,14.0429,14.0508,14.0586,14.0743,14.0906,14.0906,14.0835,14.0678,14.0906,14.0835,14.0913,14.1155,14.1155,14.1148,14.1547,14.1683,14.177,14.2783,14.3253,14.366,14.4652,14.5009,14.5199,14.5521,14.5636,14.5601,14.5886,14.6457,14.7455,14.8953,15.0166,14.9325,14.9047,15.0455,15.1795,15.332,15.4048,15.4887,15.5486,15.596,15.6174,15.6602,15.7403,15.7831,15.8695,15.9408,15.9408,15.9496,15.9511,15.9638,13.1599,13.1599,13.1599,13.1599,13.1599,13.1599,13.1599,13.1599,13.1599,13.1599,13.1599,13.1599,13.1599,13.1599,13.1599,13.1599,13.1599,13.1599,13.1599,13.1599,13.1599,13.1599,13.1599,13.1599,13.1599,13.1599,13.1599,13.1813,13.2306,13.2371,13.3221,13.4563,13.4706,13.5134,13.614,13.6711,13.7067,13.706,13.7502,13.7774,13.7781,13.7781,13.7774,13.7788,13.7781,13.721,13.6354,13.6282,13.6282,13.6296,13.6265,13.6247,13.627,13.6276,13.6276,13.625,13.6255,13.6279,13.6328,13.6715,13.7056,13.7045,13.7522,13.7757,13.7757,13.7757,13.8325,13.9057,13.937,13.986,14.0215,13.8989,13.8214,13.9248,14.0024,14.0913,14.1967,14.2685,14.3013,14.2822,14.23,14.1924,14.1791,14.1734,14.2075,14.2338,14.2468,14.294,14.3752,14.4024,14.4274,14.5394,14.5387,14.5965,14.6678,14.6471,14.5565,14.7001,14.8464,14.9665,15.0807,15.1144,15.1678,15.2271,15.2663,15.2877,15.3384,15.4248,15.5262,15.634,15.7268,15.8068,15.8242,15.8829,15.9107,13.1599,13.1599,13.1599,13.1599,13.1599,13.1599,13.1599,13.1599,13.1599,13.1599,13.1599,13.1599,13.1599,13.1599,13.1599,13.1599,13.1599,13.1599,13.1599,13.1599,13.1599,13.1599,13.1599,13.1599,13.1599,13.1599,13.1599,13.1599,13.1599,13.1599,13.2092,13.2929,13.3143,13.3571,13.4512,13.5147,13.5426,13.5504,13.601,13.6282,13.6354,13.6282,13.5647,13.4733,13.4583,13.459,13.459,13.459,13.4583,13.4583,13.4579,13.4633,13.4563,13.4589,13.4589,13.4563,13.458,13.4547,13.4628,13.507,13.5459,13.5458,13.5878,13.6388,13.6282,13.6282,13.6687,13.7519,13.7758,13.8122,13.8607,13.7543,13.669,13.7624,13.8419,13.9159,14.0247,14.0994,14.1637,14.191,14.2051,14.1842,14.162,14.1573,14.1404,14.1027,14.0985,14.1428,14.2205,14.2405,14.2704,14.3625,14.3903,14.3903,14.3974,14.3025,14.2918,14.4731,14.5831,14.6531,14.7052,14.7328,14.8663,14.9329,15.0729,15.1015,15.0452,15.1458,15.3621,15.4628,15.5713,15.6228,15.5925,15.7426,15.8132,13.1443,13.1314,13.1385,13.1171,13.1314,13.1236,13.1307,13.1307,13.1379,13.1521,13.1599,13.1599,13.145,13.1158,13.1307,13.1457,13.145,13.1528,13.1599,13.1599,13.1599,13.1599,13.1599,13.1599,13.1599,13.1599,13.1599,13.1599,13.1599,13.1599,13.1599,13.1658,13.1735,13.1671,13.2027,13.3221,13.3843,13.3992,13.5083,13.5939,13.5939,13.5932,13.4505,13.217,13.1671,13.1813,13.1742,13.1671,13.1671,13.1671,13.182,13.1749,13.1684,13.1684,13.1768,13.1762,13.1749,13.1671,13.1924,13.3054,13.3834,13.3977,13.4966,13.5917,13.5591,13.5591,13.576,13.6158,13.6123,13.614,13.6365,13.6186,13.619,13.647,13.6513,13.6811,13.6838,13.794,13.7197,13.8536,13.9972,14.1061,14.2331,14.2613,14.2057,14.1332,14.1152,14.1369,14.169,14.1419,14.1485,14.1564,14.1491,14.1131,14.1237,14.1987,14.1795,14.2523,14.353,14.2382,14.2744,14.3546,14.5107,14.6634,14.7512,14.7955,14.7955,14.8983,15.0827,15.24,15.3347,15.4464,15.4141,15.5761,15.6683,12.8209,12.8188,12.822,12.8226,12.8207,12.8207,12.8855,12.9802,12.9938,13.0581,13.1528,13.1599,13.0347,12.8565,12.94,12.9861,13.0081,13.1093,13.1599,13.1599,13.1599,13.1599,13.1599,13.1599,13.1599,13.1599,13.1599,13.1599,13.1599,13.1599,13.1599,13.1599,13.1599,13.1599,13.1586,13.1956,13.2228,13.23,13.2592,13.2884,13.2949,13.2884,13.2449,13.1749,13.1599,13.1599,13.1599,13.1599,13.1599,13.1599,13.1599,13.1599,13.1599,13.1599,13.1599,13.1599,13.1599,13.1599,13.1599,13.2002,13.2242,13.232,13.2573,13.2892,13.2892,13.2892,13.3379,13.4335,13.4216,13.4406,13.4994,13.5115,13.5648,13.6736,13.7636,13.8622,13.9464,14.0592,14.0803,14.1348,14.0776,14.112,14.151,14.1878,14.1979,14.1723,14.2512,14.3493,14.351,14.325,14.2984,14.2353,14.2163,14.2446,14.3276,14.2983,14.3477,14.3444,14.3214,14.299,14.2788,14.2942,14.376,14.4314,14.3387,14.3653,14.5312,14.5271,14.6123,14.809,15.0575,15.2707,15.2446,15.428,15.5223,12.7922,12.7483,12.7489,12.727,12.6942,12.6988,12.7487,12.8291,12.8285,12.8816,12.9646,12.9672,12.8687,12.7054,12.7902,12.8356,12.8362,12.929,12.9718,12.9724,13.038,13.0671,13.0736,13.1236,13.1599,13.1599,13.1599,13.1599,13.1599,13.1599,13.1599,13.1599,13.1599,13.1599,13.1599,13.1599,13.1599,13.1599,13.1599,13.1599,13.1599,13.1599,13.1599,13.1599,13.1599,13.1599,13.1599,13.1599,13.1599,13.1599,13.1599,13.1599,13.1599,13.1599,13.1599,13.1599,13.1599,13.1353,13.0704,13.0626,13.0632,13.0632,13.0632,13.095,13.1515,13.1599,13.2008,13.3028,13.2882,13.3286,13.4518,13.4758,13.505,13.5903,13.6681,13.7376,13.8427,13.9067,13.9775,14.0172,14.0197,14.0262,14.0764,14.1243,14.1366,14.1104,14.1526,14.2042,14.2317,14.303,14.2988,14.2547,14.2222,14.2239,14.2112,14.2394,14.2648,14.3104,14.3368,14.3766,14.3251,14.3395,14.3173,14.2703,14.3596,14.4344,14.4071,14.4328,14.4814,14.6014,14.8795,15.0852,15.122,15.2536,15.3038,12.8624,12.7928,12.7566,12.7253,12.6383,12.6423,12.6488,12.6709,12.6709,12.6557,12.5918,12.6033,12.5989,12.6281,12.6352,12.6566,12.6709,12.6916,12.7059,12.7279,12.8427,12.9076,12.916,13.0457,13.1184,13.1093,13.1249,13.1249,13.1236,13.1457,13.1599,13.1599,13.1599,13.1599,13.1599,13.1599,13.1599,13.1599,13.1599,13.1599,13.1599,13.1599,13.1599,13.1599,13.1599,13.1599,13.1599,13.1599,13.1599,13.1599,13.1599,13.1599,13.1599,13.1599,13.1599,13.1599,13.1599,13.095,12.9498,12.9161,12.9077,12.9038,12.9083,12.966,13.1035,13.1035,13.1263,13.1611,13.1934,13.2799,13.4312,13.4744,13.4927,13.5067,13.5304,13.5035,13.5445,13.4943,13.5361,13.6344,13.8043,13.9005,13.982,14.0337,14.0409,13.9893,14.0429,14.0766,14.0713,14.1641,14.2247,14.1782,14.1614,14.0987,14.0488,13.9774,14.0929,14.1969,14.2049,14.2552,14.325,14.3646,14.3897,14.2614,14.4245,14.4491,14.4598,14.5184,14.5832,14.6231,14.7437,14.8925,14.923,15.0308,15.0465,12.4873,12.4578,12.3832,12.3337,12.3141,12.32,12.3926,12.5086,12.5111,12.3023,11.9824,11.9586,12.0222,12.1447,12.2636,12.3855,12.5151,12.6352,12.6916,12.6988,12.7273,12.7487,12.7506,12.7809,12.7939,12.8155,12.9283,12.9782,12.9951,13.1022,13.1599,13.1599,13.1599,13.1599,13.1599,13.1599,13.1599,13.1599,13.1599,13.1599,13.1599,13.1599,13.1599,13.1599,13.1528,13.1599,13.1599,13.1599,13.1599,13.1599,13.1599,13.1599,13.1599,13.1599,13.1599,13.1599,13.1599,13.095,12.9368,12.8138,12.744,12.7434,12.7438,12.7885,12.8751,12.7983,12.7549,12.863,13.0374,13.1954,13.3235,13.4415,13.5338,13.5401,13.6375,13.6813,13.7089,13.7111,13.7252,13.7428,13.7734,13.8114,13.8282,13.8469,13.8987,13.9974,14.1263,14.2019,14.2089,14.2328,14.2021,14.1375,14.1718,14.1999,14.2177,14.1898,14.2027,14.2504,14.2526,14.2374,14.2097,14.2029,14.1671,14.1172,14.115,14.1811,14.3048,14.3311,14.4262,14.6684,14.708,14.7503,14.8115,14.897,14.8774,12.3084,12.2692,12.2128,12.1598,12.1195,12.1185,12.1492,12.1943,12.2418,12.1061,11.8764,11.863,11.8928,11.9401,12.0151,12.0876,12.1376,12.2214,12.2933,12.3641,12.4426,12.5068,12.5871,12.6629,12.6979,12.6994,12.7823,12.8186,12.8285,12.9796,13.0516,13.0587,13.1236,13.1599,13.1599,13.1599,13.1599,13.1599,13.0873,13.0522,13.0516,12.9867,12.9082,12.8453,12.8381,12.8025,12.7286,12.7227,12.7221,12.7227,12.6573,12.7167,12.9278,12.8811,12.9038,13.0399,13.0548,12.9498,12.7303,12.5651,12.4403,12.3669,12.3663,12.3814,12.4132,12.3342,12.3928,12.6428,12.7837,12.9554,13.1647,13.2606,13.3529,13.4253,13.5087,13.5581,13.5652,13.6192,13.6755,13.6788,13.7383,13.7815,13.7812,13.7812,13.8274,13.8967,13.9844,14.0484,14.0473,14.0555,14.0198,13.9494,13.9922,14.0501,14.048,14.0572,14.0949,14.1626,14.1721,14.1768,14.2042,14.1963,14.1718,14.1121,14.1,14.0976,14.0207,14.1443,14.3828,14.6687,14.69,14.5852,14.5863,14.6623,14.644,12.2392,12.1661,12.1548,12.0992,12.01,12.01,11.9708,11.9011,11.9002,11.8821,11.8608,11.8719,11.8397,11.7741,11.7888,11.7651,11.7259,11.7242,11.8019,11.9455,12.0787,12.2214,12.3588,12.4931,12.5567,12.5638,12.6048,12.6274,12.6495,12.8071,12.8933,12.9147,13.0516,13.1242,13.1314,13.145,13.1385,13.0944,12.9653,12.9141,12.9582,12.8285,12.6715,12.5021,12.5015,12.4087,12.2196,12.1916,12.1774,12.1714,12.0256,12.1194,12.4942,12.3954,12.4331,12.6663,12.6954,12.5791,12.3036,12.1644,12.0193,11.8926,11.8866,11.8621,11.8056,11.8475,12.034,12.3844,12.4612,12.6094,12.8642,12.9424,13.0331,13.1574,13.211,13.238,13.2669,13.3846,13.4808,13.5087,13.633,13.7041,13.7272,13.735,13.7428,13.7809,13.8261,13.7962,13.8111,13.7812,13.7812,13.7812,13.7812,13.7812,13.8186,13.7887,13.8641,13.977,14.0021,14.0371,14.138,14.1601,14.1509,14.1937,14.153,14.0785,13.8679,14.0429,14.3201,14.5806,14.5756,14.4546,14.3501,14.355,14.3592,12.1855,12.1605,12.0746,12.0319,12.01,12.01,12.0002,11.9541,11.5287,0.0,0.0,11.1925,11.2539,11.2859,11.3611,11.4947,11.6601,11.6585,11.7062,11.7874,11.8076,11.8361,11.8647,11.8926,11.9069,11.9223,12.1708,12.2909,12.3058,12.5918,12.7344,12.7487,12.8933,12.966,12.9796,13.095,13.0302,12.7863,12.7487,12.857,13.1093,13.0879,12.9439,12.6566,12.656,12.5127,12.2196,12.087,12.0163,12.0097,11.8628,11.7628,11.7161,11.6931,11.6451,11.5721,11.5709,11.5432,11.4858,11.4524,11.4241,11.3954,11.4575,11.4175,11.2238,11.5257,11.7612,11.8279,12.0316,12.1825,12.2363,12.4789,12.6512,12.6818,12.8116,12.9471,13.0626,13.1147,13.1868,13.3179,13.3641,13.4342,13.5659,13.5887,13.6345,13.7431,13.7669,13.7812,13.7812,13.7734,13.7659,13.7662,13.7737,13.7812,13.7812,13.7812,13.7962,13.8342,13.8345,13.8349,13.8644,13.8709,13.8709,13.9005,13.8706,13.856,13.8114,13.946,14.1405,14.3342,14.3488,14.3185,14.274,14.0956,13.9318,11.7476,11.7369,11.6919,11.6675,0.0,11.6675,11.6675,11.6481,11.3834,11.212,11.1385,11.1816,11.1913,11.1776,11.1759,11.2359,11.3461,11.2985,11.3431,11.4459,11.4454,11.5106,11.6209,11.6209,11.6643,11.7434,11.9003,11.9705,11.9848,12.2149,12.2862,12.2136,12.3647,12.4438,12.4515,12.5241,12.4807,12.3296,12.6501,12.8868,13.0308,12.9653,12.8083,12.5859,12.5722,0.0,0.0,0.0,0.0,0.0,0.0,0.0,0.0,0.0,0.0,11.3958,11.2434,11.0507,10.8267,10.8022,10.771,10.6927,10.7495,10.6766,10.4004,10.7609,11.1436,11.4669,11.5393,11.6701,11.9092,12.011,12.0875,12.1759,12.3353,12.4666,12.5488,12.6942,12.8633,13.0219,13.1241,13.2328,13.3989,13.4239,13.4827,13.6336,13.6655,13.6944,13.7594,13.7194,13.6667,13.6687,13.7217,13.7812,13.7812,13.7812,13.7812,13.7812,13.7812,13.7812,13.7812,13.7812,13.7812,13.7812,13.7812,13.7812,13.7887,13.8492,13.9314,14.0055,14.0276,14.0276,14.0201,13.9008,13.7812,11.3294,11.3275,11.3275,11.3275,11.3205,11.2012,11.1485,11.1408,11.1491,11.1411,11.1488,11.179,11.1366,11.054,11.0297,11.0192,11.0316,10.9456,10.9792,11.1112,11.1009,11.2008,11.3872,11.3803,11.4462,11.5792,11.6039,11.6084,11.6078,11.7951,11.823,11.7077,11.9158,11.9877,11.9312,0.0,0.0,0.0,12.5586,12.9154,12.9653,12.8499,12.6929,12.5086,12.5021,0.0,12.2202,12.1768,12.1488,12.1138,11.9443,0.0,0.0,0.0,0.0,0.0,0.0,0.0,0.0,0.0,0.0,0.0,9.8997,9.9084,9.7491,10.1015,10.5611,11.0791,11.0748,11.1857,11.5525,11.4864,11.4975,11.6592,11.7983,11.9075,11.9775,12.2029,12.4559,12.6461,12.7772,12.9309,13.1098,13.1837,13.2647,13.4134,13.4814,13.5377,13.6235,13.5464,13.5019,13.5039,13.5868,13.6762,13.6892,13.6749,13.6609,13.6918,13.6918,13.684,13.6687,13.6752,13.6813,13.6765,13.6843,13.684,13.684,13.7142,13.7513,13.7744,13.7887,13.7669,13.6993,13.6921,13.6999,11.3307,11.3277,11.3275,11.3275,11.2834,10.7154,10.4679,10.4681,10.4684,10.4684,10.4753,10.6262,10.638,10.565,10.7693,10.8929,10.9558,10.8718,10.8841,10.9502,10.8805,10.901,10.9939,10.9258,10.9443,11.0295,11.0946,11.1287,11.1358,11.4212,11.5556,11.5567,11.9711,12.043,11.7719,11.5025,11.496,11.7725,12.3985,12.857,13.1242,13.11,12.9575,12.6851,12.6631,12.5204,12.2202,12.0787,11.9378,11.8005,11.5228,11.1229,10.6049,10.2679,9.8972,0.0,9.2924,0.0,0.0,0.0,0.0,0.0,0.0,0.0,0.0,10.1086,10.3806,10.4624,10.7081,10.8304,10.7599,10.8551,10.9862,11.156,11.195,11.3219,11.5935,11.6671,11.8117,12.1287,12.1817,12.3163,12.6083,12.7826,12.93,13.0832,13.1908,13.2035,13.162,13.2263,13.3049,13.3247,13.3465,13.3979,13.3914,13.3777,13.3745,13.369,13.3846,13.3615,13.3771,13.3709,13.3676,13.367,13.3842,13.369,13.3547,13.4818,13.6164,13.7516,13.7438,13.6469,13.4372,13.3715,13.4112,10.8722,10.7824,10.7824,10.678,10.4993,10.2887,10.1982,10.2064,10.3036,10.341,10.341,10.3181,10.2894,10.2639,10.4224,10.5335,10.6011,10.5284,10.5568,10.6596,10.6235,10.703,10.8656,10.7816,10.8071,10.9227,10.9593,10.9522,10.9228,11.0956,11.1155,10.9953,11.2873,11.3888,11.3031,11.1961,11.394,11.8857,12.2429,12.6631,13.1385,13.1599,13.095,12.9582,12.9504,12.8875,12.7357,12.5009,12.3011,12.1441,11.7525,11.2085,10.5081,10.0139,9.5332,0.0,0.0,0.0,0.0,0.0,0.0,0.0,0.0,0.0,0.0,0.0,9.6258,9.5344,10.1524,10.5331,10.4616,10.5115,10.5496,10.5291,10.6108,10.766,11.0001,11.1855,11.3537,11.5049,11.6045,11.7863,12.1021,12.2175,12.3873,12.7236,12.5202,12.3449,12.3811,12.6687,12.8873,12.8995,13.1204,13.2924,13.2972,13.291,13.2932,13.2942,13.2921,13.2937,13.2952,13.2906,13.2965,13.2932,13.2945,13.2422,13.078,13.2279,13.4896,13.6544,13.4977,13.2509,13.1684,13.1553,13.2083,10.4357,10.2665,10.0272,9.8333,9.6842,9.7653,9.8473,9.9218,10.0494,10.0646,9.9826,9.9368,9.847,9.7477,9.8967,10.0593,10.2191,10.144,10.21,10.3956,10.3801,10.4841,10.6769,10.5925,10.624,10.7475,10.7354,10.6998,10.6684,10.723,10.7009,10.6111,10.701,10.747,10.7423,11.0277,11.434,11.9439,12.2305,12.6358,13.1385,13.1599,13.1599,13.1599,13.1599,13.1457,13.1022,12.8071,12.5145,12.2369,11.7383,11.0897,10.2822,9.6467,0.0,0.0,0.0,0.0,0.0,0.0,0.0,0.0,0.0,7.8766,7.6053,0.0,8.8169,0.0,9.5945,10.1398,10.2125,10.1511,0.0,0.0,10.0759,10.1833,10.3956,10.6672,10.8639,10.8969,11.0497,11.2652,11.5457,11.6182,11.7859,12.1384,11.7996,11.5551,11.6938,12.0971,12.385,12.4068,12.6824,12.9395,12.915,12.973,12.9948,13.0549,13.054,13.0568,13.0562,13.0608,13.0596,13.0621,13.0621,12.973,12.7343,12.9213,13.1898,13.34,13.0116,12.6683,12.7879,12.8399,12.9144,10.2657,10.0267,9.1304,8.9135,9.1521,9.0188,9.1304,9.4066,9.4218,9.2577,9.0045,9.2797,9.16,8.7488,9.065,0.0,9.8914,9.801,9.9263,10.2368,10.1557,10.1712,10.2714,10.1849,10.1849,10.2787,10.196,10.1903,10.2604,10.2653,10.4028,10.6758,10.6243,10.4134,10.1274,11.0628,11.6414,11.7695,12.4885,12.9595,13.1521,13.1599,13.1599,13.1599,13.1599,13.0944,12.9433,12.6455,12.2018,11.6067,10.9992,10.2426,9.32,0.0,0.0,0.0,0.0,0.0,0.0,0.0,0.0,0.0,0.0,0.0,0.0,0.0,0.0,8.5907,9.1169,0.0,9.8639,9.6117,0.0,0.0,0.0,9.5572,9.877,10.0631,10.228,10.3791,0.0,0.0,10.8828,11.0415,11.1574,11.1968,11.285,11.3597,11.3733,11.6513,11.8758,11.8753,11.9189,11.9508,12.0407,12.1364,12.2701,12.3817,12.3823,12.3916,12.3972,12.3984,12.3885,12.4032,12.382,12.367,12.3521,12.4645,12.577,12.4568,12.2641,12.1307,12.1681,12.2713,12.4125,9.4417,8.7191,8.3238,8.1291,8.0681,8.0016,8.271,8.7637,8.7635,8.7415,8.7199,8.749,8.5402,8.1665,8.2035,0.0,0.0,0.0,9.1929,9.6925,9.6604,9.8784,10.2708,10.2093,10.1905,10.2279,10.2321,10.2584,10.292,10.3901,10.2275,9.8218,0.0,0.0,10.0005,10.7064,11.2807,11.715,12.4309,12.933,13.178,13.1684,13.1599,13.1599,13.073,12.9439,12.785,12.1156,11.452,10.8225,9.9282,9.0522,0.0,0.0,0.0,0.0,0.0,0.0,0.0,0.0,0.0,0.0,0.0,6.5324,6.4993,0.0,0.0,0.0,7.9914,8.2979,8.6291,8.9925,0.0,0.0,0.0,0.0,0.0,0.0,0.0,9.3193,9.8772,10.3506,10.5076,10.5009,10.5184,10.6173,10.6009,10.6217,10.7244,0.0,11.2626,11.3598,11.5381,11.7041,11.8019,11.8706,11.9017,11.8669,11.859,11.8546,11.8606,11.9482,12.0053,12.0142,12.0093,11.9492,11.7542,11.7694,11.7913,11.7318,11.665,11.6581,11.7481,11.8143,11.9115,8.4624,0.0,0.0,0.0,0.0,7.2679,7.5675,8.0908,8.0913,8.1055,8.1207,8.0986,0.0,0.0,0.0,0.0,0.0,0.0,8.5095,8.9949,9.1965,9.5036,9.9136,9.8646,9.8356,9.8339,9.8448,9.837,9.8231,9.9354,9.6523,9.0026,0.0,0.0,0.0,0.0,10.9129,11.4169,12.2472,12.8269,13.1224,13.1176,13.1242,13.1599,13.0509,12.8576,12.5561,11.6452,10.8109,10.0882,8.9733,0.0,0.0,0.0,0.0,0.0,0.0,0.0,0.0,0.0,0.0,0.0,0.0,0.0,0.0,0.0,0.0,0.0,0.0,0.0,7.5667,8.1688,8.4993,0.0,0.0,0.0,0.0,0.0,0.0,0.0,0.0,0.0,9.9214,9.9324,10.0259,0.0,0.0,10.2089,10.3242,10.5847,10.7685,10.7909,11.0352,0.0,11.3094,11.4093,11.4395,11.3668,11.3978,11.4315,11.4282,11.4847,11.5333,11.5293,11.5689,11.4269,10.9549,10.8649,10.9328,10.9921,11.0292,11.0893,11.1934,11.2984,11.3884,0.0,0.0,0.0,0.0,0.0,0.0,0.0,0.0,7.4108,7.2454,0.0,7.2828,0.0,0.0,0.0,0.0,7.4183,7.718,0.0,0.0,8.808,9.0404,8.9218,8.9122,8.9041,8.8968,8.7569,8.6362,8.5473,8.5599,0.0,0.0,0.0,0.0,0.0,0.0,10.6531,10.7665,11.9462,12.6938,12.9662,12.9767,13.0356,13.1534,13.1521,12.8511,12.2273,11.289,10.3756,9.4461,8.2281,0.0,0.0,0.0,0.0,0.0,0.0,0.0,0.0,0.0,0.0,0.0,0.0,0.0,0.0,0.0,0.0,0.0,0.0,0.0,0.0,7.0875,0.0,0.0,0.0,0.0,0.0,0.0,0.0,0.0,0.0,9.4352,8.9859,9.3251,9.736,10.0536,0.0,0.0,0.0,0.0,10.4911,10.1835,10.2735,10.336,10.1915,10.4352,10.694,10.8283,0.0,0.0,11.0914,10.9619,10.8604,10.8639,10.9862,10.7773,9.7819,9.7893,9.9917,10.1859,10.2974,10.3714,10.4013,10.6184,10.8211,0.0,0.0,0.0,0.0,0.0,0.0,0.0,0.0,0.0,6.4188,0.0,6.5387,0.0,0.0,0.0,0.0,0.0,0.0,0.0,0.0,7.7159,7.9636,8.212,8.2198,8.2193,0.0,8.2236,7.8386,0.0,0.0,0.0,0.0,0.0,0.0,0.0,0.0,10.3152,10.6769,11.9038,12.6978,12.9766,13.0557,13.1119,13.1534,13.1599,12.6163,11.4783,10.0474,8.9346,0.0,0.0,0.0,0.0,0.0,0.0,0.0,0.0,0.0,0.0,0.0,0.0,0.0,0.0,0.0,0.0,0.0,0.0,0.0,0.0,0.0,0.0,0.0,7.0622,0.0,0.0,0.0,0.0,0.0,0.0,0.0,0.0,0.0,8.4268,8.9101,9.4092,9.7288,9.8207,9.934,10.1484,0.0,0.0,0.0,0.0,0.0,0.0,0.0,10.5364,10.3709,10.3936,10.4377,10.4347,10.3857,10.3108,10.2072,0.0,0.0,9.0498,9.2282,9.5269,9.5428,9.5416,9.6082,9.82,9.8639,9.9295,0.0,0.0,0.0,0.0,0.0,0.0,0.0,0.0,0.0,5.6452,5.7561,0.0,0.0,0.0,0.0,0.0,0.0,0.0,0.0,0.0,0.0,0.0,7.4566,7.5161,0.0,0.0,0.0,0.0,0.0,0.0,0.0,0.0,0.0,0.0,0.0,0.0,9.8604,10.3998,11.6361,12.476,12.8429,12.9727,13.0544,13.095,13.0359,12.4673,11.3022,0.0,0.0,0.0,0.0,0.0,0.0,0.0,0.0,0.0,0.0,0.0,0.0,0.0,0.0,0.0,0.0,0.0,0.0,0.0,0.0,0.0,0.0,0.0,0.0,0.0,6.5027,0.0,0.0,0.0,0.0,0.0,0.0,0.0,0.0,0.0,0.0,0.0,8.8538,9.2348,9.4761,9.6886,9.8919,9.972,10.0648,0.0,0.0,0.0,0.0,0.0,0.0,0.0,0.0,0.0,0.0,0.0,0.0,0.0,0.0,9.0047,8.4214,8.615,8.847,8.7733,0.0,0.0,0.0,0.0,0.0,0.0,0.0,0.0,0.0,0.0,0.0,0.0,0.0,0.0,0.0,4.9217,0.0,0.0,4.6718,0.0,0.0,0.0,0.0,0.0,0.0,0.0,0.0,0.0,0.0,0.0,0.0,0.0,0.0,0.0,0.0,0.0,0.0,0.0,0.0,0.0,0.0,9.2904,9.8626,11.1374,12.0315,12.5299,12.7107,12.8518,12.9577,12.7816,12.37,11.6844,0.0,0.0,0.0,0.0,0.0,0.0,0.0,0.0,0.0,0.0,0.0,0.0,0.0,0.0,0.0,0.0,0.0,0.0,0.0,0.0,0.0,0.0,0.0,0.0,0.0,0.0,5.1107,5.8379,6.5535,0.0,0.0,0.0,0.0,0.0,0.0,0.0,0.0,0.0,8.5823,9.2038,9.6034,9.6014,9.7484,9.8041,9.654,9.6314,9.6311,9.6388,9.7667,9.8566,0.0,0.0,0.0,0.0,0.0,0.0,0.0,0.0,0.0,0.0,0.0,0.0,0.0,0.0,0.0,0.0,0.0,0.0,0.0,0.0,0.0,0.0,0.0,0.0,0.0,0.0,0.0,0.0,0.0,0.0,0.0,0.0,0.0,0.0,0.0,0.0,0.0,0.0,0.0,0.0,0.0,0.0,0.0,0.0,0.0,0.0,0.0,0.0,0.0,0.0,0.0,0.0,0.0,0.0,9.0201,9.4121,11.0433,12.0096,12.2504,12.5895,12.8236,12.9363,12.2687,11.5001,0.0,0.0,0.0,0.0,0.0,0.0,0.0,0.0,0.0,0.0,0.0,0.0,0.0,0.0,0.0,0.0,0.0,0.0,0.0,0.0,0.0,0.0,0.0,0.0,0.0,0.0,0.0,0.0,6.3659,6.6969,6.5574,0.0,0.0,0.0,0.0,0.0,0.0,0.0,0.0,0.0,0.0,8.7956,9.3768,9.5969,9.719,9.7739,9.8895,9.9252,9.7963,9.9158,9.8996,9.5561,0.0,0.0,0.0,0.0,0.0,0.0,0.0,0.0,0.0,0.0,0.0,0.0,0.0,0.0,0.0,0.0,0.0,0.0,0.0,0.0,0.0,0.0,0.0,0.0,0.0,0.0,0.0,0.0,0.0,0.0,0.0,0.0,0.0,0.0,0.0,0.0,0.0,0.0,0.0,0.0,0.0,0.0,0.0,0.0,0.0,0.0,0.0,0.0,0.0,0.0,0.0,0.0,0.0,8.7561,9.1309,10.8766,11.8468,11.9921,12.4443,12.729,12.8056,11.8221,10.9179,0.0,0.0,0.0,0.0,0.0,0.0,0.0,0.0,0.0,0.0,0.0,0.0,0.0,0.0,0.0,0.0,0.0,0.0,0.0,0.0,0.0,0.0,0.0,0.0,0.0,0.0,0.0,0.0,5.9573,6.2263,5.9565,0.0,0.0,0.0,0.0,0.0,0.0,0.0,0.0,0.0,0.0,8.2254,8.9117,9.1594,0.0,0.0,9.6188,9.639,9.579,9.7052,9.6435,9.1543,9.0835,0.0,0.0,0.0,0.0,0.0,0.0,0.0,0.0,0.0,0.0,0.0,0.0,0.0,0.0,0.0,0.0,0.0,0.0,0.0,0.0,0.0,0.0,0.0,0.0,0.0,0.0,0.0,0.0,0.0,0.0,0.0,0.0,0.0,0.0,0.0,0.0,0.0,0.0,0.0,0.0,0.0,0.0,0.0,0.0,0.0,0.0,0.0,0.0,0.0,0.0,0.0,0.0,8.457,8.9264,10.58,11.5117,11.6788,12.2266,12.5282,12.5077,11.4017,10.5178,0.0,0.0,0.0,0.0,0.0,0.0,0.0,0.0,0.0,0.0,0.0,0.0,0.0,0.0,0.0,0.0,0.0,0.0,0.0,0.0,0.0,0.0,0.0,0.0,0.0,0.0,0.0,0.0,0.0,0.0,0.0,0.0,0.0,0.0,0.0,0.0,0.0,0.0,0.0,0.0,0.0,7.8211,8.3041,8.5319,8.7552,0.0,8.9714,8.9283,9.0367,9.1871,9.1246,8.6599,0.0,0.0,0.0,0.0,0.0,0.0,0.0,0.0,0.0,0.0,0.0,0.0,0.0,0.0,0.0,0.0,0.0,0.0,0.0,0.0,0.0,0.0,0.0,0.0,0.0,0.0,0.0,0.0,0.0,0.0,0.0,0.0,0.0,0.0,0.0,0.0,0.0,0.0,0.0,0.0,0.0,0.0,0.0,0.0,0.0,0.0,0.0,0.0,0.0,0.0,0.0,0.0,0.0,0.0,8.1228,9.6914,10.6399,10.9146,11.48,11.9287,12.199,10.7214,0.0,0.0,0.0,0.0,0.0,0.0,0.0,0.0,0.0,0.0,0.0,0.0,0.0,0.0,0.0,0.0,0.0,0.0,0.0,0.0,0.0,0.0,0.0,0.0,0.0,0.0,0.0,3.7946,0.0,0.0,0.0,0.0,0.0,0.0,0.0,0.0,0.0,0.0,0.0,0.0,0.0,0.0,7.2209,7.9719,8.3188,8.523,0.0,0.0,8.676,8.4515,8.5516,8.4801,0.0,0.0,0.0,0.0,0.0,0.0,0.0,0.0,0.0,0.0,0.0,0.0,0.0,0.0,0.0,0.0,0.0,0.0,0.0,0.0,0.0,0.0,0.0,0.0,0.0,0.0,0.0,0.0,0.0,0.0,0.0,0.0,0.0,0.0,0.0,0.0,0.0,0.0,0.0,0.0,0.0,0.0,0.0,0.0,0.0,0.0,0.0,0.0,0.0,0.0,0.0,0.0,0.0,0.0,7.5169,7.8571,9.1609,10.0457,10.446,10.9467,11.3926,11.7542,10.0883,9.2163,0.0,0.0,0.0,0.0,0.0,0.0,0.0,0.0,0.0,0.0,0.0,0.0,0.0,0.0,0.0,0.0,0.0,0.0,0.0,0.0,0.0,0.0,0.0,0.0,0.0,0.0,0.0,0.0,0.0,0.0,0.0,0.0,0.0,0.0,0.0,0.0,0.0,0.0,0.0,0.0,0.0,0.0,7.6381,7.8522,0.0,0.0,0.0,8.4208,8.2176,0.0,0.0,0.0,0.0,0.0,0.0,0.0,0.0,0.0,0.0,0.0,0.0,0.0,0.0,0.0,0.0,0.0,0.0,0.0,0.0,0.0,0.0,0.0,0.0,0.0,0.0,0.0,0.0,0.0,0.0,0.0,0.0,0.0,0.0,0.0,0.0,0.0,0.0,0.0,0.0,0.0,0.0,0.0,0.0,0.0,0.0,0.0,0.0,0.0,0.0,0.0,0.0,0.0,0.0,0.0,0.0,0.0,7.7715,8.7477,9.5272,10.0608,10.4623,10.8246,11.1081,9.5367,8.7072,0.0,0.0,0.0,0.0,0.0,0.0,0.0,0.0,0.0,0.0,0.0,0.0,0.0,0.0,0.0,0.0,0.0,0.0,0.0,0.0,0.0,0.0,0.0,0.0,0.0,0.0,0.0,0.0,0.0,0.0,0.0,0.0,0.0,0.0,0.0,0.0,0.0,0.0,0.0,0.0,0.0,6.514,7.3025,7.3037,7.25,0.0,0.0,8.0493,8.0509,7.9964,0.0,0.0,0.0,0.0,0.0,0.0,0.0,0.0,0.0,0.0,0.0,0.0,0.0,0.0,0.0,0.0,0.0,0.0,0.0,0.0,0.0,0.0,0.0,0.0,0.0,0.0,0.0,0.0,0.0,0.0,0.0,0.0,0.0,0.0,0.0,0.0,0.0,0.0,0.0,0.0,0.0,0.0,0.0,0.0,0.0,0.0,0.0,0.0,0.0,0.0,0.0,0.0,0.0,0.0,0.0,0.0,7.2713,7.8648,8.538,9.2604,9.5998,9.9197,10.1939,9.2692,8.5768,0.0,0.0,0.0,0.0,0.0,0.0,0.0,0.0,0.0,0.0,0.0,0.0,0.0,0.0,0.0,0.0,0.0,0.0,0.0,0.0,0.0,0.0,0.0,0.0,0.0,0.0,0.0,0.0,0.0,0.0,0.0,0.0,0.0,0.0,0.0,0.0,0.0,0.0,0.0,0.0,0.0,6.2902,6.9901,7.0527,0.0,0.0,0.0,0.0,7.219,6.9003,0.0,0.0,0.0,0.0,0.0,0.0,0.0,0.0,0.0,0.0,0.0,0.0,0.0,0.0,0.0,0.0,0.0,0.0,0.0,0.0,0.0,0.0,0.0,0.0,0.0,0.0,0.0,0.0,0.0,0.0,0.0,0.0,0.0,0.0,0.0,0.0,0.0,0.0,0.0,0.0,0.0,0.0,0.0,0.0,0.0,0.0,0.0,0.0,0.0,0.0,0.0,0.0,0.0,0.0,0.0,0.0,7.1028,7.3786,7.9387,8.7973,8.9856,9.2134,9.4952,8.752,8.1351,0.0,0.0,0.0,0.0,0.0,0.0,0.0,0.0,0.0,0.0,0.0,0.0,0.0,0.0,0.0,0.0,0.0,0.0,0.0,0.0,0.0,0.0,0.0,0.0,0.0,0.0,0.0,0.0,0.0,0.0,0.0,0.0,0.0,0.0,0.0,0.0,0.0,0.0,0.0,0.0,6.0681,5.9589,6.5601,0.0,0.0,0.0,0.0,0.0,0.0,6.8186,6.606,0.0,0.0,0.0,0.0,0.0,0.0,0.0,0.0,0.0,0.0,0.0,0.0,0.0,0.0,0.0,0.0,0.0,0.0,0.0,0.0,0.0,0.0,0.0,0.0,0.0,0.0,0.0,0.0,0.0,0.0,0.0,0.0,0.0,0.0,0.0,0.0,0.0,0.0,0.0,0.0,0.0,0.0,0.0,0.0,0.0,0.0,0.0,0.0,0.0,0.0,0.0,0.0,0.0,0.0,0.0,6.9982,7.0733,7.532,8.4131,8.4871,8.6418,8.8705,8.2014,7.6232,7.187,0.0,0.0,0.0,0.0,0.0,0.0,0.0,0.0,0.0,0.0,0.0,0.0,0.0,0.0,0.0,0.0,0.0,0.0,0.0,0.0,0.0,0.0,0.0,0.0,0.0,0.0,0.0,0.0,0.0,0.0,0.0,0.0,0.0,0.0,0.0,0.0,0.0,0.0,0.0,5.6645,5.6037,0.0,0.0,0.0,0.0,0.0,0.0,0.0,0.0,6.6516,0.0,0.0,0.0,0.0,0.0,0.0,0.0,0.0,0.0,0.0,0.0,0.0,0.0,0.0,0.0,0.0,0.0,0.0,0.0,0.0,0.0,0.0,0.0,0.0,0.0,0.0,0.0,0.0,0.0,0.0,0.0,0.0,0.0,0.0,0.0,0.0,0.0,0.0,0.0,0.0,0.0,0.0,0.0,0.0,0.0,0.0,0.0,0.0,0.0,0.0,0.0,0.0,0.0,0.0,0.0,0.0,6.7878,7.2134,7.7677,8.0567,8.2193,8.2623,7.8854,7.3183,6.5675,0.0,0.0,0.0,0.0,0.0,0.0,0.0,0.0,0.0,0.0,0.0,0.0,0.0,0.0,0.0,0.0,0.0,0.0,0.0,0.0,0.0,0.0,0.0,0.0,0.0,0.0,0.0,0.0,0.0,0.0,0.0,0.0,0.0,0.0,0.0,0.0,0.0,0.0,4.9811,5.0342,0.0,0.0,0.0,0.0,0.0,0.0,0.0,0.0,6.0213,0.0,0.0,0.0,0.0,0.0,0.0,0.0,0.0,0.0,0.0,0.0,0.0,0.0,0.0,0.0,0.0,0.0,0.0,0.0,0.0,0.0,0.0,0.0,0.0,0.0,0.0,0.0,0.0,0.0,0.0,0.0,0.0,0.0,0.0,0.0,0.0,0.0,0.0,0.0,0.0,0.0,0.0,0.0,0.0,0.0,0.0,0.0,0.0,0.0,0.0,0.0,0.0,0.0,0.0,0.0,0.0,0.0,0.0,7.0959,7.4929,7.8223,7.9941,7.9715,7.4188,6.8498,0.0,0.0,0.0,0.0,0.0,0.0,0.0,0.0,0.0,0.0,0.0,0.0,0.0,0.0,0.0,0.0,0.0,0.0,0.0,0.0,0.0,0.0,0.0,0.0,0.0,0.0,0.0,0.0,0.0,0.0,0.0,0.0,0.0,0.0,0.0,0.0,0.0,0.0,0.0,0.0,0.0,0.0,0.0,0.0,0.0,0.0,0.0,0.0,0.0,0.0,0.0,0.0,0.0,0.0,0.0,0.0,0.0,0.0,0.0,0.0,0.0,0.0,0.0,0.0,0.0,0.0,0.0,0.0,0.0,0.0,0.0,0.0,0.0,0.0,0.0,0.0,0.0,0.0,0.0,0.0,0.0,0.0,0.0,0.0,0.0,0.0,0.0,0.0,0.0,0.0,0.0,0.0,0.0,0.0,0.0,0.0,0.0,0.0,0.0,0.0,0.0,0.0,0.0,0.0,0.0,0.0,0.0,0.0,6.9909,7.2833,7.6729,7.875,7.8676,7.1122,6.5133,0.0,0.0,0.0,0.0,0.0,0.0,0.0,0.0,0.0,0.0,0.0,0.0,0.0,0.0,0.0,0.0,0.0,0.0,0.0,0.0,0.0,0.0,0.0,0.0,0.0,0.0,0.0,0.0,0.0,0.0,0.0,0.0,0.0,0.0,0.0,0.0,0.0,0.0,0.0,0.0,0.0,0.0,0.0,0.0,0.0,0.0,0.0,0.0,5.6037,0.0,0.0,0.0,0.0,0.0,0.0,0.0,0.0,0.0,0.0,0.0,0.0,0.0,0.0,0.0,0.0,0.0,0.0,0.0,0.0,0.0,0.0,0.0,0.0,0.0,0.0,0.0,0.0,0.0,0.0,0.0,0.0,0.0,0.0,0.0,0.0,0.0,0.0,0.0,0.0,0.0,0.0,0.0,0.0,0.0,0.0,0.0,0.0,0.0,0.0,0.0,0.0,0.0,0.0,0.0,0.0,0.0,0.0,0.0,6.7677,6.9532,7.5527,7.8752,7.8528,7.223,6.579,0.0,0.0,0.0,0.0,0.0,0.0,0.0,0.0,0.0,0.0,0.0,0.0,0.0,0.0,0.0,0.0,0.0,0.0,0.0,0.0,0.0,0.0,0.0,0.0,0.0,0.0,0.0,0.0,0.0,0.0,0.0,0.0,0.0,0.0,0.0,0.0,0.0,0.0,0.0,0.0,0.0,0.0,0.0,0.0,0.0,0.0,0.0,0.0,0.0,0.0,0.0,0.0,0.0,0.0,0.0,0.0,0.0,0.0,0.0,0.0,0.0,0.0,0.0,0.0,0.0,0.0,0.0,0.0,0.0,0.0,0.0,0.0,0.0,0.0,0.0,0.0,0.0,0.0,0.0,0.0,0.0,0.0,0.0,0.0,0.0,0.0,0.0,0.0,0.0,0.0,0.0,0.0,0.0,0.0,0.0,0.0,0.0,0.0,0.0,0.0,0.0,0.0,0.0,0.0,0.0,0.0,0.0,0.0,6.5426,6.9011,7.3581,7.4035,7.0299,6.4759,6.0046,0.0,0.0,0.0,0.0,0.0,0.0,0.0,0.0,0.0,0.0,0.0,0.0,0.0,0.0,0.0,0.0,0.0,0.0,0.0,0.0,0.0,0.0,0.0,0.0,0.0,0.0,0.0,0.0,0.0,0.0,0.0,0.0,0.0,0.0,0.0,0.0,0.0,0.0,0.0,0.0,0.0,0.0,0.0,0.0,0.0,0.0,0.0,0.0,0.0,0.0,0.0,0.0,0.0,0.0,0.0,0.0,0.0,0.0,0.0,0.0,0.0,0.0,0.0,0.0,0.0,0.0,0.0,0.0,0.0,0.0,0.0,0.0,0.0,0.0,0.0,0.0,0.0,0.0,0.0,0.0,0.0,0.0,0.0,0.0,0.0,0.0,0.0,0.0,0.0,0.0,0.0,0.0,0.0,0.0,0.0,0.0,0.0,0.0,0.0,0.0,0.0,0.0,0.0,0.0,0.0,0.0,0.0,0.0,0.0,6.6313,6.8716,6.7669,6.281,5.9151,5.6085,0.0,0.0,0.0,0.0,0.0,0.0,0.0,0.0,0.0,0.0,0.0,0.0,0.0,0.0,0.0,0.0,0.0,0.0,0.0,0.0,0.0,0.0,0.0,0.0,0.0,0.0,0.0,0.0,0.0,0.0,0.0,0.0,0.0,0.0,0.0,0.0,0.0,0.0,0.0,0.0,0.0,0.0,0.0,0.0,0.0,0.0,0.0,0.0,0.0,0.0,0.0,0.0,0.0,0.0,0.0,0.0,0.0,0.0,0.0,0.0,0.0,0.0,0.0,0.0,0.0,0.0,0.0,0.0,0.0,0.0,0.0,0.0,0.0,0.0,0.0,0.0,0.0,0.0,0.0,0.0,0.0,0.0,0.0,0.0,0.0,0.0,0.0,0.0,0.0,0.0,0.0,0.0,0.0,0.0,0.0,0.0,0.0,0.0,0.0,0.0,0.0,0.0,0.0,0.0,0.0,0.0,0.0,0.0,0.0,5.9582,5.9809,5.9733,5.9286,5.8985,5.6744,0.0,0.0,0.0,0.0,0.0,0.0,0.0,0.0,0.0,0.0,0.0,0.0,0.0,0.0,0.0,0.0,0.0,0.0,0.0,0.0,0.0,0.0,0.0,0.0,0.0,0.0,0.0,0.0,0.0,0.0,0.0,0.0,0.0,0.0,0.0,0.0,0.0,0.0,0.0,0.0,0.0,0.0,0.0,0.0,0.0,0.0,0.0,0.0,0.0,0.0,0.0,0.0,0.0,0.0,0.0,0.0,0.0,0.0,0.0,0.0,0.0,0.0,0.0,0.0,0.0,0.0,0.0,0.0,0.0,0.0,0.0,0.0,0.0,0.0,0.0,0.0,0.0,0.0,0.0,0.0,0.0,0.0,0.0,0.0,0.0,0.0,0.0,0.0,0.0,0.0,0.0,0.0,0.0,0.0,0.0,0.0,0.0,0.0,0.0,0.0,0.0,0.0,0.0,0.0,0.0,0.0,0.0,0.0,0.0,5.293,5.2854,5.2926,5.2851,5.2852,5.1514,4.8762,0.0,0.0,0.0,0.0,0.0,0.0,0.0,0.0,0.0,0.0,0.0,0.0,0.0,0.0,0.0,0.0,0.0,0.0,0.0,0.0,0.0,0.0,0.0,0.0,0.0,0.0,0.0,0.0,0.0,0.0,0.0,0.0,0.0,0.0,0.0,0.0,0.0,0.0,0.0,0.0,0.0,0.0,0.0,0.0,0.0,0.0,0.0,0.0,0.0,0.0,0.0,0.0,0.0,0.0,0.0,0.0,0.0,0.0,0.0,0.0,0.0,0.0,0.0,0.0,0.0,0.0,0.0,0.0,0.0,0.0,0.0,0.0,0.0,0.0,0.0,0.0,0.0,0.0,0.0,0.0,0.0,0.0,0.0,0.0,0.0,0.0,0.0,0.0,0.0,0.0,0.0,0.0,0.0,0.0,0.0,0.0,0.0,0.0,0.0,0.0,0.0,0.0,0.0,0.0,0.0,0.0,0.0,0.0,4.7689,4.7757,4.776,4.7626,4.7701,4.6963,0.0,0.0,0.0,0.0,0.0,0.0,0.0,0.0,0.0,0.0,0.0,0.0,0.0,0.0,0.0,0.0,0.0,0.0,0.0,0.0,0.0,0.0,0.0,0.0,0.0,0.0,0.0,0.0,0.0,0.0,0.0,0.0,0.0,0.0,0.0,0.0,0.0,0.0,0.0,0.0,0.0,0.0,0.0,0.0,0.0,0.0,0.0,0.0,0.0,0.0,0.0,0.0,0.0,0.0,0.0,0.0,0.0,0.0,0.0,0.0,0.0,0.0,0.0,0.0,0.0,0.0,0.0,0.0,0.0,0.0,0.0,0.0,0.0,0.0,0.0,0.0,0.0,0.0,0.0,0.0,0.0,0.0,0.0,0.0,0.0,0.0,0.0,0.0,0.0,0.0,0.0,0.0,0.0,0.0,0.0,0.0,0.0,0.0,0.0,0.0,0.0,0.0,0.0,0.0,0.0,0.0,0.0,0.0,3.9739,4.4308,4.4593,4.4684,4.4422,4.4497,4.3674,0.0,0.0,0.0,0.0,0.0,0.0,0.0,0.0,0.0,0.0,0.0,0.0,0.0,0.0,0.0,0.0,0.0,0.0,0.0,0.0,0.0,0.0,0.0,0.0,0.0,0.0,0.0,0.0,0.0,0.0,0.0,0.0,0.0,0.0,0.0,0.0,0.0,0.0,0.0,0.0,0.0,0.0,0.0,0.0,0.0,0.0,0.0,0.0,0.0,0.0,0.0,0.0,0.0,0.0,0.0,0.0,0.0,0.0,0.0,0.0,0.0,0.0,0.0,0.0,0.0,0.0,0.0,0.0,0.0,0.0,0.0,0.0,0.0,0.0,0.0,0.0,0.0,0.0,0.0,0.0,0.0,0.0,0.0,0.0,0.0,0.0,0.0,0.0,0.0,0.0,0.0,0.0,0.0,0.0,0.0,0.0,0.0,0.0,0.0,0.0,0.0,0.0,0.0,0.0,0.0,0.0,0.0,0.0,0.0,4.0971,0.0,4.451,0.0,4.4483,4.3122,0.0,0.0,0.0,0.0,0.0,0.0,0.0,0.0,0.0,0.0,0.0,0.0,0.0,0.0,0.0,0.0,0.0,0.0,0.0,0.0,0.0,0.0,0.0,0.0,0.0,0.0,0.0,0.0,0.0,0.0,0.0,0.0,0.0,0.0,0.0,0.0,0.0,0.0,0.0,0.0,0.0,0.0,0.0,0.0,0.0,0.0,0.0,0.0,0.0,0.0,0.0,0.0,0.0,0.0,0.0,0.0,0.0,0.0,0.0,0.0,0.0,0.0,0.0,0.0,0.0,0.0,0.0,0.0,0.0,0.0,0.0,0.0,0.0,0.0,0.0,0.0,0.0,0.0,0.0,0.0,0.0,0.0,0.0,0.0,0.0,0.0,0.0,0.0,0.0,0.0,0.0,0.0,0.0,0.0,0.0,0.0,0.0,0.0,0.0,0.0,0.0,0.0,0.0,0.0,0.0,0.0,0.0,0.0,0.0,3.7715,3.9941,4.1267,4.1759,4.1797,4.0508,0.0,0.0,0.0,0.0,0.0,0.0,0.0,0.0,0.0,0.0,0.0,0.0,0.0,0.0,0.0,0.0,0.0,0.0,0.0,0.0,0.0,0.0,0.0,0.0,0.0,0.0,0.0,0.0,0.0,0.0,0.0,0.0,0.0,0.0,0.0,0.0,0.0,0.0,0.0,0.0,0.0,0.0,0.0,0.0,0.0,0.0,0.0,0.0,0.0,0.0,0.0,0.0,0.0,0.0,0.0,0.0,0.0,0.0,0.0,0.0,0.0,0.0,0.0,0.0,0.0,0.0,0.0,0.0,0.0,0.0,0.0,0.0,0.0,0.0,0.0,0.0,0.0,0.0,0.0,0.0,0.0,0.0,0.0,0.0,0.0,0.0,0.0,0.0,0.0,0.0,0.0,0.0,0.0,0.0,0.0,0.0,0.0,0.0,0.0,0.0,0.0,0.0,0.0,0.0,0.0,0.0,0.0,0.0,0.0,0.0,3.4736,3.5424,3.6875,3.688,3.6058,0.0,0.0,0.0,0.0,0.0,0.0,0.0,0.0,0.0,0.0,0.0,0.0,0.0,0.0,0.0,0.0,0.0,0.0,0.0,0.0,0.0,0.0,0.0,0.0,0.0,0.0,0.0,0.0,0.0,0.0,0.0,0.0,0.0,0.0,0.0,0.0,0.0,0.0,0.0,0.0,0.0,0.0,0.0,0.0,0.0,0.0,0.0,0.0,0.0,0.0,0.0,0.0,0.0,0.0,0.0,0.0,0.0,0.0,0.0,0.0,0.0,0.0,0.0,0.0,0.0,0.0,0.0,0.0,0.0,0.0,0.0,0.0,0.0,0.0,0.0,0.0,0.0,0.0,0.0,0.0,0.0,0.0,0.0,0.0,0.0,0.0,0.0,0.0,0.0,0.0,0.0,0.0,0.0,0.0,0.0,0.0,0.0,0.0,0.0,0.0,0.0,0.0,0.0,0.0,0.0,0.0,0.0,0.0,0.0,0.0,3.2273,3.3611,3.531,3.5279,3.4439,3.2809,0.0,0.0,0.0,0.0,0.0,0.0,0.0,0.0,0.0,0.0,0.0,0.0,0.0,0.0,0.0,0.0,0.0,0.0,0.0,0.0,0.0,0.0,0.0,0.0,0.0,0.0,0.0,0.0,0.0,0.0,0.0,0.0,0.0,0.0,0.0,0.0,0.0,0.0,0.0,0.0,0.0,0.0,0.0,0.0,0.0,0.0,0.0,0.0,0.0,0.0,0.0,0.0,0.0,0.0,0.0,0.0,0.0,0.0,0.0,0.0,0.0,0.0,0.0,0.0,0.0,0.0,0.0,0.0,0.0,0.0,0.0,0.0,0.0,0.0,0.0,0.0,0.0,0.0,0.0,0.0,0.0,0.0,0.0,0.0,0.0,0.0,0.0,0.0,0.0,0.0,0.0,0.0,0.0,0.0,0.0,0.0,0.0,0.0,0.0,0.0,0.0,0.0,0.0,0.0,0.0,0.0,0.0,0.0,0.0,0.0,3.2007,3.3845,3.3705,3.3168,0.0,0.0,0.0,0.0,0.0,0.0,0.0,0.0,0.0,0.0,0.0,0.0,0.0,0.0,0.0,0.0,0.0,0.0,0.0,0.0,0.0,0.0,0.0,0.0,0.0,0.0,0.0,0.0,0.0,0.0,0.0,0.0,0.0,0.0,0.0,0.0,0.0,0.0,0.0,0.0,0.0,0.0,0.0,0.0,0.0,0.0,0.0,0.0,0.0,0.0,0.0,0.0,0.0,0.0,0.0,0.0,0.0,0.0,0.0,0.0,0.0,0.0,0.0,0.0,0.0,0.0,0.0,0.0,0.0,0.0,0.0,0.0,0.0,0.0,0.0,0.0,0.0,0.0,0.0,0.0,0.0,0.0,0.0,0.0,0.0,0.0,0.0,0.0,0.0,0.0,0.0,0.0,0.0,0.0,0.0,0.0,0.0,0.0,0.0,0.0,0.0,0.0,0.0,0.0,0.0,0.0,0.0,0.0,0.0,0.0,0.0,3.0691,3.2146,3.2102,0.0,3.1877,0.0,0.0,0.0,0.0,0.0,0.0,0.0,0.0,0.0,0.0,0.0,0.0,0.0,0.0,0.0,0.0,0.0,0.0,0.0,0.0,0.0,0.0,0.0,0.0,0.0,0.0,0.0,0.0,0.0,0.0,0.0,0.0,0.0,0.0,0.0,0.0,0.0,0.0,0.0,0.0,0.0,0.0,0.0,0.0,0.0,0.0,0.0,0.0,0.0,0.0,0.0,0.0,0.0,0.0,0.0,0.0,0.0,0.0,0.0,0.0,0.0,0.0,0.0,0.0,0.0,0.0,0.0,0.0,0.0,0.0,0.0,0.0,0.0,0.0,0.0,0.0,0.0,0.0,0.0,0.0,0.0,0.0,0.0,0.0,0.0,0.0,0.0,0.0,0.0,0.0,0.0,0.0,0.0,0.0,0.0,0.0,0.0,0.0,0.0,0.0,0.0,0.0,0.0,0.0,0.0,0.0,0.0,0.0,0.0,0.0,0.0,0.0,3.0336,3.035,3.0213,0.0,0.0,0.0,0.0,0.0,0.0,0.0,0.0,0.0,0.0,0.0,0.0,0.0,0.0,0.0,0.0,0.0,0.0,0.0,0.0,0.0,0.0,0.0,0.0,0.0,0.0,0.0,0.0,0.0,0.0,0.0,0.0,0.0,0.0,0.0,0.0,0.0,0.0,0.0,0.0,0.0,0.0,0.0,0.0,0.0,0.0,0.0,0.0,0.0,0.0,0.0,0.0,0.0,0.0,0.0,0.0,0.0,0.0,0.0,0.0,0.0,0.0,0.0,0.0,0.0,0.0,0.0,0.0,0.0,0.0,0.0,0.0,0.0,0.0,0.0,0.0,0.0,0.0,0.0,0.0,0.0,0.0,0.0,0.0,0.0,0.0,0.0,0.0,0.0,0.0,0.0,0.0,0.0,0.0,0.0,0.0,0.0,0.0,0.0,0.0,0.0,0.0,0.0,0.0,0.0,0.0,0.0,0.0,0.0,0.0,2.955,2.8791,2.9477,2.9429,2.8671,0.0,0.0,0.0,0.0,0.0,0.0,0.0,0.0,0.0,0.0,0.0,0.0,0.0,0.0,0.0,0.0,0.0,0.0,0.0,0.0,0.0,0.0,0.0,0.0,0.0,0.0,0.0,0.0,0.0,0.0,0.0,0.0,0.0,0.0,0.0,0.0,0.0,0.0,0.0,0.0,0.0,0.0,0.0,0.0,0.0,0.0,0.0,0.0,0.0,0.0,0.0,0.0,0.0,0.0,0.0,0.0,0.0,0.0,0.0,0.0,0.0,0.0,0.0,0.0,0.0,0.0,0.0,0.0,0.0,0.0,0.0,0.0,0.0,0.0,0.0,0.0,0.0,0.0,0.0,0.0,0.0,0.0,0.0,0.0,0.0,0.0,0.0,0.0,0.0,0.0,0.0,0.0,0.0,0.0,0.0,0.0,0.0,0.0,0.0,0.0,0.0,0.0,0.0,0.0,0.0,0.0,0.0,0.0,0.0,0.0,0.0,0.0,0.0,0.0,2.7487,0.0,0.0,0.0,0.0,0.0,0.0,0.0,0.0,0.0,0.0,0.0,0.0,0.0,0.0,0.0,0.0,0.0,0.0,0.0,0.0,0.0,0.0,0.0,0.0,0.0,0.0,0.0,0.0,0.0,0.0,0.0,0.0,0.0,0.0,0.0,0.0,0.0,0.0,0.0,0.0,0.0,0.0,0.0,0.0,0.0,0.0,0.0,0.0,0.0,0.0,0.0,0.0,0.0,0.0,0.0,0.0,0.0,0.0,0.0,0.0,0.0,0.0,0.0,0.0,0.0,0.0,0.0,0.0,0.0,0.0,0.0,0.0,0.0,0.0,0.0,0.0,0.0,0.0,0.0,0.0,0.0,0.0,0.0,0.0,0.0,0.0,0.0,0.0,0.0,0.0,0.0,0.0,0.0,0.0,0.0,0.0,0.0,0.0,0.0,0.0,0.0,0.0,0.0,0.0,0.0,0.0,0.0,0.0,0.0,0.0,0.0,0.0,0.0,0.0,0.0,0.0,0.0,0.0,0.0,0.0,0.0,0.0,0.0,0.0,0.0,0.0,0.0,0.0,0.0,0.0,0.0,0.0,0.0,0.0,0.0,0.0,0.0,0.0,0.0,0.0,0.0,0.0,0.0,0.0,0.0,0.0,0.0,0.0,0.0,0.0,0.0,0.0,0.0,0.0,0.0,0.0,0.0,0.0,0.0,0.0,0.0,0.0,0.0,0.0,0.0,0.0,0.0,0.0,0.0,0.0,0.0,0.0,0.0,0.0,0.0,0.0,0.0,0.0,0.0,0.0,0.0,0.0,0.0,0.0,0.0,0.0,0.0,0.0,0.0,0.0,0.0,0.0,0.0,0.0,0.0,0.0,0.0,0.0,0.0,0.0,0.0,0.0,0.0,0.0,0.0,0.0,0.0,0.0,0.0,0.0,0.0,0.0,0.0,0.0,0.0,0.0,0.0,0.0,0.0,0.0,0.0,0.0,0.0,0.0,0.0,0.0,0.0,0.0,0.0,0.0,0.0,0.0,0.0,0.0,0.0,0.0,0.0,0.0,0.0,0.0,0.0,0.0,0.0,0.0,0.0,0.0,0.0,0.0,0.0,0.0,0.0,0.0,0.0,0.0,0.0,0.0,0.0,0.0,0.0,0.0,0.0,0.0,0.0,0.0,0.0,0.0,0.0,0.0,0.0,0.0,0.0,0.0,0.0,0.0,0.0,0.0,0.0,0.0,0.0,0.0,0.0,0.0,0.0,0.0,0.0,0.0,0.0,0.0,0.0,0.0,0.0,0.0,0.0,0.0,0.0,0.0,0.0,0.0,0.0,0.0,0.0,0.0,0.0,0.0,0.0,0.0,0.0,0.0,0.0,0.0,0.0,0.0,0.0,0.0,0.0,0.0,0.0,0.0,0.0,0.0,0.0,0.0,0.0,0.0,0.0,0.0,0.0,0.0,0.0,0.0,0.0,0.0,0.0,0.0,0.0,0.0,0.0,0.0,0.0,0.0,0.0,0.0,0.0,0.0,0.0,0.0,0.0,0.0,0.0,0.0,0.0,0.0,0.0,0.0,0.0,0.0,0.0,0.0,0.0,0.0,0.0,0.0,0.0,0.0,0.0,0.0,0.0,0.0,0.0,0.0,0.0,0.0,0.0,0.0,0.0,0.0,0.0,0.0,0.0,0.0,0.0,0.0,0.0,0.0,0.0,0.0,0.0,0.0,0.0,0.0,0.0,0.0,0.0,0.0,0.0,0.0,0.0,0.0,0.0,0.0,0.0,0.0,0.0,0.0,0.0,0.0,0.0,0.0,0.0,0.0,0.0,0.0,0.0,0.0,0.0,0.0,0.0,0.0,0.0,0.0,0.0,0.0,0.0,0.0,0.0,0.0,0.0,0.0,0.0,0.0,0.0,0.0,0.0,0.0,0.0,0.0,0.0,0.0,0.0,0.0,0.0,0.0,0.0,0.0,0.0,0.0,0.0,0.0,0.0,0.0,0.0,0.0,0.0,0.0,0.0,0.0,0.0,0.0,0.0,0.0,0.0,0.0,0.0,0.0,0.0,0.0,0.0,0.0,0.0,0.0,0.0,0.0,0.0,0.0,0.0,0.0,0.0,0.0,0.0,0.0,0.0,0.0,0.0,0.0,0.0,0.0,0.0,0.0,0.0,0.0,0.0,0.0,0.0,0.0,0.0,0.0,0.0,0.0,0.0,0.0,0.0,0.0,0.0,0.0,0.0,0.0,0.0,0.0,0.0,0.0,0.0,0.0,0.0,0.0,0.0,0.0,0.0,0.0,0.0,0.0,0.0,0.0,0.0,0.0,0.0,0.0,0.0,0.0,0.0,0.0,0.0,0.0,0.0,0.0,0.0,0.0,0.0,0.0,0.0,0.0,0.0,0.0,0.0,0.0,0.0,0.0,0.0,0.0,0.0,0.0,0.0,0.0,0.0,0.0,0.0,0.0,0.0,0.0,0.0,0.0,0.0,0.0,0.0,0.0,0.0,0.0,0.0,0.0,0.0,0.0,0.0,0.0,0.0,0.0,0.0,0.0,0.0,0.0,0.0,0.0,0.0,0.0,0.0,0.0,0.0,0.0,0.0,0.0,0.0,0.0,0.0,0.0,0.0,0.0,0.0,0.0,0.0,0.0,0.0,0.0,0.0,0.0,0.0,0.0,0.0,0.0,0.0,0.0,0.0,0.0,0.0,0.0,0.0,0.0,0.0,0.0,0.0,0.0,0.0,0.0,0.0,0.0,0.0,0.0,0.0,0.0,0.0,0.0,0.0,0.0,0.0,0.0,0.0,0.0,0.0,0.0,0.0,0.0,0.0,0.0,0.0,0.0,0.0,0.0,0.0,0.0,0.0,0.0,0.0,0.0,0.0,0.0,0.0,0.0,0.0,0.0,0.0,0.0,0.0,0.0,0.0,0.0,0.0,0.0,0.0,0.0,0.0,0.0,0.0,0.0,0.0,0.0,0.0,0.0,0.0,0.0,0.0,0.0,0.0,0.0,0.0,0.0,0.0,0.0,0.0,0.0,0.0,0.0,0.0,0.0,0.0,0.0,0.0,0.0,0.0,0.0,0.0,0.0,0.0,0.0,0.0,0.0,0.0,0.0,0.0,0.0,0.0,0.0,0.0,0.0,0.0,0.0,0.0,0.0,0.0,0.0,0.0,0.0,0.0,0.0,0.0,0.0,0.0,0.0,0.0,0.0,0.0,0.0,0.0,0.0,0.0,0.0,0.0,0.0,0.0,0.0,0.0,0.0,0.0,0.0,0.0,0.0,0.0,0.0,0.0,0.0,0.0,0.0,0.0,0.0,0.0,0.0,0.0,0.0,0.0,0.0,0.0,0.0,0.0,0.0,0.0,0.0,0.0,0.0,0.0,0.0,0.0,0.0,0.0,0.0,0.0,0.0,0.0,0.0,0.0,0.0,0.0,0.0,0.0,0.0,0.0,0.0,0.0,0.0,0.0,0.0,0.0,0.0,0.0,0.0,0.0,0.0,0.0,0.0,0.0,0.0,0.0,0.0,0.0,0.0,0.0,0.0,0.0,0.0,0.0,0.0,0.0,0.0,0.0,0.0,0.0,0.0,0.0,0.0,0.0,0.0,0.0,0.0,0.0,0.0,0.0,0.0,0.0,0.0,0.0,0.0,0.0,0.0,0.0,0.0,0.0,0.0,0.0,0.0,0.0,0.0,0.0,0.0,0.0,0.0,0.0,0.0,0.0,0.0,0.0,0.0,0.0,0.0,0.0,0.0,0.0,0.0,0.0,0.0,0.0,0.0,0.0,0.0,0.0,0.0,0.0,0.0,0.0,0.0,0.0,0.0,0.0,0.0,0.0,0.0,0.0,0.0,0.0,0.0,0.0,0.0,0.0,0.0,0.0,0.0,0.0,0.0,0.0,0.0,0.0,0.0,0.0,0.0,0.0,0.0,0.0,0.0,0.0,0.0,0.0,0.0,0.0,0.0,0.0,0.0,0.0,0.0,0.0,0.0,0.0,0.0,0.0,0.0,0.0,0.0,0.0,0.0,0.0,0.0,0.0,0.0,0.0,0.0,0.0,0.0,0.0,0.0,0.0,0.0,0.0,0.0,0.0,0.0,0.0,0.0,0.0,0.0,0.0,0.0,0.0,0.0,0.0,0.0,0.0,0.0,0.0,0.0,0.0,0.0,0.0,0.0,0.0,0.0,0.0,0.0,0.0,0.0,0.0,0.0,0.0,0.0,0.0,0.0,0.0,0.0,0.0,0.0,0.0,0.0,0.0,0.0,0.0,0.0,0.0,0.0,0.0,0.0,0.0,0.0,0.0,0.0,0.0,0.0,0.0,0.0,0.0,0.0,0.0,0.0,0.0,0.0,0.0,0.0]}],[{"header":{"parameterUnit":"kt","parameterCategory":2,"dx":1,"dy":1,"la1":29.587661999999998,"la2":31.0,"lo1":-88.76705300000003,"lo2":-86.6583820000003,"nx":115,"ny":88,"refTime":"2022-10-14T12:00:00:Z","depth":0,"parameterNumber":2,"parameterNumberName":"V-component_of_WINDS"},"data":[4.8432,4.9454,5.0212,5.0854,5.1284,5.1336,5.1336,5.1336,5.1336,5.1336,5.1336,5.1336,5.1336,5.1336,5.1336,5.1336,5.1336,5.1336,5.1336,5.1336,5.1336,5.1336,5.1336,5.1336,5.1336,5.1336,5.144,5.2031,5.2928,5.3136,5.3656,5.4764,5.4795,5.4821,5.4821,5.4821,5.4821,5.4821,5.4821,5.4821,5.4821,5.4821,5.4821,5.4821,5.4821,5.4821,5.4821,5.4821,5.4821,5.4821,5.4821,5.4821,5.4821,5.4821,5.4821,5.4821,5.4821,5.4821,5.4821,5.4821,5.4821,5.4821,5.4821,5.4821,5.4821,5.4821,5.4821,5.4821,5.4821,5.4821,5.4821,5.4821,5.4821,5.4821,5.4821,5.4821,5.4821,5.4821,5.4821,5.4821,5.4821,5.4821,5.4821,5.4821,5.4821,5.4821,5.4821,5.4821,5.4821,5.4821,5.4821,5.4821,5.4821,5.4821,5.4847,5.5306,5.5581,5.5461,5.5393,5.542,5.5332,5.5113,5.5335,5.5793,5.5898,5.597,5.5928,5.6167,5.6447,5.6619,5.6468,5.6522,5.6898,5.6851,5.6138,4.8242,4.9016,5.0067,5.0847,5.1284,5.1336,5.1336,5.1336,5.1336,5.1336,5.1336,5.1336,5.1336,5.1336,5.1336,5.1336,5.1336,5.1336,5.1336,5.1336,5.1336,5.1336,5.1336,5.1336,5.1336,5.1336,5.1343,5.2083,5.3078,5.3182,5.3604,5.4561,5.4821,5.4821,5.4821,5.4821,5.4821,5.4821,5.4821,5.4821,5.4821,5.4821,5.4821,5.4821,5.4821,5.4821,5.4821,5.4821,5.4821,5.4821,5.4821,5.4821,5.4821,5.4821,5.4821,5.4821,5.4821,5.4821,5.4821,5.4821,5.4821,5.4821,5.4821,5.4821,5.4821,5.4821,5.4821,5.4821,5.4821,5.4821,5.4821,5.4821,5.4821,5.4821,5.4821,5.4821,5.4821,5.4821,5.4821,5.4821,5.4821,5.4821,5.4821,5.4821,5.4821,5.4821,5.4821,5.4821,5.4821,5.4821,5.5009,5.5092,5.5222,5.5087,5.4951,5.5274,5.5628,5.5555,5.56,5.556,5.5529,5.557,5.5725,5.611,5.6369,5.6468,5.6473,5.64,5.6296,5.6442,5.6343,5.6365,5.6672,5.6431,5.582,4.8009,4.839,4.9499,5.0524,5.1232,5.1336,5.1336,5.1336,5.1336,5.1336,5.1336,5.1336,5.1336,5.1336,5.1336,5.1336,5.1336,5.1336,5.1336,5.1336,5.1336,5.1336,5.1336,5.1336,5.1336,5.1336,5.1369,5.183,5.2902,5.3208,5.365,5.4613,5.4821,5.4821,5.4821,5.4821,5.4821,5.4821,5.4821,5.4821,5.4821,5.4821,5.4821,5.4821,5.4821,5.4821,5.4821,5.4821,5.4821,5.4821,5.4821,5.4821,5.4821,5.4821,5.4821,5.4821,5.4821,5.4821,5.4821,5.4821,5.4821,5.4821,5.4821,5.4821,5.4821,5.4821,5.4821,5.4821,5.4821,5.4821,5.4821,5.4821,5.4821,5.4821,5.4821,5.4821,5.4821,5.4821,5.4821,5.4821,5.4821,5.4821,5.4821,5.4821,5.4821,5.4821,5.4821,5.4821,5.4821,5.4821,5.5202,5.5498,5.581,5.5804,5.5498,5.556,5.5768,5.5825,5.5875,5.5912,5.5954,5.6027,5.6178,5.6593,5.6879,5.6931,5.6858,5.6784,5.6681,5.6209,5.6141,5.6155,5.6035,5.5885,5.5901,4.7817,4.7921,4.9073,5.0233,5.1258,5.1336,5.1336,5.1336,5.1336,5.1336,5.1336,5.1336,5.1336,5.1336,5.1336,5.1336,5.1336,5.1336,5.1336,5.1336,5.1336,5.1336,5.1336,5.1336,5.1336,5.1336,5.1421,5.1726,5.244,5.3032,5.363,5.4691,5.4821,5.4821,5.4821,5.4821,5.4821,5.4821,5.4821,5.4821,5.4821,5.4821,5.4821,5.4821,5.4821,5.4821,5.4821,5.4821,5.4821,5.4821,5.4821,5.4821,5.4821,5.4821,5.4821,5.4821,5.4821,5.4821,5.4821,5.4821,5.4821,5.4821,5.4821,5.4821,5.4821,5.4821,5.4821,5.4821,5.4821,5.4821,5.4821,5.4821,5.4821,5.4821,5.4821,5.4821,5.4821,5.4821,5.4821,5.4821,5.4821,5.4821,5.4821,5.4821,5.4821,5.4821,5.4821,5.4797,5.4828,5.5238,5.5674,5.6101,5.6376,5.6353,5.616,5.6087,5.6115,5.6146,5.6545,5.6513,5.6365,5.6647,5.6978,5.7258,5.7212,5.6853,5.6723,5.6702,5.6365,5.5944,5.5747,5.573,5.5599,5.5878,5.6155,4.7817,4.7921,4.9073,5.0174,5.1232,5.131,5.1336,5.1336,5.1336,5.1336,5.1336,5.1336,5.1336,5.1336,5.1336,5.1336,5.1336,5.1336,5.1336,5.1336,5.1336,5.1336,5.1336,5.1336,5.1336,5.1336,5.1369,5.1492,5.1804,5.2577,5.363,5.4743,5.4795,5.4821,5.4821,5.4821,5.4821,5.4821,5.4821,5.4821,5.4821,5.4821,5.4821,5.4821,5.4821,5.4821,5.4821,5.4821,5.4821,5.4821,5.4821,5.4821,5.4821,5.4821,5.4821,5.4821,5.4821,5.4821,5.4821,5.4821,5.4821,5.4821,5.4821,5.4821,5.4821,5.4821,5.4821,5.4821,5.4821,5.4821,5.4821,5.4821,5.4821,5.4821,5.4821,5.4821,5.4821,5.4821,5.4821,5.4821,5.4821,5.4821,5.4821,5.4821,5.4821,5.4812,5.4808,5.4809,5.5072,5.573,5.6214,5.6675,5.6761,5.6721,5.6631,5.6704,5.6612,5.6853,5.7393,5.7429,5.7064,5.7331,5.7767,5.7734,5.7653,5.7113,5.6329,5.5773,5.5384,5.528,5.5337,5.5279,5.5547,5.5951,5.6306,4.7817,4.7921,4.8746,4.9525,5.0304,5.1024,5.1336,5.1336,5.1336,5.1336,5.1336,5.1336,5.1336,5.1336,5.1336,5.1336,5.1336,5.1336,5.1336,5.1336,5.1336,5.1336,5.1336,5.1336,5.1336,5.1336,5.1336,5.1336,5.1667,5.2473,5.3356,5.426,5.4712,5.4769,5.4821,5.4821,5.4821,5.4821,5.4821,5.4821,5.4821,5.4821,5.4821,5.4821,5.4821,5.4821,5.4821,5.4821,5.4821,5.4821,5.4821,5.4821,5.4821,5.4821,5.4821,5.4821,5.4821,5.4821,5.4821,5.4821,5.4821,5.4821,5.4821,5.4821,5.4821,5.4821,5.4821,5.4821,5.4821,5.4821,5.4821,5.4821,5.4821,5.4821,5.4821,5.4821,5.4821,5.4821,5.4821,5.4821,5.4821,5.4821,5.4827,5.4821,5.4853,5.4953,5.5,5.5108,5.5588,5.6308,5.6874,5.7132,5.7139,5.7183,5.7437,5.7541,5.748,5.7596,5.7991,5.7905,5.7744,5.7766,5.7926,5.797,5.7969,5.7061,5.6126,5.5358,5.4847,5.4879,5.4979,5.5098,5.5429,5.6026,5.6728,4.7817,4.7869,4.8512,4.9102,4.9643,5.046,5.1005,5.131,5.1336,5.1336,5.1336,5.1336,5.1336,5.1336,5.1336,5.1336,5.1336,5.1336,5.1336,5.1336,5.1336,5.1336,5.1336,5.1336,5.1336,5.1336,5.1336,5.1336,5.1563,5.2193,5.3031,5.383,5.4515,5.4743,5.4821,5.4821,5.4821,5.4821,5.4821,5.4821,5.4821,5.4821,5.4821,5.4821,5.4821,5.4821,5.4821,5.4821,5.4821,5.4821,5.4821,5.4821,5.4821,5.4821,5.4821,5.4821,5.4821,5.4821,5.4821,5.4821,5.4821,5.4821,5.4821,5.4821,5.4821,5.4821,5.4821,5.4821,5.4821,5.4821,5.4821,5.4821,5.4821,5.4821,5.4821,5.4821,5.4821,5.4821,5.4821,5.4821,5.4821,5.4832,5.4829,5.4866,5.5191,5.5258,5.5406,5.5684,5.6181,5.6989,5.7498,5.7506,5.7571,5.7692,5.7922,5.7913,5.8017,5.8121,5.8126,5.8048,5.7943,5.7943,5.8073,5.8121,5.8095,5.7268,5.6178,5.5467,5.4957,5.4905,5.5077,5.5127,5.5424,5.643,5.7229,4.7817,4.7931,4.853,4.9076,4.9532,4.9707,5.0356,5.131,5.1336,5.1336,5.1336,5.1336,5.1336,5.1336,5.1336,5.1336,5.1336,5.1336,5.1336,5.1336,5.1336,5.1336,5.1336,5.1336,5.1336,5.1336,5.1336,5.1336,5.1369,5.1914,5.2751,5.3654,5.4437,5.4743,5.4821,5.4821,5.4821,5.4821,5.4821,5.4821,5.4821,5.4821,5.4821,5.4821,5.4821,5.4821,5.4821,5.4821,5.4821,5.4821,5.4821,5.4821,5.4821,5.4821,5.4821,5.4821,5.4821,5.4821,5.4821,5.4821,5.4821,5.4821,5.4821,5.4821,5.4821,5.4821,5.4821,5.4821,5.4821,5.4821,5.4821,5.4821,5.4821,5.4821,5.4821,5.4821,5.4821,5.4821,5.4821,5.4821,5.4821,5.4824,5.4819,5.5223,5.5555,5.5778,5.6144,5.6346,5.6494,5.7341,5.7325,5.7386,5.7576,5.7909,5.8039,5.7926,5.7952,5.7861,5.7939,5.8147,5.8147,5.8121,5.8147,5.8147,5.8147,5.7809,5.7009,5.6173,5.5384,5.5311,5.555,5.5738,5.6331,5.7233,5.7181,4.7817,4.7843,4.8068,4.8683,4.9525,4.9603,5.0252,5.118,5.1336,5.1336,5.1336,5.1336,5.1336,5.1336,5.1336,5.1336,5.1336,5.1336,5.1336,5.1336,5.1336,5.1336,5.1336,5.1336,5.1336,5.1336,5.1336,5.1336,5.1343,5.1479,5.2252,5.3356,5.4301,5.4613,5.4795,5.4821,5.4847,5.4842,5.4894,5.4873,5.4821,5.4821,5.4821,5.4847,5.4821,5.4847,5.4821,5.4821,5.4821,5.4821,5.4821,5.4821,5.4821,5.4821,5.4821,5.4821,5.4821,5.4821,5.4821,5.4821,5.4821,5.4821,5.4821,5.4821,5.4821,5.4821,5.4821,5.4821,5.4821,5.4821,5.4821,5.4821,5.4821,5.4821,5.4821,5.4821,5.4821,5.4821,5.4821,5.4821,5.4806,5.4809,5.4865,5.5384,5.6019,5.6488,5.6834,5.6713,5.6677,5.6748,5.6719,5.6742,5.6874,5.7386,5.7673,5.78,5.7801,5.7627,5.7835,5.8121,5.8147,5.8147,5.8147,5.8147,5.7991,5.7783,5.7398,5.7061,5.6261,5.6001,5.6105,5.6626,5.7379,5.7353,5.7076,4.7817,4.7817,4.7817,4.838,4.9247,4.948,5.0122,5.0991,5.1251,5.1336,5.1336,5.1336,5.1336,5.1336,5.1336,5.1336,5.1336,5.1336,5.1336,5.1336,5.1336,5.1336,5.1336,5.1336,5.1336,5.1336,5.1336,5.1336,5.1336,5.1369,5.2031,5.2856,5.376,5.4307,5.4515,5.4962,5.4931,5.4894,5.5024,5.5024,5.4821,5.4821,5.4879,5.5098,5.4879,5.4931,5.5118,5.4873,5.4842,5.4821,5.4821,5.4821,5.4821,5.4821,5.4821,5.4821,5.4821,5.4821,5.4821,5.4821,5.4821,5.4821,5.4821,5.4821,5.4821,5.4821,5.4821,5.4821,5.4821,5.4821,5.4821,5.4821,5.4821,5.4821,5.4821,5.4821,5.4821,5.4821,5.4821,5.4821,5.4821,5.4814,5.5021,5.5482,5.6478,5.7084,5.6807,5.6676,5.6582,5.6465,5.6412,5.6373,5.6421,5.6934,5.7426,5.7779,5.784,5.7788,5.7917,5.8051,5.8125,5.8147,5.8125,5.8073,5.7865,5.7679,5.7684,5.7606,5.6992,5.6608,5.6697,5.7094,5.7584,5.7579,5.7103,4.7817,4.7817,4.7817,4.819,4.8886,4.9369,4.9959,5.062,5.1114,5.1336,5.1336,5.1336,5.1336,5.1336,5.1336,5.1336,5.1336,5.1336,5.1336,5.1336,5.1336,5.1336,5.1336,5.1336,5.1336,5.1336,5.1336,5.1336,5.1336,5.1336,5.1927,5.2752,5.3194,5.3532,5.396,5.4999,5.5306,5.5003,5.5466,5.531,5.5055,5.4957,5.517,5.5306,5.5144,5.517,5.5228,5.5061,5.4842,5.4821,5.4821,5.4821,5.4821,5.4821,5.4821,5.4821,5.4821,5.4821,5.4821,5.4821,5.4821,5.4821,5.4821,5.4821,5.4821,5.4821,5.4821,5.4821,5.4821,5.4821,5.4821,5.4821,5.4821,5.4821,5.4821,5.4821,5.4821,5.4821,5.4821,5.4821,5.4821,5.4873,5.5217,5.5753,5.6866,5.7144,5.6796,5.662,5.6525,5.6426,5.6367,5.6318,5.6204,5.6613,5.6914,5.7488,5.7896,5.7974,5.7952,5.7934,5.7956,5.8077,5.8099,5.8025,5.7844,5.761,5.784,5.8047,5.7558,5.707,5.7191,5.7368,5.7788,5.7878,5.7239,4.7817,4.7817,4.7817,4.8208,4.8816,4.9325,4.9914,5.0561,5.1069,5.131,5.1336,5.1336,5.1336,5.1336,5.1336,5.1336,5.1336,5.1336,5.1336,5.1336,5.1336,5.1336,5.1336,5.1336,5.1336,5.1336,5.1336,5.1336,5.1336,5.1336,5.1758,5.2323,5.2856,5.3304,5.396,5.4927,5.5545,5.5394,5.5571,5.5488,5.5462,5.5363,5.5545,5.5571,5.5498,5.5498,5.5467,5.5196,5.4905,5.4821,5.4821,5.4821,5.4821,5.4821,5.4821,5.4821,5.4821,5.4821,5.4821,5.4821,5.4821,5.4821,5.4821,5.4821,5.4821,5.4821,5.4821,5.4821,5.4821,5.4821,5.4821,5.4821,5.4821,5.4821,5.4821,5.4821,5.4821,5.4821,5.4821,5.4821,5.4817,5.4828,5.5264,5.5919,5.677,5.699,5.68,5.6783,5.6678,5.6565,5.6518,5.6511,5.6343,5.6352,5.6353,5.6895,5.7372,5.748,5.7658,5.7666,5.7934,5.8051,5.8099,5.7969,5.7792,5.761,5.761,5.7714,5.761,5.7506,5.7632,5.7731,5.8047,5.7926,5.7311,4.7817,4.7817,4.7817,4.8042,4.8442,4.9031,4.9621,5.0204,5.0757,5.1102,5.1336,5.1336,5.1336,5.1336,5.1336,5.1336,5.1336,5.1336,5.1336,5.1336,5.1336,5.1336,5.1336,5.1336,5.1336,5.1336,5.1336,5.1336,5.1336,5.1336,5.1557,5.1843,5.2356,5.2973,5.3596,5.4303,5.5082,5.5467,5.6138,5.6247,5.6085,5.5809,5.587,5.6131,5.6126,5.5898,5.5815,5.5363,5.504,5.4853,5.4821,5.4821,5.4821,5.4821,5.4821,5.4821,5.4821,5.4821,5.4821,5.4821,5.4821,5.4821,5.4821,5.4821,5.4821,5.4821,5.4821,5.4821,5.4821,5.4821,5.4821,5.4821,5.4821,5.4821,5.4821,5.4821,5.4821,5.4821,5.4821,5.4821,5.4817,5.485,5.543,5.6106,5.66,5.6978,5.6985,5.6968,5.6851,5.6751,5.7042,5.714,5.691,5.688,5.6516,5.6619,5.6844,5.7083,5.7317,5.7662,5.8008,5.8095,5.8035,5.7861,5.7684,5.7658,5.7584,5.748,5.7532,5.7684,5.7865,5.7995,5.7965,5.7913,5.7692,4.7817,4.7817,4.7817,4.7835,4.7895,4.8494,4.9102,4.9707,5.029,5.0873,5.1284,5.1336,5.1336,5.1336,5.1336,5.1336,5.1336,5.1336,5.1336,5.1336,5.1336,5.1336,5.1336,5.1336,5.1336,5.1336,5.1336,5.1336,5.1336,5.1336,5.1336,5.1395,5.1998,5.2505,5.3129,5.3862,5.4569,5.5825,5.6895,5.713,5.6593,5.6278,5.6395,5.6936,5.6754,5.6426,5.64,5.5815,5.5337,5.4962,5.4853,5.4821,5.4827,5.4823,5.4818,5.4818,5.4818,5.4818,5.4802,5.4797,5.4827,5.4821,5.4821,5.4821,5.4821,5.4821,5.4821,5.4821,5.4821,5.4821,5.4821,5.4821,5.4821,5.4821,5.4821,5.4821,5.4821,5.4821,5.4821,5.4821,5.4849,5.4964,5.5404,5.6693,5.7348,5.7547,5.7576,5.748,5.7317,5.7294,5.7616,5.7646,5.7445,5.7087,5.6706,5.6697,5.6893,5.71,5.7462,5.7834,5.8009,5.796,5.7926,5.7659,5.7191,5.7528,5.7684,5.758,5.7606,5.7835,5.7965,5.8017,5.7991,5.7991,5.7926,4.7817,4.7817,4.7817,4.7817,4.7869,4.8494,4.9076,4.9629,5.0256,5.0847,5.1225,5.1336,5.1336,5.1336,5.1336,5.1336,5.1336,5.1336,5.1336,5.1336,5.1336,5.1336,5.1336,5.1336,5.1336,5.1336,5.1336,5.1336,5.1336,5.1336,5.1336,5.1343,5.1791,5.2362,5.2999,5.3596,5.4543,5.5923,5.7023,5.7336,5.7155,5.6975,5.7122,5.7191,5.7229,5.7082,5.6926,5.6173,5.5607,5.5259,5.5014,5.4821,5.4812,5.4834,5.4871,5.514,5.4984,5.4964,5.483,5.4798,5.4806,5.4821,5.4821,5.4821,5.4821,5.4821,5.4821,5.4821,5.4821,5.4821,5.4821,5.4821,5.4821,5.4821,5.4821,5.4821,5.4821,5.4821,5.4821,5.4817,5.486,5.4969,5.5862,5.7218,5.7876,5.805,5.8095,5.7974,5.7926,5.787,5.7994,5.7933,5.7642,5.7264,5.6842,5.6657,5.6949,5.7262,5.7703,5.7989,5.7751,5.769,5.7593,5.7073,5.6459,5.6832,5.7528,5.758,5.7606,5.7658,5.7736,5.7887,5.8043,5.8095,5.8103,4.7817,4.7817,4.7817,4.7817,4.7887,4.8208,4.8694,4.9265,4.9855,5.0446,5.0958,5.118,5.1336,5.1336,5.1336,5.1336,5.1336,5.1336,5.1336,5.1336,5.1336,5.1336,5.1336,5.1336,5.1336,5.1336,5.1336,5.1336,5.1336,5.1336,5.1336,5.1362,5.1628,5.2076,5.2563,5.3226,5.4459,5.5716,5.6619,5.7181,5.7528,5.7679,5.7701,5.7701,5.7441,5.7359,5.7052,5.6204,5.5633,5.5498,5.5092,5.4821,5.4817,5.4834,5.5394,5.5914,5.581,5.5235,5.4874,5.484,5.4812,5.4821,5.4821,5.4821,5.4821,5.4821,5.4821,5.4821,5.4821,5.4821,5.4821,5.4821,5.4821,5.4821,5.4821,5.4821,5.4821,5.4821,5.4806,5.4829,5.4871,5.5357,5.6047,5.7109,5.7695,5.7848,5.7905,5.7904,5.8,5.8099,5.8134,5.8133,5.7813,5.7472,5.7139,5.6961,5.7394,5.7601,5.8067,5.7928,5.7652,5.7273,5.7123,5.671,5.6622,5.6858,5.7148,5.7403,5.7476,5.7502,5.748,5.7788,5.8047,5.8099,5.8173,4.7817,4.7817,4.7817,4.7817,4.7817,4.7843,4.819,4.8834,4.9291,4.9855,5.0639,5.0991,5.1232,5.1329,5.1336,5.1336,5.1336,5.1336,5.1336,5.1336,5.1336,5.1336,5.1336,5.1336,5.1336,5.1336,5.1336,5.1336,5.1336,5.1336,5.1336,5.1336,5.1395,5.1602,5.2258,5.2869,5.3908,5.5373,5.6136,5.694,5.7844,5.8095,5.8095,5.7943,5.7627,5.7359,5.7203,5.6251,5.5628,5.5524,5.5092,5.4842,5.4827,5.4812,5.6035,5.7072,5.694,5.5786,5.5004,5.4798,5.4821,5.4821,5.4821,5.4821,5.4821,5.4821,5.4821,5.4821,5.4821,5.4821,5.4821,5.4821,5.4821,5.4821,5.4821,5.4821,5.4821,5.4821,5.4821,5.4839,5.5293,5.5773,5.6254,5.6914,5.7502,5.7641,5.7727,5.7848,5.7948,5.8073,5.8147,5.8139,5.7883,5.7861,5.7632,5.771,5.7913,5.7991,5.81,5.8039,5.7476,5.6907,5.6727,5.6886,5.7278,5.7476,5.7584,5.7532,5.7398,5.7476,5.7684,5.7891,5.8073,5.8099,5.8147,4.7817,4.7817,4.7817,4.7817,4.7817,4.7817,4.8164,4.873,4.8894,4.9573,5.0457,5.0646,5.0958,5.1244,5.131,5.1336,5.1336,5.1336,5.1336,5.1336,5.1336,5.1336,5.1336,5.1336,5.1336,5.1336,5.1336,5.1336,5.1336,5.1336,5.1336,5.1336,5.1336,5.1576,5.2096,5.2655,5.4058,5.5238,5.611,5.6966,5.784,5.8147,5.8147,5.8073,5.7627,5.7359,5.7255,5.6225,5.5659,5.5446,5.5124,5.4821,5.4828,5.4811,5.5851,5.7312,5.6191,5.5301,5.4845,5.4793,5.4821,5.4821,5.4821,5.4821,5.4821,5.4821,5.4821,5.4821,5.4821,5.4821,5.4821,5.4821,5.4821,5.4821,5.4821,5.4821,5.4821,5.4812,5.4817,5.5218,5.5724,5.619,5.6652,5.7227,5.7481,5.7601,5.7684,5.7757,5.8021,5.8099,5.8147,5.8147,5.8147,5.8147,5.8147,5.8147,5.8147,5.8147,5.8108,5.8069,5.742,5.6826,5.6705,5.6765,5.7247,5.7809,5.7943,5.7948,5.7814,5.7762,5.7939,5.8043,5.8073,5.8147,5.8147,4.7817,4.7817,4.7817,4.7817,4.7817,4.7817,4.8034,4.8338,4.8678,4.9138,4.971,5.0282,5.0698,5.0939,5.1173,5.131,5.1336,5.1336,5.1336,5.1336,5.1336,5.1336,5.1336,5.1336,5.1336,5.1336,5.1336,5.1336,5.1336,5.1336,5.1336,5.1336,5.1336,5.1421,5.1804,5.2349,5.3388,5.4589,5.556,5.6567,5.7601,5.8043,5.8121,5.7991,5.7649,5.7385,5.7151,5.6204,5.5607,5.5498,5.5113,5.4873,5.4824,5.4901,5.5309,5.6031,5.5507,5.4835,5.4824,5.4798,5.4821,5.4821,5.4821,5.4821,5.4821,5.4821,5.4821,5.4821,5.4821,5.4821,5.4821,5.4821,5.4821,5.4821,5.4821,5.4821,5.4832,5.4834,5.5029,5.5385,5.5878,5.6367,5.6912,5.7246,5.7403,5.7514,5.7597,5.7809,5.8099,5.8147,5.8147,5.8147,5.8147,5.8147,5.8147,5.8147,5.8147,5.8121,5.8134,5.8052,5.7692,5.758,5.7338,5.7044,5.7377,5.7969,5.8125,5.8099,5.8125,5.8121,5.8095,5.8095,5.8121,5.8147,5.8147,4.7817,4.7817,4.7817,4.7817,4.7817,4.7817,4.7817,4.7895,4.84,4.8723,4.8975,4.9826,5.0261,5.0592,5.0997,5.1173,5.1192,5.1284,5.1336,5.1336,5.1336,5.1336,5.1336,5.1336,5.1336,5.1336,5.1336,5.1336,5.1336,5.1336,5.1336,5.1336,5.1336,5.1336,5.1499,5.1895,5.2803,5.4044,5.4999,5.6142,5.716,5.771,5.7943,5.8047,5.7398,5.7212,5.7004,5.6194,5.5498,5.555,5.5113,5.4873,5.4823,5.4799,5.4892,5.5055,5.4891,5.4809,5.4808,5.4821,5.4821,5.4821,5.4821,5.4821,5.4821,5.4821,5.4821,5.4821,5.4821,5.4821,5.4821,5.4821,5.4821,5.4821,5.4821,5.4821,5.4802,5.485,5.5015,5.5575,5.6024,5.6512,5.6976,5.7342,5.7588,5.7795,5.7809,5.7978,5.8069,5.8069,5.8095,5.8073,5.8121,5.8095,5.8073,5.8025,5.8047,5.7995,5.8117,5.806,5.8086,5.8121,5.8121,5.7814,5.7943,5.8147,5.8147,5.8125,5.8147,5.8147,5.8147,5.8147,5.8147,5.8147,5.8147,4.7817,4.7817,4.7817,4.7817,4.7817,4.7817,4.7817,4.7817,4.7939,4.8348,4.8918,4.8993,4.9588,5.0128,5.0526,5.0658,5.0769,5.1017,5.1284,5.131,5.1336,5.1336,5.1336,5.1336,5.1336,5.1336,5.1336,5.1336,5.1336,5.1336,5.1336,5.1336,5.1336,5.1336,5.1421,5.1869,5.2622,5.37,5.4546,5.5617,5.6974,5.7342,5.7632,5.7714,5.7169,5.6931,5.6948,5.6033,5.5181,5.5524,5.5092,5.4873,5.4821,5.4823,5.4806,5.4821,5.481,5.481,5.4823,5.4758,5.4723,5.4821,5.4821,5.4821,5.4821,5.4821,5.4821,5.4821,5.4821,5.4821,5.4821,5.4821,5.4821,5.4821,5.4821,5.4821,5.4813,5.4826,5.5203,5.5784,5.6475,5.6813,5.7165,5.7411,5.7783,5.8077,5.8073,5.8069,5.7965,5.7939,5.7943,5.7969,5.7891,5.784,5.7727,5.7679,5.78,5.7874,5.8147,5.8095,5.8121,5.8147,5.8147,5.8147,5.8147,5.8147,5.8147,5.8147,5.8147,5.8147,5.8147,5.8147,5.8147,5.8147,5.8147,4.7817,4.7817,4.7817,4.7817,4.7817,4.7817,4.7817,4.7817,4.7817,4.8027,4.8385,4.8678,4.903,4.9526,4.9844,5.0011,5.0178,5.0627,5.1017,5.1258,5.131,5.131,5.1336,5.1336,5.1336,5.1336,5.1336,5.1336,5.1336,5.1336,5.1336,5.1336,5.1336,5.1336,5.1369,5.155,5.2304,5.333,5.4006,5.4968,5.6225,5.6645,5.6966,5.6966,5.7061,5.7004,5.7229,5.6184,5.568,5.5249,5.4311,5.3617,5.3784,5.3309,5.3698,5.4487,5.4822,5.4822,5.4578,5.4313,5.3996,5.4164,5.4619,5.4743,5.4821,5.4821,5.4821,5.4821,5.4795,5.4821,5.4821,5.4821,5.4821,5.4821,5.4821,5.4821,5.4823,5.4828,5.5322,5.6698,5.7047,5.7341,5.7371,5.7488,5.764,5.7156,5.7178,5.7879,5.7801,5.7753,5.7783,5.7814,5.771,5.7563,5.7425,5.7554,5.7675,5.7822,5.8095,5.8147,5.8147,5.8147,5.8147,5.8147,5.8147,5.8147,5.8147,5.8147,5.8147,5.8147,5.8147,5.8147,5.8147,5.8147,5.8147,4.7817,4.7817,4.7817,4.7817,4.7817,4.7817,4.7817,4.7817,4.7817,4.7817,4.7921,4.832,4.8593,4.8762,4.9172,4.9421,4.9491,5.003,5.0524,5.0927,5.1024,5.1128,5.1128,5.1121,5.118,5.1336,5.1336,5.1336,5.1336,5.1336,5.1336,5.1336,5.1336,5.1336,5.1336,5.1414,5.1901,5.2915,5.346,5.4376,5.5477,5.6053,5.6292,5.6499,5.6827,5.703,5.687,5.6152,5.5534,5.4891,5.3706,5.2784,5.2579,5.194,5.2289,5.3479,5.4062,5.4407,5.4228,5.338,5.2933,5.3539,5.4281,5.4809,5.4809,5.4815,5.4797,5.4829,5.4805,5.4795,5.4821,5.4821,5.4821,5.4821,5.4821,5.4821,5.4879,5.5264,5.5998,5.6993,5.7588,5.8134,5.8087,5.7685,5.7002,5.6328,5.6718,5.7506,5.7636,5.7588,5.7645,5.7727,5.755,5.7247,5.7312,5.7697,5.774,5.7788,5.8017,5.8147,5.8147,5.8147,5.8147,5.8147,5.8147,5.8147,5.8147,5.8147,5.8147,5.8147,5.8147,5.8147,5.8147,5.8147,5.8147,4.7817,4.7817,4.7817,4.7817,4.7817,4.7817,4.7817,4.7817,4.7817,4.7817,4.7843,4.7877,4.8034,4.7965,4.8598,4.8905,4.8894,4.9439,4.9707,4.9959,5.0342,5.0594,5.0594,5.0594,5.0809,5.1199,5.131,5.1284,5.1336,5.1336,5.1336,5.1336,5.1336,5.1336,5.1336,5.1336,5.1934,5.2882,5.322,5.4006,5.5259,5.5607,5.5789,5.6079,5.6308,5.6225,5.555,5.4557,5.3694,5.3997,5.3388,5.2479,5.1597,5.1484,5.1623,5.198,5.2777,5.3231,5.3078,5.23,5.2,5.3049,5.4148,5.4825,5.4519,5.4428,5.4537,5.4766,5.4826,5.4823,5.4808,5.479,5.4743,5.4816,5.481,5.4816,5.5157,5.6575,5.7036,5.5601,5.7041,5.7891,5.8002,5.7575,5.6783,5.6,5.6363,5.7061,5.7357,5.7142,5.7082,5.7316,5.7191,5.691,5.7351,5.7788,5.7731,5.7809,5.8043,5.8147,5.8147,5.8147,5.8147,5.8147,5.8147,5.8147,5.8147,5.8147,5.8147,5.8147,5.8147,5.8147,5.8147,5.8147,5.8147,4.7817,4.7817,4.7817,4.7817,4.7817,4.7817,4.7817,4.7817,4.7817,4.7817,4.7817,4.7817,4.7817,4.7843,4.8112,4.8234,4.8312,4.885,4.9128,4.9206,4.9699,4.9933,4.9959,4.9985,5.0271,5.0828,5.0835,5.1017,5.1258,5.1336,5.1336,5.1336,5.1336,5.1336,5.1336,5.1362,5.1882,5.285,5.313,5.3734,5.5035,5.5124,5.515,5.4953,5.5285,5.5181,5.4641,5.3914,5.3103,5.2459,5.2193,5.1856,5.1375,5.1311,5.1317,5.1336,5.1732,5.2083,5.1946,5.1664,5.1877,5.28,5.2684,5.2828,5.2866,5.2816,5.3634,5.4479,5.4811,5.4796,5.4769,5.4454,5.4431,5.4727,5.482,5.4809,5.4816,5.5725,5.5596,5.5517,5.6064,5.693,5.6248,5.6299,5.6019,5.5923,5.6153,5.6542,5.6936,5.6522,5.6292,5.6598,5.665,5.6832,5.7242,5.7498,5.7515,5.7887,5.8147,5.8147,5.8147,5.8147,5.8147,5.8147,5.8147,5.8147,5.8147,5.8147,5.8147,5.8147,5.8147,5.8147,5.8147,5.8147,5.8147,4.7817,4.7817,4.7817,4.7817,4.7817,4.7817,4.7817,4.7817,4.7817,4.7817,4.7817,4.7817,4.7817,4.7817,4.7817,4.7817,4.7939,4.8338,4.8556,4.8634,4.8943,4.9117,4.9124,4.9273,4.9681,5.0186,5.0245,5.0594,5.1069,5.1069,5.1154,5.131,5.1336,5.1336,5.1336,5.1336,5.1856,5.2681,5.2811,5.3304,5.4177,5.4327,5.4119,5.37,5.4125,5.4,5.3452,5.3374,5.2693,5.144,5.1336,5.1336,5.133,5.1311,5.1318,5.1318,5.1343,5.1362,5.1337,5.1306,5.1713,5.2407,5.1945,5.1326,5.1326,5.1329,5.216,5.3344,5.4234,5.4195,5.3903,5.37,5.4086,5.4579,5.4043,5.3965,5.4594,5.4797,5.4665,5.455,5.5315,5.5551,5.5289,5.5243,5.5519,5.5695,5.5779,5.5836,5.5917,5.5683,5.5732,5.6017,5.6235,5.6645,5.6983,5.7181,5.7515,5.7913,5.8047,5.8047,5.8099,5.8147,5.8147,5.8147,5.8147,5.8147,5.8147,5.8147,5.8147,5.8147,5.8147,5.8147,5.8147,5.8147,5.8147,4.7817,4.7817,4.7817,4.7817,4.7817,4.7817,4.7817,4.7817,4.7817,4.7817,4.7817,4.7817,4.7817,4.7817,4.7817,4.7817,4.7817,4.7939,4.7965,4.7991,4.8042,4.8094,4.8154,4.8616,4.9083,4.9577,4.961,4.9959,5.0542,5.0587,5.0847,5.118,5.1232,5.1265,5.1336,5.1336,5.1583,5.2161,5.2213,5.2518,5.324,5.3286,5.3148,5.3142,5.3188,5.2941,5.2388,5.229,5.1947,5.1421,5.1336,5.1336,5.1336,5.1336,5.1336,5.1336,5.1336,5.1336,5.1336,5.1298,5.1421,5.1581,5.1421,5.1318,5.1325,5.1324,5.1536,5.19,5.2648,5.2796,5.2183,5.249,5.352,5.4288,5.3005,5.282,5.4394,5.4619,5.4047,5.356,5.4147,5.4825,5.4717,5.4683,5.4787,5.4938,5.5171,5.5171,5.5166,5.514,5.5228,5.541,5.5607,5.6022,5.6619,5.687,5.7238,5.761,5.7822,5.7948,5.8099,5.8099,5.8147,5.8147,5.8147,5.8147,5.8147,5.8147,5.8147,5.8147,5.8147,5.8147,5.8147,5.8147,5.8147,4.7817,4.7817,4.7817,4.7817,4.7817,4.7817,4.7817,4.7817,4.7817,4.7817,4.7817,4.7817,4.7817,4.7817,4.7817,4.7817,4.7817,4.7817,4.7817,4.7817,4.7817,4.7817,4.7843,4.8086,4.8512,4.8972,4.9076,4.9387,4.9907,4.9959,5.0219,5.075,5.0847,5.0965,5.1284,5.1336,5.1596,5.2005,5.2083,5.2407,5.2934,5.3104,5.2882,5.2531,5.2459,5.2154,5.1674,5.1602,5.1499,5.1362,5.1336,5.1336,5.1336,5.1329,5.1336,5.1336,5.131,5.1329,5.1336,5.1284,5.1336,5.1336,5.1336,5.1336,5.1323,5.1324,5.1306,5.1306,5.1733,5.1797,5.1492,5.2043,5.2415,5.2655,5.183,5.181,5.2296,5.2627,5.2379,5.2459,5.3012,5.3552,5.371,5.3717,5.3686,5.3721,5.3905,5.4018,5.4626,5.4425,5.4691,5.4905,5.4994,5.5394,5.6095,5.6567,5.6957,5.7096,5.7325,5.751,5.7723,5.7775,5.7978,5.7978,5.8017,5.7991,5.8147,5.8147,5.8147,5.8147,5.8147,5.8147,5.8147,5.8147,5.8147,4.7817,4.7817,4.7817,4.7817,4.7817,4.7817,4.7817,4.7817,4.7817,4.7817,4.7817,4.7817,4.7817,4.7817,4.7817,4.7817,4.7817,4.7817,4.7817,4.7817,4.7817,4.7817,4.7817,4.7817,4.8042,4.8416,4.8486,4.879,4.9239,4.9343,4.9647,5.0089,5.023,5.0446,5.0719,5.0972,5.1225,5.1602,5.1765,5.2024,5.2466,5.2499,5.2317,5.1895,5.1849,5.1499,5.0842,5.079,5.0771,5.0764,5.0912,5.1064,5.128,5.1318,5.1299,5.1299,5.1318,5.1299,5.1306,5.0997,5.089,5.1255,5.1309,5.131,5.1336,5.1317,5.1317,5.1317,5.1336,5.1336,5.1343,5.1654,5.1745,5.1381,5.1336,5.1363,5.1519,5.1432,5.1303,5.1433,5.1995,5.2622,5.293,5.2943,5.2855,5.2627,5.3069,5.3498,5.4038,5.3829,5.3864,5.4171,5.4301,5.4468,5.5124,5.5695,5.5706,5.5586,5.6206,5.6651,5.7,5.7201,5.7561,5.7748,5.7775,5.7887,5.8069,5.8147,5.8147,5.8147,5.8095,5.8095,5.8147,5.8147,5.8147,4.7817,4.7817,4.7817,4.7817,4.7817,4.7817,4.7817,4.7817,4.7817,4.7817,4.7817,4.7817,4.7817,4.7817,4.7817,4.7817,4.7817,4.7817,4.7817,4.7817,4.7817,4.7817,4.7817,4.7817,4.7887,4.7913,4.7843,4.8208,4.8764,4.8808,4.905,4.948,4.9621,4.9681,4.9655,5.0245,5.0516,5.0672,5.1024,5.1303,5.1317,5.1336,5.131,5.1258,5.1258,5.0745,4.9759,4.9707,4.9759,4.9751,5.0019,5.0496,5.0952,5.1008,5.1186,5.1035,5.1224,5.1261,5.1083,5.0118,5.0087,5.1075,5.1323,5.1307,5.132,5.1307,5.1314,5.1321,5.1335,5.1329,5.1329,5.1303,5.129,5.1329,5.1303,5.131,5.1311,5.1311,5.133,5.1344,5.1415,5.1841,5.2609,5.2649,5.2199,5.1913,5.2488,5.3297,5.3303,5.321,5.3084,5.3188,5.3396,5.376,5.4307,5.4749,5.4396,5.4272,5.5064,5.5601,5.5851,5.6736,5.7093,5.6784,5.6813,5.6891,5.7047,5.729,5.7446,5.7736,5.7995,5.7995,5.7978,5.7934,5.803,4.7817,4.7817,4.7817,4.7817,4.7817,4.7817,4.7817,4.7817,4.7817,4.7817,4.7817,4.7817,4.7817,4.7817,4.7817,4.7817,4.7817,4.7817,4.7817,4.7817,4.7817,4.7817,4.7817,4.7817,4.7817,4.7817,4.7817,4.7895,4.8094,4.8138,4.8468,4.8998,4.905,4.9206,4.9551,4.9759,4.9888,4.9907,5.0025,5.0167,5.0148,5.0148,5.0167,5.0129,5.0148,4.994,4.9629,4.9603,4.9603,4.9566,4.9428,4.9254,4.8968,4.8949,4.8949,4.9024,4.9677,4.9833,4.9031,4.8623,4.925,5.1047,5.1289,5.1312,5.1312,5.1312,5.1309,5.1301,5.133,5.1316,5.1229,5.0824,5.0733,5.122,5.1311,5.131,5.1299,5.1098,5.1083,5.0488,5.0369,5.1196,5.1783,5.1718,5.1448,5.139,5.17,5.2401,5.2833,5.2754,5.2511,5.2986,5.3006,5.3194,5.3454,5.3356,5.2959,5.3232,5.3876,5.4127,5.454,5.583,5.6357,5.5846,5.5659,5.5737,5.5898,5.6189,5.6511,5.6879,5.7216,5.7459,5.7425,5.7588,5.7935,4.7817,4.7817,4.7817,4.7817,4.7817,4.7817,4.7817,4.7817,4.7817,4.7817,4.7817,4.7817,4.7817,4.7817,4.7817,4.7817,4.7817,4.7817,4.7817,4.7817,4.7817,4.7817,4.7817,4.7817,4.7817,4.7817,4.7817,4.7817,4.7817,4.7817,4.8016,4.8382,4.846,4.8616,4.8917,4.9169,4.9291,4.9299,4.9462,4.9603,4.9629,4.9603,4.9351,4.8976,4.8943,4.8924,4.8924,4.8924,4.8943,4.8943,4.8733,4.8359,4.7878,4.7805,4.7805,4.7878,4.8506,4.8597,4.7922,4.781,4.853,4.9868,5.0044,4.9978,5.0045,5.0045,5.0046,5.0201,5.0651,5.0763,5.032,4.9913,4.9814,5.0134,5.0615,4.9001,4.4556,4.4963,4.5445,4.3302,4.4895,4.7739,4.9326,4.8532,4.8086,5.0547,5.1336,5.1672,5.2198,5.2095,5.194,5.2297,5.2421,5.2421,5.2447,5.1946,5.1797,5.2142,5.2224,5.2295,5.3091,5.4329,5.5098,5.4605,5.4977,5.5081,5.4853,5.5196,5.5913,5.6256,5.6603,5.6742,5.6463,5.7225,5.7726,4.7801,4.7713,4.7739,4.7661,4.7713,4.7705,4.7731,4.7731,4.7757,4.7809,4.7817,4.7817,4.7783,4.7697,4.7731,4.7765,4.7783,4.7791,4.7817,4.7817,4.7817,4.7817,4.7817,4.7817,4.7817,4.7817,4.7817,4.7817,4.7817,4.7817,4.7817,4.7879,4.7887,4.7843,4.7973,4.8468,4.8756,4.879,4.9124,4.9436,4.9436,4.9454,4.8935,4.8024,4.7843,4.7895,4.7869,4.7843,4.7843,4.7843,4.7877,4.7851,4.7807,4.7807,4.7797,4.7815,4.7851,4.7843,4.7813,4.7812,4.7887,4.7938,4.8105,4.7922,4.8161,4.8161,4.8138,4.7924,4.9818,4.9551,4.7329,4.6685,4.7372,4.795,4.9856,4.4082,3.0375,3.7042,3.4466,3.0079,3.3019,3.9721,4.8661,4.3601,4.3601,4.7589,5.0874,5.1389,5.1396,5.0579,5.0168,5.0174,5.0604,5.0932,5.0862,4.9194,4.9517,4.927,4.8438,5.0136,5.1382,5.2513,5.3106,5.3574,5.3827,5.3943,5.3943,5.4225,5.471,5.3921,5.3974,5.5815,5.5817,5.6693,5.7488,4.7358,4.6756,4.6668,4.6651,4.6703,4.6703,4.6919,4.7204,4.7274,4.7507,4.7791,4.7817,4.7483,4.7052,4.7198,4.7265,4.7326,4.7653,4.7817,4.7817,4.7817,4.7817,4.7817,4.7817,4.7817,4.7817,4.7817,4.7817,4.7817,4.7817,4.7817,4.7817,4.7817,4.7817,4.7853,4.7947,4.8086,4.8112,4.8198,4.8284,4.8328,4.8284,4.8146,4.7851,4.7817,4.7817,4.7817,4.7817,4.7817,4.7817,4.7817,4.7817,4.7817,4.7817,4.7817,4.7817,4.7817,4.7817,4.7817,4.7821,4.7826,4.7834,4.7803,4.7815,4.7815,4.7815,4.7806,4.7839,4.8395,4.5788,4.0729,3.9522,4.2221,4.7186,4.8296,4.7541,4.1684,3.8288,3.4434,2.6516,2.7085,3.1407,3.9244,4.0181,3.8396,4.1812,4.6929,5.132,5.0819,4.6135,4.3161,4.4948,4.6042,4.6155,4.5304,4.4205,4.2308,4.215,4.2125,4.3142,4.633,4.9917,5.1925,5.0132,5.1614,5.1997,5.119,5.1532,5.2082,4.9169,4.8902,5.1164,5.3563,5.5654,5.6617,4.5929,4.3974,4.3956,4.4815,4.6183,4.6279,4.6461,4.6694,4.6712,4.6806,4.6967,4.7117,4.6938,4.6539,4.6651,4.6738,4.672,4.7058,4.7213,4.7196,4.7394,4.748,4.7524,4.7705,4.7817,4.7817,4.7817,4.7817,4.7817,4.7817,4.7817,4.7817,4.7817,4.7817,4.7817,4.7817,4.7817,4.7817,4.7817,4.7817,4.7817,4.7817,4.7817,4.7817,4.7817,4.7817,4.7817,4.7817,4.7817,4.7817,4.7817,4.7817,4.7817,4.7817,4.7817,4.7817,4.7817,4.7829,4.7835,4.7827,4.7809,4.7809,4.7809,4.7824,4.7827,4.7817,4.7803,4.7435,4.4845,3.9817,3.2644,3.1305,3.3027,3.7012,3.8186,3.7957,3.843,3.9795,3.6637,2.6197,2.4346,2.6947,3.1953,3.581,3.6251,3.4161,4.0311,4.5425,4.5813,4.1943,3.9025,3.9197,3.9233,3.9739,4.1023,3.9468,3.8828,3.801,3.5766,3.6053,4.1182,4.6916,4.9714,4.6345,4.6052,4.6205,4.705,4.6504,4.795,4.9388,4.8728,4.5738,4.8633,4.9746,5.0164,4.3213,4.07,4.1084,4.3003,4.5941,4.6053,4.6097,4.6157,4.6157,4.5907,4.5442,4.5794,4.5915,4.6001,4.6027,4.6105,4.6157,4.6253,4.6305,4.6365,4.6764,4.698,4.6971,4.7402,4.7626,4.7653,4.7669,4.7669,4.7705,4.7765,4.7817,4.7817,4.7817,4.7817,4.7817,4.7817,4.7817,4.7817,4.7817,4.7817,4.7817,4.7817,4.7817,4.7817,4.7817,4.7817,4.7817,4.7817,4.7817,4.7817,4.7817,4.7817,4.7817,4.7817,4.7817,4.7817,4.7817,4.7824,4.7814,4.763,4.7419,4.7525,4.7621,4.7814,4.7814,4.6241,4.5358,4.3857,3.8768,3.2323,2.531,2.465,2.5331,2.6216,2.5784,2.4323,2.6654,3.7067,4.0297,2.5597,2.4321,2.4549,2.6427,3.1433,3.2819,2.7252,3.3067,3.7348,3.7252,3.6096,3.524,3.3283,3.1983,3.3015,3.57,3.6942,3.5812,3.5726,3.0355,3.0544,3.6547,4.3596,4.806,4.2012,3.9897,3.9287,3.8597,3.905,4.2097,4.3967,4.3105,4.034,4.0379,4.1618,4.1044,3.7471,3.9709,4.245,4.4093,4.4858,4.4917,4.5144,4.5508,4.544,4.4739,4.3538,4.3526,4.3776,4.4184,4.4693,4.5118,4.5551,4.6027,4.6253,4.6279,4.6383,4.6461,4.6408,4.6242,4.6329,4.6625,4.6855,4.7037,4.7238,4.7627,4.7817,4.7817,4.7817,4.7817,4.7817,4.7817,4.7817,4.7817,4.7817,4.7817,4.7817,4.7817,4.7817,4.7817,4.7791,4.7817,4.7817,4.7817,4.7817,4.7817,4.7817,4.7817,4.7817,4.7817,4.7817,4.7817,4.7817,4.7824,4.7726,4.6223,4.5246,4.5264,4.6817,4.7794,4.6762,3.602,2.8423,2.8811,2.8307,2.6303,2.4036,2.3909,2.3921,2.3114,2.3721,2.4297,2.4481,2.7234,2.769,2.5587,2.4325,2.4353,2.4713,2.6211,2.6741,2.5173,2.656,2.8249,2.8283,2.825,2.7847,2.6781,2.6606,2.7562,2.7838,2.8467,2.8593,2.8144,2.6416,2.8017,3.1909,3.7621,3.9518,3.8467,3.7677,3.5419,3.0406,3.3415,3.6261,3.4329,3.6884,3.7997,3.5858,3.7466,3.8238,3.0492,3.3792,3.5778,3.7539,3.9068,3.9101,4.0117,4.1635,4.0219,3.8989,3.8195,3.8116,3.9163,4.0858,4.1243,4.2397,4.4158,4.452,4.4763,4.504,4.5326,4.556,4.5794,4.5933,4.6079,4.6261,4.6425,4.6537,4.6712,4.7222,4.7464,4.749,4.7705,4.7817,4.7817,4.7817,4.7817,4.7817,4.7593,4.7446,4.7464,4.7248,4.6962,4.6693,4.6668,4.6538,4.6348,4.6287,4.6305,4.6287,4.5639,4.556,4.6197,4.4314,4.4589,4.7562,4.7818,4.7814,4.7834,4.5733,4.4493,4.4516,4.5641,4.5889,4.4798,3.6225,2.8932,2.4092,2.4,2.3902,2.2991,2.3233,2.3245,2.2617,2.3592,2.4288,2.432,2.4321,2.4191,2.4004,2.4128,2.4301,2.4319,2.4319,2.4323,2.4328,2.4599,2.4909,2.4967,2.4942,2.478,2.44,2.4593,2.4814,2.4928,2.4846,2.4893,2.4992,2.489,2.5915,2.8133,3.0398,3.221,3.2094,3.1945,2.9925,2.6421,2.9179,3.0019,2.6877,3.0534,3.1813,3.0672,3.1479,3.1607,2.5318,2.7268,2.7765,2.9781,3.262,3.262,3.4308,3.6652,3.3177,3.2116,3.2893,3.2488,3.4195,3.7406,3.694,3.8671,4.192,4.1968,4.25,4.3441,4.4,4.452,4.4963,4.5491,4.5741,4.5767,4.5975,4.6019,4.6079,4.6634,4.6928,4.7006,4.7464,4.7687,4.7713,4.7783,4.7739,4.7619,4.717,4.7023,4.7144,4.6712,4.614,4.5465,4.5482,4.5145,4.457,4.4449,4.4397,4.4338,4.301,4.2638,4.3422,4.0406,4.1205,4.7161,4.7683,4.754,4.7306,4.4971,4.3635,4.3782,4.3944,4.217,3.8412,3.8102,3.4028,2.4652,2.3482,2.3406,2.2538,2.2475,2.2578,2.2516,2.3425,2.4069,2.4177,2.4071,2.3865,2.3592,2.3981,2.4318,2.4321,2.4315,2.431,2.4338,2.4399,2.4346,2.4372,2.4319,2.4319,2.4319,2.4319,2.4319,2.4385,2.4333,2.4427,2.4586,2.4473,2.4672,2.5506,2.5985,2.6067,2.5407,2.5952,2.5379,2.4648,2.4781,2.5673,2.6202,2.6049,2.6342,2.6151,2.5877,2.5642,2.9448,2.7516,3.0455,3.2099,3.262,3.262,3.298,3.3222,2.8494,0.0,0.0,3.1698,3.2586,3.572,3.3249,3.4356,3.822,3.8268,3.9951,4.2902,4.3013,4.3117,4.322,4.3341,4.3393,4.3412,4.4355,4.483,4.4865,4.5889,4.6409,4.6461,4.6928,4.7152,4.7222,4.7601,4.7386,4.6538,4.6461,4.6816,4.7653,4.7575,4.7092,4.6105,4.6123,4.562,4.457,4.3993,4.3717,4.3675,4.3049,4.1564,3.9184,4.0798,4.3684,4.7416,4.7043,4.6107,4.5081,4.1224,3.9284,4.0109,4.1084,3.6342,2.3793,2.3826,2.3678,2.2239,2.1655,2.1412,2.1421,2.2091,2.2379,2.1952,2.2464,2.3084,2.3529,2.3199,2.3048,2.3483,2.3922,2.4312,2.4283,2.4305,2.4329,2.4291,2.4255,2.4319,2.4319,2.4325,2.4312,2.4293,2.4306,2.4319,2.4319,2.4319,2.4346,2.4374,2.4355,2.4336,2.4408,2.4478,2.4478,2.4549,2.4497,2.4451,2.4353,2.4591,2.4933,2.5315,2.5361,2.5328,2.5229,2.4854,2.4526,2.544,2.3729,2.5502,2.625,0.0,2.625,2.625,2.6073,2.358,2.4344,2.7191,2.5702,2.6949,3.0244,3.0305,3.1556,3.376,3.5319,3.7164,3.9115,3.9131,4.0267,4.2369,4.2369,4.2509,4.2779,4.335,4.3643,4.3695,4.4477,4.4737,4.4511,4.5023,4.5292,4.5301,4.5526,4.5388,4.4876,4.6062,4.6884,4.7368,4.717,4.6599,4.5828,4.5759,0.0,0.0,0.0,0.0,0.0,0.0,0.0,0.0,0.0,0.0,4.1003,4.2072,4.223,4.1069,3.8435,3.6792,3.6736,3.833,3.3327,1.9261,1.9808,2.0826,2.0881,2.0282,2.0299,2.1167,2.1516,2.1551,2.135,2.149,2.1912,2.2498,2.2562,2.2591,2.2778,2.3104,2.35,2.3701,2.4029,2.4191,2.3944,2.3885,2.3993,2.4242,2.4326,2.4252,2.414,2.4195,2.4319,2.4319,2.4319,2.4319,2.4319,2.4319,2.4319,2.4319,2.4319,2.4319,2.4319,2.4319,2.4319,2.4333,2.44,2.4545,2.4715,2.4774,2.4774,2.4761,2.453,2.4319,2.0375,2.0053,2.0053,2.0053,2.0009,1.9782,1.9705,1.9707,1.9675,1.9692,1.969,1.9727,2.16,2.4807,2.6846,2.8209,2.9237,3.2309,3.4338,3.545,3.6019,3.7834,4.0569,4.121,4.1396,4.1288,4.1948,4.2269,4.2285,4.2912,4.3032,4.2649,4.337,4.3613,4.3389,0.0,0.0,0.0,4.569,4.6988,4.717,4.679,4.6218,4.5508,4.5465,0.0,4.4553,4.4414,4.4293,4.4147,4.3474,0.0,0.0,0.0,0.0,0.0,0.0,0.0,0.0,0.0,0.0,0.0,3.2929,2.8822,1.8151,1.8722,1.9753,1.9707,1.9512,1.9786,2.0841,2.0658,2.0467,2.0476,2.0456,2.0829,2.1659,2.1998,2.2086,2.1783,2.2224,2.2692,2.3042,2.3655,2.3874,2.3312,2.3392,2.3699,2.4079,2.4077,2.3978,2.3868,2.3976,2.4153,2.4292,2.4228,2.4145,2.4142,2.4142,2.4148,2.414,2.4209,2.4297,2.4135,2.4129,2.4148,2.4148,2.4182,2.4267,2.4269,2.4333,2.4255,2.4156,2.4124,2.4118,1.9868,2.0038,2.0053,2.0053,1.9927,1.8909,1.8517,1.8502,1.8488,1.8488,1.853,1.8722,2.0588,2.3362,2.1391,2.2177,2.5356,2.8449,3.1708,3.5002,3.7581,3.7685,3.5871,3.8355,3.8286,3.6003,3.905,4.0574,4.06,4.164,4.2166,4.2134,4.3627,4.387,4.2883,4.1848,4.1806,4.2867,4.5204,4.6816,4.7687,4.7635,4.7162,4.6209,4.6149,4.5629,4.4553,4.4,4.3432,4.2987,4.1957,4.2679,4.5545,4.2794,3.9002,0.0,3.4627,0.0,0.0,0.0,0.0,0.0,0.0,0.0,0.0,1.6067,1.6848,1.8389,1.9741,2.0226,1.9442,1.9293,1.9294,1.9279,1.9252,1.9932,2.1553,2.1328,2.101,2.096,2.1891,2.2549,2.2622,2.3223,2.3181,2.2353,2.2814,2.3411,2.3578,2.3433,2.3348,2.3533,2.3609,2.3756,2.4121,2.4021,2.3771,2.3648,2.3638,2.3635,2.3625,2.3972,2.4154,2.3758,2.3656,2.3648,2.3585,2.381,2.4048,2.4248,2.4253,2.4063,2.3712,2.3502,2.344,1.9201,1.9043,1.9043,1.8843,1.8484,1.8185,1.8068,1.804,1.8212,1.8278,1.8278,1.8266,1.8998,2.0329,2.0924,2.1177,2.1282,2.4292,2.6673,2.8453,2.9774,3.0864,3.1799,3.4788,3.5718,3.4865,3.6437,3.8062,3.957,3.8561,3.8681,4.002,4.11,4.0295,3.7888,3.9596,4.1277,4.2638,4.4372,4.6149,4.7739,4.7817,4.7601,4.7144,4.7136,4.6867,4.6374,4.5499,4.4772,4.4201,4.3412,4.278,4.2339,3.9146,3.5776,0.0,0.0,0.0,0.0,0.0,0.0,0.0,0.0,0.0,0.0,0.0,1.7298,1.6798,1.8044,1.875,1.8432,1.8224,1.7802,1.7177,1.8277,1.9529,2.0651,2.0227,1.9876,2.0044,2.0952,2.1562,2.1595,2.1611,2.1598,2.1756,2.1936,2.2254,2.2807,2.2695,2.2543,2.2727,2.2877,2.3177,2.3783,2.3697,2.357,2.3516,2.3195,2.3104,2.3462,2.3715,2.3819,2.357,2.3498,2.3405,2.3097,2.3343,2.3805,2.4076,2.3781,2.3346,2.3219,2.3085,2.3141,1.8592,1.8131,1.7709,1.7339,1.7049,1.726,1.7419,1.7565,1.7762,1.7775,1.7616,1.7591,1.7432,1.738,2.0107,2.0109,1.8192,2.1273,2.2884,2.3284,2.3964,2.5503,2.7799,3.0859,3.2196,3.2043,3.2709,3.4604,3.7435,3.5359,3.5303,3.7234,3.6961,3.5601,3.3516,3.7501,4.0613,4.2589,4.427,4.601,4.7739,4.7817,4.7817,4.7817,4.7817,4.7765,4.7627,4.6634,4.5568,4.4539,4.3578,4.1411,3.7854,3.4442,0.0,0.0,0.0,0.0,0.0,0.0,0.0,0.0,0.0,1.2828,1.8237,0.0,1.6777,0.0,1.6446,1.7438,1.7692,1.7229,0.0,0.0,1.7568,1.8888,1.9516,1.9019,1.879,1.9107,1.9624,2.0085,2.0358,2.0176,2.0285,2.0841,2.0823,2.1123,2.197,2.1875,2.1734,2.1807,2.1917,2.2198,2.2718,2.293,2.3005,2.3093,2.2706,2.2546,2.3022,2.3195,2.3266,2.3124,2.3124,2.293,2.2472,2.2802,2.3313,2.3541,2.2925,2.2284,2.2495,2.2604,2.2753,1.8173,1.7736,1.6099,1.5717,1.6176,1.5865,1.6099,1.6613,1.6626,1.6311,1.5801,1.6376,1.6165,1.5439,1.6303,0.0,1.7539,2.0609,2.2347,2.3076,2.5807,2.5817,2.361,2.6503,2.6503,2.3967,2.668,2.9732,3.289,3.2736,3.3174,3.4109,3.1124,3.0491,3.2312,3.5962,3.95,4.2728,4.5396,4.7109,4.7809,4.7817,4.7817,4.7817,4.7817,4.7619,4.711,4.5967,4.4392,4.2317,4.0136,3.7169,3.3204,0.0,0.0,0.0,0.0,0.0,0.0,0.0,0.0,0.0,0.0,0.0,0.0,0.0,0.0,1.3859,1.5986,0.0,1.7351,1.6341,0.0,0.0,0.0,1.7673,1.8334,1.7857,1.769,1.8301,0.0,0.0,1.9036,1.9655,1.9642,1.869,1.9835,2.083,2.0935,2.0921,2.0874,2.0906,2.0614,2.0552,2.1146,2.14,2.1687,2.1919,2.1886,2.1797,2.1912,2.228,2.2402,2.201,2.1902,2.1876,2.185,2.2031,2.2212,2.2035,2.159,2.1287,2.1353,2.162,2.1921,1.6808,1.5374,1.4619,1.4288,1.4249,1.4086,1.4549,1.5465,1.5477,1.5414,1.5327,1.5427,1.5023,1.4354,1.4442,0.0,0.0,0.0,1.8129,1.9087,2.0286,2.0617,2.0372,2.3262,2.4069,2.3129,2.6194,2.8449,2.977,2.9931,2.8709,2.6274,0.0,0.0,2.6052,3.2095,3.6381,3.8737,4.3392,4.6275,4.7091,4.7584,4.7817,4.7817,4.7541,4.7092,4.6573,4.4097,4.1682,3.9441,3.5814,3.2125,0.0,0.0,0.0,0.0,0.0,0.0,0.0,0.0,0.0,0.0,0.0,1.1261,1.3039,0.0,0.0,0.0,1.4226,1.5614,1.5228,1.6046,0.0,0.0,0.0,0.0,0.0,0.0,0.0,1.7588,1.7472,1.7727,1.8883,1.9255,1.9139,1.8348,1.8841,1.9402,1.9695,0.0,1.9796,1.9967,1.9907,2.0111,2.0694,2.0731,2.0718,2.0941,2.0511,2.032,2.0863,2.1572,2.1828,2.1336,2.1176,2.1086,2.0775,2.0786,2.0858,2.0736,2.0585,2.054,2.0682,2.0865,2.1037,1.5064,0.0,0.0,0.0,0.0,1.2846,1.3344,1.4278,1.4244,1.4315,1.433,1.4269,0.0,0.0,0.0,0.0,0.0,0.0,1.5016,1.5911,1.6281,1.6797,1.7592,1.9776,2.0808,2.0889,2.3181,2.4783,2.5633,2.5839,2.3717,1.9457,0.0,0.0,0.0,0.0,3.3136,3.5604,4.1257,4.495,4.6388,4.6976,4.7465,4.7817,4.7481,4.6798,4.5759,4.2367,3.9315,3.6749,3.23,0.0,0.0,0.0,0.0,0.0,0.0,0.0,0.0,0.0,0.0,0.0,0.0,0.0,0.0,0.0,0.0,0.0,0.0,0.0,1.2949,1.4657,1.5154,0.0,0.0,0.0,0.0,0.0,0.0,0.0,0.0,0.0,1.885,1.8675,1.8214,0.0,0.0,1.8331,1.8785,1.8887,1.8957,1.8997,1.9132,0.0,1.9767,1.9781,1.9817,2.0011,1.9553,1.9386,2.0023,2.0751,2.105,2.041,2.035,2.01,1.9316,1.9173,1.9262,1.9397,1.9478,1.9569,1.9784,1.9954,2.0097,0.0,0.0,0.0,0.0,0.0,0.0,0.0,0.0,1.3046,1.2806,0.0,1.2872,0.0,0.0,0.0,0.0,1.306,1.3555,0.0,0.0,1.558,1.5953,1.5681,1.579,1.5813,1.5788,1.5847,1.7313,1.9979,2.0107,0.0,0.0,0.0,0.0,0.0,0.0,3.0123,3.4011,3.9483,4.3457,4.5796,4.5953,4.6562,4.7773,4.7809,4.6754,4.4579,4.1054,3.7732,3.441,2.991,0.0,0.0,0.0,0.0,0.0,0.0,0.0,0.0,0.0,0.0,0.0,0.0,0.0,0.0,0.0,0.0,0.0,0.0,0.0,0.0,1.1682,0.0,0.0,0.0,0.0,0.0,0.0,0.0,0.0,0.0,1.7168,1.878,1.7691,1.6729,1.6613,0.0,0.0,0.0,0.0,1.8513,1.8028,1.8173,1.8123,1.7569,1.818,1.8811,1.9063,0.0,0.0,1.9448,1.9791,1.9853,1.9232,1.9294,1.8897,1.7193,1.7206,1.7534,1.7889,1.8128,1.8302,1.8355,1.8723,1.9035,0.0,0.0,0.0,0.0,0.0,0.0,0.0,0.0,0.0,1.1147,0.0,1.1346,0.0,0.0,0.0,0.0,0.0,0.0,0.0,0.0,1.367,1.4053,1.4399,1.439,1.4423,0.0,1.6649,1.6516,0.0,0.0,0.0,0.0,0.0,0.0,0.0,0.0,2.7519,3.0395,3.8087,4.3103,4.5039,4.6453,4.7359,4.7773,4.7817,4.5881,4.1848,3.6538,3.2478,0.0,0.0,0.0,0.0,0.0,0.0,0.0,0.0,0.0,0.0,0.0,0.0,0.0,0.0,0.0,0.0,0.0,0.0,0.0,0.0,0.0,0.0,0.0,1.2264,0.0,0.0,0.0,0.0,0.0,0.0,0.0,0.0,0.0,1.7324,1.5911,1.5087,1.5776,1.7178,1.8173,1.8266,0.0,0.0,0.0,0.0,0.0,0.0,0.0,1.8564,1.833,1.8356,1.8478,1.8649,1.8795,1.8674,1.7998,0.0,0.0,1.5856,1.6233,1.6785,1.6759,1.6824,1.6982,1.7219,1.7351,1.7564,0.0,0.0,0.0,0.0,0.0,0.0,0.0,0.0,0.0,0.9986,0.981,0.0,0.0,0.0,0.0,0.0,0.0,0.0,0.0,0.0,0.0,0.0,1.3075,1.32,0.0,0.0,0.0,0.0,0.0,0.0,0.0,0.0,0.0,0.0,0.0,0.0,2.5099,2.7881,3.5454,4.0876,4.3791,4.5382,4.6489,4.7157,4.7004,4.5089,4.1137,0.0,0.0,0.0,0.0,0.0,0.0,0.0,0.0,0.0,0.0,0.0,0.0,0.0,0.0,0.0,0.0,0.0,0.0,0.0,0.0,0.0,0.0,0.0,0.0,0.0,1.2061,0.0,0.0,0.0,0.0,0.0,0.0,0.0,0.0,0.0,0.0,0.0,1.4234,1.5402,1.7042,1.808,1.7943,1.778,1.7761,0.0,0.0,0.0,0.0,0.0,0.0,0.0,0.0,0.0,0.0,0.0,0.0,0.0,0.0,1.5789,1.4766,1.5154,1.555,1.5359,0.0,0.0,0.0,0.0,0.0,0.0,0.0,0.0,0.0,0.0,0.0,0.0,0.0,0.0,0.0,0.9442,0.0,0.0,0.8764,0.0,0.0,0.0,0.0,0.0,0.0,0.0,0.0,0.0,0.0,0.0,0.0,0.0,0.0,0.0,0.0,0.0,0.0,0.0,0.0,0.0,0.0,2.2854,2.6513,3.169,3.6802,4.1905,4.2722,4.3998,4.5806,4.5321,4.4204,4.2401,0.0,0.0,0.0,0.0,0.0,0.0,0.0,0.0,0.0,0.0,0.0,0.0,0.0,0.0,0.0,0.0,0.0,0.0,0.0,0.0,0.0,0.0,0.0,0.0,0.0,0.0,1.4874,1.2401,1.0453,0.0,0.0,0.0,0.0,0.0,0.0,0.0,0.0,0.0,1.4819,1.6734,1.7677,1.7362,1.734,1.7246,1.7009,1.6983,1.6996,1.6996,1.718,1.7324,0.0,0.0,0.0,0.0,0.0,0.0,0.0,0.0,0.0,0.0,0.0,0.0,0.0,0.0,0.0,0.0,0.0,0.0,0.0,0.0,0.0,0.0,0.0,0.0,0.0,0.0,0.0,0.0,0.0,0.0,0.0,0.0,0.0,0.0,0.0,0.0,0.0,0.0,0.0,0.0,0.0,0.0,0.0,0.0,0.0,0.0,0.0,0.0,0.0,0.0,0.0,0.0,0.0,0.0,2.1759,2.3931,3.1943,3.7255,3.9712,4.2277,4.4351,4.573,4.3427,4.0336,0.0,0.0,0.0,0.0,0.0,0.0,0.0,0.0,0.0,0.0,0.0,0.0,0.0,0.0,0.0,0.0,0.0,0.0,0.0,0.0,0.0,0.0,0.0,0.0,0.0,0.0,0.0,0.0,0.915,0.9608,1.3611,0.0,0.0,0.0,0.0,0.0,0.0,0.0,0.0,0.0,0.0,1.6674,1.7816,1.7611,1.726,1.7207,1.7646,1.7808,1.7246,1.747,1.7511,1.6877,0.0,0.0,0.0,0.0,0.0,0.0,0.0,0.0,0.0,0.0,0.0,0.0,0.0,0.0,0.0,0.0,0.0,0.0,0.0,0.0,0.0,0.0,0.0,0.0,0.0,0.0,0.0,0.0,0.0,0.0,0.0,0.0,0.0,0.0,0.0,0.0,0.0,0.0,0.0,0.0,0.0,0.0,0.0,0.0,0.0,0.0,0.0,0.0,0.0,0.0,0.0,0.0,0.0,2.0719,2.266,3.0868,3.5831,3.7308,4.0866,4.3364,4.4406,4.1249,3.766,0.0,0.0,0.0,0.0,0.0,0.0,0.0,0.0,0.0,0.0,0.0,0.0,0.0,0.0,0.0,0.0,0.0,0.0,0.0,0.0,0.0,0.0,0.0,0.0,0.0,0.0,0.0,0.0,0.8223,1.0236,1.5015,0.0,0.0,0.0,0.0,0.0,0.0,0.0,0.0,0.0,0.0,1.656,1.7474,1.7053,0.0,0.0,1.7258,1.7417,1.689,1.7167,1.7167,1.6489,1.6132,0.0,0.0,0.0,0.0,0.0,0.0,0.0,0.0,0.0,0.0,0.0,0.0,0.0,0.0,0.0,0.0,0.0,0.0,0.0,0.0,0.0,0.0,0.0,0.0,0.0,0.0,0.0,0.0,0.0,0.0,0.0,0.0,0.0,0.0,0.0,0.0,0.0,0.0,0.0,0.0,0.0,0.0,0.0,0.0,0.0,0.0,0.0,0.0,0.0,0.0,0.0,0.0,1.95,2.2075,2.8488,3.2687,3.4559,3.8459,4.099,4.185,3.853,3.5511,0.0,0.0,0.0,0.0,0.0,0.0,0.0,0.0,0.0,0.0,0.0,0.0,0.0,0.0,0.0,0.0,0.0,0.0,0.0,0.0,0.0,0.0,0.0,0.0,0.0,0.0,0.0,0.0,0.0,0.0,0.0,0.0,0.0,0.0,0.0,0.0,0.0,0.0,0.0,0.0,0.0,1.6613,1.6494,1.5909,1.5512,0.0,1.5932,1.6183,1.6163,1.638,1.6423,1.6087,0.0,0.0,0.0,0.0,0.0,0.0,0.0,0.0,0.0,0.0,0.0,0.0,0.0,0.0,0.0,0.0,0.0,0.0,0.0,0.0,0.0,0.0,0.0,0.0,0.0,0.0,0.0,0.0,0.0,0.0,0.0,0.0,0.0,0.0,0.0,0.0,0.0,0.0,0.0,0.0,0.0,0.0,0.0,0.0,0.0,0.0,0.0,0.0,0.0,0.0,0.0,0.0,0.0,0.0,1.8101,2.4346,2.8308,2.9788,3.3512,3.679,3.9325,3.3676,0.0,0.0,0.0,0.0,0.0,0.0,0.0,0.0,0.0,0.0,0.0,0.0,0.0,0.0,0.0,0.0,0.0,0.0,0.0,0.0,0.0,0.0,0.0,0.0,0.0,0.0,0.0,0.6494,0.0,0.0,0.0,0.0,0.0,0.0,0.0,0.0,0.0,0.0,0.0,0.0,0.0,0.0,1.1518,1.5282,1.5324,1.3761,0.0,0.0,1.6864,1.6476,1.6502,1.6196,0.0,0.0,0.0,0.0,0.0,0.0,0.0,0.0,0.0,0.0,0.0,0.0,0.0,0.0,0.0,0.0,0.0,0.0,0.0,0.0,0.0,0.0,0.0,0.0,0.0,0.0,0.0,0.0,0.0,0.0,0.0,0.0,0.0,0.0,0.0,0.0,0.0,0.0,0.0,0.0,0.0,0.0,0.0,0.0,0.0,0.0,0.0,0.0,0.0,0.0,0.0,0.0,0.0,0.0,1.5582,1.6376,2.2073,2.5513,2.6408,3.0053,3.3257,3.5744,2.9703,2.6237,0.0,0.0,0.0,0.0,0.0,0.0,0.0,0.0,0.0,0.0,0.0,0.0,0.0,0.0,0.0,0.0,0.0,0.0,0.0,0.0,0.0,0.0,0.0,0.0,0.0,0.0,0.0,0.0,0.0,0.0,0.0,0.0,0.0,0.0,0.0,0.0,0.0,0.0,0.0,0.0,0.0,0.0,1.4545,1.1418,0.0,0.0,0.0,1.5654,1.3142,0.0,0.0,0.0,0.0,0.0,0.0,0.0,0.0,0.0,0.0,0.0,0.0,0.0,0.0,0.0,0.0,0.0,0.0,0.0,0.0,0.0,0.0,0.0,0.0,0.0,0.0,0.0,0.0,0.0,0.0,0.0,0.0,0.0,0.0,0.0,0.0,0.0,0.0,0.0,0.0,0.0,0.0,0.0,0.0,0.0,0.0,0.0,0.0,0.0,0.0,0.0,0.0,0.0,0.0,0.0,0.0,0.0,1.5635,2.0409,2.3079,2.3618,2.6997,2.9622,3.105,2.6056,2.328,0.0,0.0,0.0,0.0,0.0,0.0,0.0,0.0,0.0,0.0,0.0,0.0,0.0,0.0,0.0,0.0,0.0,0.0,0.0,0.0,0.0,0.0,0.0,0.0,0.0,0.0,0.0,0.0,0.0,0.0,0.0,0.0,0.0,0.0,0.0,0.0,0.0,0.0,0.0,0.0,0.0,0.4582,1.263,0.5888,0.1463,0.0,0.0,1.2108,0.7597,0.6875,0.0,0.0,0.0,0.0,0.0,0.0,0.0,0.0,0.0,0.0,0.0,0.0,0.0,0.0,0.0,0.0,0.0,0.0,0.0,0.0,0.0,0.0,0.0,0.0,0.0,0.0,0.0,0.0,0.0,0.0,0.0,0.0,0.0,0.0,0.0,0.0,0.0,0.0,0.0,0.0,0.0,0.0,0.0,0.0,0.0,0.0,0.0,0.0,0.0,0.0,0.0,0.0,0.0,0.0,0.0,0.0,1.3918,1.6001,1.7941,1.975,2.164,2.3643,2.5535,2.1786,1.9715,0.0,0.0,0.0,0.0,0.0,0.0,0.0,0.0,0.0,0.0,0.0,0.0,0.0,0.0,0.0,0.0,0.0,0.0,0.0,0.0,0.0,0.0,0.0,0.0,0.0,0.0,0.0,0.0,0.0,0.0,0.0,0.0,0.0,0.0,0.0,0.0,0.0,0.0,0.0,0.0,0.0,0.9085,0.3874,0.1366,0.0,0.0,0.0,0.0,0.1733,0.159,0.0,0.0,0.0,0.0,0.0,0.0,0.0,0.0,0.0,0.0,0.0,0.0,0.0,0.0,0.0,0.0,0.0,0.0,0.0,0.0,0.0,0.0,0.0,0.0,0.0,0.0,0.0,0.0,0.0,0.0,0.0,0.0,0.0,0.0,0.0,0.0,0.0,0.0,0.0,0.0,0.0,0.0,0.0,0.0,0.0,0.0,0.0,0.0,0.0,0.0,0.0,0.0,0.0,0.0,0.0,0.0,1.3014,1.3967,1.5398,1.7387,1.8422,1.9768,2.1445,1.8466,1.6805,0.0,0.0,0.0,0.0,0.0,0.0,0.0,0.0,0.0,0.0,0.0,0.0,0.0,0.0,0.0,0.0,0.0,0.0,0.0,0.0,0.0,0.0,0.0,0.0,0.0,0.0,0.0,0.0,0.0,0.0,0.0,0.0,0.0,0.0,0.0,0.0,0.0,0.0,0.0,0.0,0.4119,0.541,0.0653,0.0,0.0,0.0,0.0,0.0,0.0,0.0,0.0,0.0,0.0,0.0,0.0,0.0,0.0,0.0,0.0,0.0,0.0,0.0,0.0,0.0,0.0,0.0,0.0,0.0,0.0,0.0,0.0,0.0,0.0,0.0,0.0,0.0,0.0,0.0,0.0,0.0,0.0,0.0,0.0,0.0,0.0,0.0,0.0,0.0,0.0,0.0,0.0,0.0,0.0,0.0,0.0,0.0,0.0,0.0,0.0,0.0,0.0,0.0,0.0,0.0,0.0,0.0,1.2399,1.294,1.4024,1.5652,1.6233,1.703,1.7984,1.5814,1.4516,1.4275,0.0,0.0,0.0,0.0,0.0,0.0,0.0,0.0,0.0,0.0,0.0,0.0,0.0,0.0,0.0,0.0,0.0,0.0,0.0,0.0,0.0,0.0,0.0,0.0,0.0,0.0,0.0,0.0,0.0,0.0,0.0,0.0,0.0,0.0,0.0,0.0,0.0,0.0,0.0,0.0,0.0,0.0,0.0,0.0,0.0,0.0,0.0,0.0,0.0,0.0,0.0,0.0,0.0,0.0,0.0,0.0,0.0,0.0,0.0,0.0,0.0,0.0,0.0,0.0,0.0,0.0,0.0,0.0,0.0,0.0,0.0,0.0,0.0,0.0,0.0,0.0,0.0,0.0,0.0,0.0,0.0,0.0,0.0,0.0,0.0,0.0,0.0,0.0,0.0,0.0,0.0,0.0,0.0,0.0,0.0,0.0,0.0,0.0,0.0,0.0,0.0,0.0,0.0,0.0,0.0,0.0,1.2083,1.2871,1.3795,1.4456,1.4851,1.5034,1.4115,1.3048,1.1894,0.0,0.0,0.0,0.0,0.0,0.0,0.0,0.0,0.0,0.0,0.0,0.0,0.0,0.0,0.0,0.0,0.0,0.0,0.0,0.0,0.0,0.0,0.0,0.0,0.0,0.0,0.0,0.0,0.0,0.0,0.0,0.0,0.0,0.0,0.0,0.0,0.0,0.0,0.0,0.0,0.0,0.0,0.0,0.0,0.0,0.0,0.0,0.0,0.0,0.0,0.0,0.0,0.0,0.0,0.0,0.0,0.0,0.0,0.0,0.0,0.0,0.0,0.0,0.0,0.0,0.0,0.0,0.0,0.0,0.0,0.0,0.0,0.0,0.0,0.0,0.0,0.0,0.0,0.0,0.0,0.0,0.0,0.0,0.0,0.0,0.0,0.0,0.0,0.0,0.0,0.0,0.0,0.0,0.0,0.0,0.0,0.0,0.0,0.0,0.0,0.0,0.0,0.0,0.0,0.0,0.0,0.0,1.2542,1.3201,1.376,1.4073,1.4045,1.3029,1.2068,0.0,0.0,0.0,0.0,0.0,0.0,0.0,0.0,0.0,0.0,0.0,0.0,0.0,0.0,0.0,0.0,0.0,0.0,0.0,0.0,0.0,0.0,0.0,0.0,0.0,0.0,0.0,0.0,0.0,0.0,0.0,0.0,0.0,0.0,0.0,0.0,0.0,0.0,0.0,0.0,0.0,0.0,0.0,0.0,0.0,0.0,0.0,0.0,0.0,0.0,0.0,0.0,0.0,0.0,0.0,0.0,0.0,0.0,0.0,0.0,0.0,0.0,0.0,0.0,0.0,0.0,0.0,0.0,0.0,0.0,0.0,0.0,0.0,0.0,0.0,0.0,0.0,0.0,0.0,0.0,0.0,0.0,0.0,0.0,0.0,0.0,0.0,0.0,0.0,0.0,0.0,0.0,0.0,0.0,0.0,0.0,0.0,0.0,0.0,0.0,0.0,0.0,0.0,0.0,0.0,0.0,0.0,0.0,1.2376,1.2843,1.3486,1.383,1.3817,1.2491,1.1476,0.0,0.0,0.0,0.0,0.0,0.0,0.0,0.0,0.0,0.0,0.0,0.0,0.0,0.0,0.0,0.0,0.0,0.0,0.0,0.0,0.0,0.0,0.0,0.0,0.0,0.0,0.0,0.0,0.0,0.0,0.0,0.0,0.0,0.0,0.0,0.0,0.0,0.0,0.0,0.0,0.0,0.0,0.0,0.0,0.0,0.0,0.0,0.0,0.0,0.0,0.0,0.0,0.0,0.0,0.0,0.0,0.0,0.0,0.0,0.0,0.0,0.0,0.0,0.0,0.0,0.0,0.0,0.0,0.0,0.0,0.0,0.0,0.0,0.0,0.0,0.0,0.0,0.0,0.0,0.0,0.0,0.0,0.0,0.0,0.0,0.0,0.0,0.0,0.0,0.0,0.0,0.0,0.0,0.0,0.0,0.0,0.0,0.0,0.0,0.0,0.0,0.0,0.0,0.0,0.0,0.0,0.0,0.0,1.1914,1.2329,1.3307,1.382,1.378,1.2767,1.1684,0.0,0.0,0.0,0.0,0.0,0.0,0.0,0.0,0.0,0.0,0.0,0.0,0.0,0.0,0.0,0.0,0.0,0.0,0.0,0.0,0.0,0.0,0.0,0.0,0.0,0.0,0.0,0.0,0.0,0.0,0.0,0.0,0.0,0.0,0.0,0.0,0.0,0.0,0.0,0.0,0.0,0.0,0.0,0.0,0.0,0.0,0.0,0.0,0.0,0.0,0.0,0.0,0.0,0.0,0.0,0.0,0.0,0.0,0.0,0.0,0.0,0.0,0.0,0.0,0.0,0.0,0.0,0.0,0.0,0.0,0.0,0.0,0.0,0.0,0.0,0.0,0.0,0.0,0.0,0.0,0.0,0.0,0.0,0.0,0.0,0.0,0.0,0.0,0.0,0.0,0.0,0.0,0.0,0.0,0.0,0.0,0.0,0.0,0.0,0.0,0.0,0.0,0.0,0.0,0.0,0.0,0.0,0.0,1.1564,1.2217,1.2974,1.3023,1.2346,1.141,1.0588,0.0,0.0,0.0,0.0,0.0,0.0,0.0,0.0,0.0,0.0,0.0,0.0,0.0,0.0,0.0,0.0,0.0,0.0,0.0,0.0,0.0,0.0,0.0,0.0,0.0,0.0,0.0,0.0,0.0,0.0,0.0,0.0,0.0,0.0,0.0,0.0,0.0,0.0,0.0,0.0,0.0,0.0,0.0,0.0,0.0,0.0,0.0,0.0,0.0,0.0,0.0,0.0,0.0,0.0,0.0,0.0,0.0,0.0,0.0,0.0,0.0,0.0,0.0,0.0,0.0,0.0,0.0,0.0,0.0,0.0,0.0,0.0,0.0,0.0,0.0,0.0,0.0,0.0,0.0,0.0,0.0,0.0,0.0,0.0,0.0,0.0,0.0,0.0,0.0,0.0,0.0,0.0,0.0,0.0,0.0,0.0,0.0,0.0,0.0,0.0,0.0,0.0,0.0,0.0,0.0,0.0,0.0,0.0,0.0,1.1777,1.2145,1.196,1.1093,1.0422,0.9881,0.0,0.0,0.0,0.0,0.0,0.0,0.0,0.0,0.0,0.0,0.0,0.0,0.0,0.0,0.0,0.0,0.0,0.0,0.0,0.0,0.0,0.0,0.0,0.0,0.0,0.0,0.0,0.0,0.0,0.0,0.0,0.0,0.0,0.0,0.0,0.0,0.0,0.0,0.0,0.0,0.0,0.0,0.0,0.0,0.0,0.0,0.0,0.0,0.0,0.0,0.0,0.0,0.0,0.0,0.0,0.0,0.0,0.0,0.0,0.0,0.0,0.0,0.0,0.0,0.0,0.0,0.0,0.0,0.0,0.0,0.0,0.0,0.0,0.0,0.0,0.0,0.0,0.0,0.0,0.0,0.0,0.0,0.0,0.0,0.0,0.0,0.0,0.0,0.0,0.0,0.0,0.0,0.0,0.0,0.0,0.0,0.0,0.0,0.0,0.0,0.0,0.0,0.0,0.0,0.0,0.0,0.0,0.0,0.0,1.0598,1.0622,1.0617,1.0529,1.0484,1.0077,0.0,0.0,0.0,0.0,0.0,0.0,0.0,0.0,0.0,0.0,0.0,0.0,0.0,0.0,0.0,0.0,0.0,0.0,0.0,0.0,0.0,0.0,0.0,0.0,0.0,0.0,0.0,0.0,0.0,0.0,0.0,0.0,0.0,0.0,0.0,0.0,0.0,0.0,0.0,0.0,0.0,0.0,0.0,0.0,0.0,0.0,0.0,0.0,0.0,0.0,0.0,0.0,0.0,0.0,0.0,0.0,0.0,0.0,0.0,0.0,0.0,0.0,0.0,0.0,0.0,0.0,0.0,0.0,0.0,0.0,0.0,0.0,0.0,0.0,0.0,0.0,0.0,0.0,0.0,0.0,0.0,0.0,0.0,0.0,0.0,0.0,0.0,0.0,0.0,0.0,0.0,0.0,0.0,0.0,0.0,0.0,0.0,0.0,0.0,0.0,0.0,0.0,0.0,0.0,0.0,0.0,0.0,0.0,0.0,0.9407,0.9401,0.9429,0.9416,0.9409,0.9127,0.8557,0.0,0.0,0.0,0.0,0.0,0.0,0.0,0.0,0.0,0.0,0.0,0.0,0.0,0.0,0.0,0.0,0.0,0.0,0.0,0.0,0.0,0.0,0.0,0.0,0.0,0.0,0.0,0.0,0.0,0.0,0.0,0.0,0.0,0.0,0.0,0.0,0.0,0.0,0.0,0.0,0.0,0.0,0.0,0.0,0.0,0.0,0.0,0.0,0.0,0.0,0.0,0.0,0.0,0.0,0.0,0.0,0.0,0.0,0.0,0.0,0.0,0.0,0.0,0.0,0.0,0.0,0.0,0.0,0.0,0.0,0.0,0.0,0.0,0.0,0.0,0.0,0.0,0.0,0.0,0.0,0.0,0.0,0.0,0.0,0.0,0.0,0.0,0.0,0.0,0.0,0.0,0.0,0.0,0.0,0.0,0.0,0.0,0.0,0.0,0.0,0.0,0.0,0.0,0.0,0.0,0.0,0.0,0.0,0.8523,0.8569,0.8556,0.8438,0.8451,0.8268,0.0,0.0,0.0,0.0,0.0,0.0,0.0,0.0,0.0,0.0,0.0,0.0,0.0,0.0,0.0,0.0,0.0,0.0,0.0,0.0,0.0,0.0,0.0,0.0,0.0,0.0,0.0,0.0,0.0,0.0,0.0,0.0,0.0,0.0,0.0,0.0,0.0,0.0,0.0,0.0,0.0,0.0,0.0,0.0,0.0,0.0,0.0,0.0,0.0,0.0,0.0,0.0,0.0,0.0,0.0,0.0,0.0,0.0,0.0,0.0,0.0,0.0,0.0,0.0,0.0,0.0,0.0,0.0,0.0,0.0,0.0,0.0,0.0,0.0,0.0,0.0,0.0,0.0,0.0,0.0,0.0,0.0,0.0,0.0,0.0,0.0,0.0,0.0,0.0,0.0,0.0,0.0,0.0,0.0,0.0,0.0,0.0,0.0,0.0,0.0,0.0,0.0,0.0,0.0,0.0,0.0,0.0,0.0,0.585,0.8018,0.8145,0.8068,0.7808,0.7821,0.7676,0.0,0.0,0.0,0.0,0.0,0.0,0.0,0.0,0.0,0.0,0.0,0.0,0.0,0.0,0.0,0.0,0.0,0.0,0.0,0.0,0.0,0.0,0.0,0.0,0.0,0.0,0.0,0.0,0.0,0.0,0.0,0.0,0.0,0.0,0.0,0.0,0.0,0.0,0.0,0.0,0.0,0.0,0.0,0.0,0.0,0.0,0.0,0.0,0.0,0.0,0.0,0.0,0.0,0.0,0.0,0.0,0.0,0.0,0.0,0.0,0.0,0.0,0.0,0.0,0.0,0.0,0.0,0.0,0.0,0.0,0.0,0.0,0.0,0.0,0.0,0.0,0.0,0.0,0.0,0.0,0.0,0.0,0.0,0.0,0.0,0.0,0.0,0.0,0.0,0.0,0.0,0.0,0.0,0.0,0.0,0.0,0.0,0.0,0.0,0.0,0.0,0.0,0.0,0.0,0.0,0.0,0.0,0.0,0.0,0.5821,0.0,0.7748,0.0,0.79,0.7749,0.0,0.0,0.0,0.0,0.0,0.0,0.0,0.0,0.0,0.0,0.0,0.0,0.0,0.0,0.0,0.0,0.0,0.0,0.0,0.0,0.0,0.0,0.0,0.0,0.0,0.0,0.0,0.0,0.0,0.0,0.0,0.0,0.0,0.0,0.0,0.0,0.0,0.0,0.0,0.0,0.0,0.0,0.0,0.0,0.0,0.0,0.0,0.0,0.0,0.0,0.0,0.0,0.0,0.0,0.0,0.0,0.0,0.0,0.0,0.0,0.0,0.0,0.0,0.0,0.0,0.0,0.0,0.0,0.0,0.0,0.0,0.0,0.0,0.0,0.0,0.0,0.0,0.0,0.0,0.0,0.0,0.0,0.0,0.0,0.0,0.0,0.0,0.0,0.0,0.0,0.0,0.0,0.0,0.0,0.0,0.0,0.0,0.0,0.0,0.0,0.0,0.0,0.0,0.0,0.0,0.0,0.0,0.0,0.0,0.4976,0.6533,0.7335,0.717,0.7393,0.7268,0.0,0.0,0.0,0.0,0.0,0.0,0.0,0.0,0.0,0.0,0.0,0.0,0.0,0.0,0.0,0.0,0.0,0.0,0.0,0.0,0.0,0.0,0.0,0.0,0.0,0.0,0.0,0.0,0.0,0.0,0.0,0.0,0.0,0.0,0.0,0.0,0.0,0.0,0.0,0.0,0.0,0.0,0.0,0.0,0.0,0.0,0.0,0.0,0.0,0.0,0.0,0.0,0.0,0.0,0.0,0.0,0.0,0.0,0.0,0.0,0.0,0.0,0.0,0.0,0.0,0.0,0.0,0.0,0.0,0.0,0.0,0.0,0.0,0.0,0.0,0.0,0.0,0.0,0.0,0.0,0.0,0.0,0.0,0.0,0.0,0.0,0.0,0.0,0.0,0.0,0.0,0.0,0.0,0.0,0.0,0.0,0.0,0.0,0.0,0.0,0.0,0.0,0.0,0.0,0.0,0.0,0.0,0.0,0.0,0.0,0.633,0.6781,0.6445,0.6415,0.6267,0.0,0.0,0.0,0.0,0.0,0.0,0.0,0.0,0.0,0.0,0.0,0.0,0.0,0.0,0.0,0.0,0.0,0.0,0.0,0.0,0.0,0.0,0.0,0.0,0.0,0.0,0.0,0.0,0.0,0.0,0.0,0.0,0.0,0.0,0.0,0.0,0.0,0.0,0.0,0.0,0.0,0.0,0.0,0.0,0.0,0.0,0.0,0.0,0.0,0.0,0.0,0.0,0.0,0.0,0.0,0.0,0.0,0.0,0.0,0.0,0.0,0.0,0.0,0.0,0.0,0.0,0.0,0.0,0.0,0.0,0.0,0.0,0.0,0.0,0.0,0.0,0.0,0.0,0.0,0.0,0.0,0.0,0.0,0.0,0.0,0.0,0.0,0.0,0.0,0.0,0.0,0.0,0.0,0.0,0.0,0.0,0.0,0.0,0.0,0.0,0.0,0.0,0.0,0.0,0.0,0.0,0.0,0.0,0.0,0.0,0.5428,0.6149,0.6137,0.6315,0.6266,0.5891,0.0,0.0,0.0,0.0,0.0,0.0,0.0,0.0,0.0,0.0,0.0,0.0,0.0,0.0,0.0,0.0,0.0,0.0,0.0,0.0,0.0,0.0,0.0,0.0,0.0,0.0,0.0,0.0,0.0,0.0,0.0,0.0,0.0,0.0,0.0,0.0,0.0,0.0,0.0,0.0,0.0,0.0,0.0,0.0,0.0,0.0,0.0,0.0,0.0,0.0,0.0,0.0,0.0,0.0,0.0,0.0,0.0,0.0,0.0,0.0,0.0,0.0,0.0,0.0,0.0,0.0,0.0,0.0,0.0,0.0,0.0,0.0,0.0,0.0,0.0,0.0,0.0,0.0,0.0,0.0,0.0,0.0,0.0,0.0,0.0,0.0,0.0,0.0,0.0,0.0,0.0,0.0,0.0,0.0,0.0,0.0,0.0,0.0,0.0,0.0,0.0,0.0,0.0,0.0,0.0,0.0,0.0,0.0,0.0,0.0,0.563,0.5697,0.6057,0.604,0.0,0.0,0.0,0.0,0.0,0.0,0.0,0.0,0.0,0.0,0.0,0.0,0.0,0.0,0.0,0.0,0.0,0.0,0.0,0.0,0.0,0.0,0.0,0.0,0.0,0.0,0.0,0.0,0.0,0.0,0.0,0.0,0.0,0.0,0.0,0.0,0.0,0.0,0.0,0.0,0.0,0.0,0.0,0.0,0.0,0.0,0.0,0.0,0.0,0.0,0.0,0.0,0.0,0.0,0.0,0.0,0.0,0.0,0.0,0.0,0.0,0.0,0.0,0.0,0.0,0.0,0.0,0.0,0.0,0.0,0.0,0.0,0.0,0.0,0.0,0.0,0.0,0.0,0.0,0.0,0.0,0.0,0.0,0.0,0.0,0.0,0.0,0.0,0.0,0.0,0.0,0.0,0.0,0.0,0.0,0.0,0.0,0.0,0.0,0.0,0.0,0.0,0.0,0.0,0.0,0.0,0.0,0.0,0.0,0.0,0.0,0.5222,0.5267,0.5525,0.0,0.5027,0.0,0.0,0.0,0.0,0.0,0.0,0.0,0.0,0.0,0.0,0.0,0.0,0.0,0.0,0.0,0.0,0.0,0.0,0.0,0.0,0.0,0.0,0.0,0.0,0.0,0.0,0.0,0.0,0.0,0.0,0.0,0.0,0.0,0.0,0.0,0.0,0.0,0.0,0.0,0.0,0.0,0.0,0.0,0.0,0.0,0.0,0.0,0.0,0.0,0.0,0.0,0.0,0.0,0.0,0.0,0.0,0.0,0.0,0.0,0.0,0.0,0.0,0.0,0.0,0.0,0.0,0.0,0.0,0.0,0.0,0.0,0.0,0.0,0.0,0.0,0.0,0.0,0.0,0.0,0.0,0.0,0.0,0.0,0.0,0.0,0.0,0.0,0.0,0.0,0.0,0.0,0.0,0.0,0.0,0.0,0.0,0.0,0.0,0.0,0.0,0.0,0.0,0.0,0.0,0.0,0.0,0.0,0.0,0.0,0.0,0.0,0.0,0.4011,0.3257,0.3113,0.0,0.0,0.0,0.0,0.0,0.0,0.0,0.0,0.0,0.0,0.0,0.0,0.0,0.0,0.0,0.0,0.0,0.0,0.0,0.0,0.0,0.0,0.0,0.0,0.0,0.0,0.0,0.0,0.0,0.0,0.0,0.0,0.0,0.0,0.0,0.0,0.0,0.0,0.0,0.0,0.0,0.0,0.0,0.0,0.0,0.0,0.0,0.0,0.0,0.0,0.0,0.0,0.0,0.0,0.0,0.0,0.0,0.0,0.0,0.0,0.0,0.0,0.0,0.0,0.0,0.0,0.0,0.0,0.0,0.0,0.0,0.0,0.0,0.0,0.0,0.0,0.0,0.0,0.0,0.0,0.0,0.0,0.0,0.0,0.0,0.0,0.0,0.0,0.0,0.0,0.0,0.0,0.0,0.0,0.0,0.0,0.0,0.0,0.0,0.0,0.0,0.0,0.0,0.0,0.0,0.0,0.0,0.0,0.0,0.0,0.287,0.2836,0.1884,0.1373,0.1334,0.0,0.0,0.0,0.0,0.0,0.0,0.0,0.0,0.0,0.0,0.0,0.0,0.0,0.0,0.0,0.0,0.0,0.0,0.0,0.0,0.0,0.0,0.0,0.0,0.0,0.0,0.0,0.0,0.0,0.0,0.0,0.0,0.0,0.0,0.0,0.0,0.0,0.0,0.0,0.0,0.0,0.0,0.0,0.0,0.0,0.0,0.0,0.0,0.0,0.0,0.0,0.0,0.0,0.0,0.0,0.0,0.0,0.0,0.0,0.0,0.0,0.0,0.0,0.0,0.0,0.0,0.0,0.0,0.0,0.0,0.0,0.0,0.0,0.0,0.0,0.0,0.0,0.0,0.0,0.0,0.0,0.0,0.0,0.0,0.0,0.0,0.0,0.0,0.0,0.0,0.0,0.0,0.0,0.0,0.0,0.0,0.0,0.0,0.0,0.0,0.0,0.0,0.0,0.0,0.0,0.0,0.0,0.0,0.0,0.0,0.0,0.0,0.0,0.0,0.0,0.0,0.0,0.0,0.0,0.0,0.0,0.0,0.0,0.0,0.0,0.0,0.0,0.0,0.0,0.0,0.0,0.0,0.0,0.0,0.0,0.0,0.0,0.0,0.0,0.0,0.0,0.0,0.0,0.0,0.0,0.0,0.0,0.0,0.0,0.0,0.0,0.0,0.0,0.0,0.0,0.0,0.0,0.0,0.0,0.0,0.0,0.0,0.0,0.0,0.0,0.0,0.0,0.0,0.0,0.0,0.0,0.0,0.0,0.0,0.0,0.0,0.0,0.0,0.0,0.0,0.0,0.0,0.0,0.0,0.0,0.0,0.0,0.0,0.0,0.0,0.0,0.0,0.0,0.0,0.0,0.0,0.0,0.0,0.0,0.0,0.0,0.0,0.0,0.0,0.0,0.0,0.0,0.0,0.0,0.0,0.0,0.0,0.0,0.0,0.0,0.0,0.0,0.0,0.0,0.0,0.0,0.0,0.0,0.0,0.0,0.0,0.0,0.0,0.0,0.0,0.0,0.0,0.0,0.0,0.0,0.0,0.0,0.0,0.0,0.0,0.0,0.0,0.0,0.0,0.0,0.0,0.0,0.0,0.0,0.0,0.0,0.0,0.0,0.0,0.0,0.0,0.0,0.0,0.0,0.0,0.0,0.0,0.0,0.0,0.0,0.0,0.0,0.0,0.0,0.0,0.0,0.0,0.0,0.0,0.0,0.0,0.0,0.0,0.0,0.0,0.0,0.0,0.0,0.0,0.0,0.0,0.0,0.0,0.0,0.0,0.0,0.0,0.0,0.0,0.0,0.0,0.0,0.0,0.0,0.0,0.0,0.0,0.0,0.0,0.0,0.0,0.0,0.0,0.0,0.0,0.0,0.0,0.0,0.0,0.0,0.0,0.0,0.0,0.0,0.0,0.0,0.0,0.0,0.0,0.0,0.0,0.0,0.0,0.0,0.0,0.0,0.0,0.0,0.0,0.0,0.0,0.0,0.0,0.0,0.0,0.0,0.0,0.0,0.0,0.0,0.0,0.0,0.0,0.0,0.0,0.0,0.0,0.0,0.0,0.0,0.0,0.0,0.0,0.0,0.0,0.0,0.0,0.0,0.0,0.0,0.0,0.0,0.0,0.0,0.0,0.0,0.0,0.0,0.0,0.0,0.0,0.0,0.0,0.0,0.0,0.0,0.0,0.0,0.0,0.0,0.0,0.0,0.0,0.0,0.0,0.0,0.0,0.0,0.0,0.0,0.0,0.0,0.0,0.0,0.0,0.0,0.0,0.0,0.0,0.0,0.0,0.0,0.0,0.0,0.0,0.0,0.0,0.0,0.0,0.0,0.0,0.0,0.0,0.0,0.0,0.0,0.0,0.0,0.0,0.0,0.0,0.0,0.0,0.0,0.0,0.0,0.0,0.0,0.0,0.0,0.0,0.0,0.0,0.0,0.0,0.0,0.0,0.0,0.0,0.0,0.0,0.0,0.0,0.0,0.0,0.0,0.0,0.0,0.0,0.0,0.0,0.0,0.0,0.0,0.0,0.0,0.0,0.0,0.0,0.0,0.0,0.0,0.0,0.0,0.0,0.0,0.0,0.0,0.0,0.0,0.0,0.0,0.0,0.0,0.0,0.0,0.0,0.0,0.0,0.0,0.0,0.0,0.0,0.0,0.0,0.0,0.0,0.0,0.0,0.0,0.0,0.0,0.0,0.0,0.0,0.0,0.0,0.0,0.0,0.0,0.0,0.0,0.0,0.0,0.0,0.0,0.0,0.0,0.0,0.0,0.0,0.0,0.0,0.0,0.0,0.0,0.0,0.0,0.0,0.0,0.0,0.0,0.0,0.0,0.0,0.0,0.0,0.0,0.0,0.0,0.0,0.0,0.0,0.0,0.0,0.0,0.0,0.0,0.0,0.0,0.0,0.0,0.0,0.0,0.0,0.0,0.0,0.0,0.0,0.0,0.0,0.0,0.0,0.0,0.0,0.0,0.0,0.0,0.0,0.0,0.0,0.0,0.0,0.0,0.0,0.0,0.0,0.0,0.0,0.0,0.0,0.0,0.0,0.0,0.0,0.0,0.0,0.0,0.0,0.0,0.0,0.0,0.0,0.0,0.0,0.0,0.0,0.0,0.0,0.0,0.0,0.0,0.0,0.0,0.0,0.0,0.0,0.0,0.0,0.0,0.0,0.0,0.0,0.0,0.0,0.0,0.0,0.0,0.0,0.0,0.0,0.0,0.0,0.0,0.0,0.0,0.0,0.0,0.0,0.0,0.0,0.0,0.0,0.0,0.0,0.0,0.0,0.0,0.0,0.0,0.0,0.0,0.0,0.0,0.0,0.0,0.0,0.0,0.0,0.0,0.0,0.0,0.0,0.0,0.0,0.0,0.0,0.0,0.0,0.0,0.0,0.0,0.0,0.0,0.0,0.0,0.0,0.0,0.0,0.0,0.0,0.0,0.0,0.0,0.0,0.0,0.0,0.0,0.0,0.0,0.0,0.0,0.0,0.0,0.0,0.0,0.0,0.0,0.0,0.0,0.0,0.0,0.0,0.0,0.0,0.0,0.0,0.0,0.0,0.0,0.0,0.0,0.0,0.0,0.0,0.0,0.0,0.0,0.0,0.0,0.0,0.0,0.0,0.0,0.0,0.0,0.0,0.0,0.0,0.0,0.0,0.0,0.0,0.0,0.0,0.0,0.0,0.0,0.0,0.0,0.0,0.0,0.0,0.0,0.0,0.0,0.0,0.0,0.0,0.0,0.0,0.0,0.0,0.0,0.0,0.0,0.0,0.0,0.0,0.0,0.0,0.0,0.0,0.0,0.0,0.0,0.0,0.0,0.0,0.0,0.0,0.0,0.0,0.0,0.0,0.0,0.0,0.0,0.0,0.0,0.0,0.0,0.0,0.0,0.0,0.0,0.0,0.0,0.0,0.0,0.0,0.0,0.0,0.0,0.0,0.0,0.0,0.0,0.0,0.0,0.0,0.0,0.0,0.0,0.0,0.0,0.0,0.0,0.0,0.0,0.0,0.0,0.0,0.0,0.0,0.0,0.0,0.0,0.0,0.0,0.0,0.0,0.0,0.0,0.0,0.0,0.0,0.0,0.0,0.0,0.0,0.0,0.0,0.0,0.0,0.0,0.0,0.0,0.0,0.0,0.0,0.0,0.0,0.0,0.0,0.0,0.0,0.0,0.0,0.0,0.0,0.0,0.0,0.0,0.0,0.0,0.0,0.0,0.0,0.0,0.0,0.0,0.0,0.0,0.0,0.0,0.0,0.0,0.0,0.0,0.0,0.0,0.0,0.0,0.0,0.0,0.0,0.0,0.0,0.0,0.0,0.0,0.0,0.0,0.0,0.0,0.0,0.0,0.0,0.0,0.0,0.0,0.0,0.0,0.0,0.0,0.0,0.0,0.0,0.0,0.0,0.0,0.0,0.0,0.0,0.0,0.0,0.0,0.0,0.0,0.0,0.0,0.0,0.0,0.0,0.0,0.0,0.0,0.0,0.0,0.0,0.0,0.0,0.0,0.0,0.0,0.0,0.0,0.0,0.0,0.0,0.0,0.0,0.0,0.0,0.0,0.0,0.0,0.0,0.0,0.0,0.0,0.0,0.0,0.0,0.0,0.0,0.0,0.0,0.0,0.0,0.0,0.0,0.0,0.0,0.0,0.0,0.0,0.0,0.0,0.0,0.0,0.0,0.0,0.0,0.0,0.0,0.0,0.0,0.0,0.0,0.0,0.0,0.0,0.0,0.0,0.0,0.0,0.0,0.0,0.0,0.0,0.0,0.0,0.0,0.0,0.0,0.0,0.0,0.0,0.0,0.0,0.0,0.0,0.0,0.0,0.0,0.0,0.0,0.0,0.0,0.0,0.0,0.0,0.0,0.0,0.0,0.0,0.0,0.0,0.0,0.0,0.0,0.0,0.0,0.0,0.0,0.0,0.0,0.0,0.0,0.0,0.0,0.0,0.0,0.0,0.0,0.0,0.0,0.0,0.0,0.0,0.0,0.0,0.0,0.0,0.0,0.0,0.0,0.0,0.0,0.0,0.0,0.0,0.0,0.0,0.0,0.0,0.0,0.0,0.0,0.0,0.0,0.0,0.0,0.0,0.0,0.0,0.0,0.0,0.0,0.0,0.0,0.0,0.0,0.0,0.0,0.0,0.0,0.0,0.0,0.0,0.0,0.0,0.0,0.0,0.0,0.0,0.0,0.0,0.0,0.0,0.0,0.0,0.0,0.0,0.0,0.0,0.0,0.0,0.0,0.0,0.0,0.0,0.0,0.0,0.0,0.0,0.0,0.0,0.0,0.0,0.0,0.0,0.0,0.0,0.0,0.0,0.0,0.0,0.0,0.0,0.0,0.0,0.0,0.0,0.0,0.0]}]]]